<?xml version="1.0" encoding="UTF-8" standalone="no" ?>
<gpx xmlns="http://www.topografix.com/GPX/1/1" xmlns:xsi="http://www.w3.org/2001/XMLSchema-instance" xsi:schemaLocation="http://www.topografix.com/GPX/1/1 http://www.topografix.com/GPX/1/1/gpx.xsd" version="1.1" creator="VisuGPX - https://www.visugpx.com">
  <metadata>
    <name>vtt circuit n°6 club vsm gr 1</name>
    <desc><![CDATA[terrain idéal pour du vtt ,de la vase de l'eau,tout cela sous le soleil.circuit très physique]]></desc>
  </metadata>
  <trk>
    <name><![CDATA[2019-02-25-15-21-57 on GPSies.com]]></name>
    <trkseg>
      <trkpt lat="47.2698" lon="-1.13621">
        <ele>197</ele>
        <time>2019-02-25T15:21:57Z</time>
      </trkpt>
      <trkpt lat="47.26985" lon="-1.13623">
        <ele>197</ele>
        <time>2019-02-25T15:23:30Z</time>
      </trkpt>
      <trkpt lat="47.26988" lon="-1.13619">
        <ele>197</ele>
        <time>2019-02-25T15:23:32Z</time>
      </trkpt>
      <trkpt lat="47.2699" lon="-1.13604">
        <ele>197</ele>
        <time>2019-02-25T15:23:36Z</time>
      </trkpt>
      <trkpt lat="47.2699" lon="-1.13597">
        <ele>197</ele>
        <time>2019-02-25T15:23:38Z</time>
      </trkpt>
      <trkpt lat="47.26989" lon="-1.13594">
        <ele>197</ele>
        <time>2019-02-25T15:23:39Z</time>
      </trkpt>
      <trkpt lat="47.26984" lon="-1.13593">
        <ele>197</ele>
        <time>2019-02-25T15:23:42Z</time>
      </trkpt>
      <trkpt lat="47.26973" lon="-1.13593">
        <ele>197</ele>
        <time>2019-02-25T15:23:47Z</time>
      </trkpt>
      <trkpt lat="47.26968" lon="-1.13605">
        <ele>197</ele>
        <time>2019-02-25T15:23:51Z</time>
      </trkpt>
      <trkpt lat="47.26964" lon="-1.1362">
        <ele>197</ele>
        <time>2019-02-25T15:23:56Z</time>
      </trkpt>
      <trkpt lat="47.26963" lon="-1.13622">
        <ele>197</ele>
        <time>2019-02-25T15:23:57Z</time>
      </trkpt>
      <trkpt lat="47.26961" lon="-1.13622">
        <ele>197</ele>
        <time>2019-02-25T15:23:58Z</time>
      </trkpt>
      <trkpt lat="47.26958" lon="-1.13618">
        <ele>197</ele>
        <time>2019-02-25T15:24:00Z</time>
      </trkpt>
      <trkpt lat="47.26956" lon="-1.13604">
        <ele>196</ele>
        <time>2019-02-25T15:24:03Z</time>
      </trkpt>
      <trkpt lat="47.26956" lon="-1.13598">
        <ele>196</ele>
        <time>2019-02-25T15:24:04Z</time>
      </trkpt>
      <trkpt lat="47.26956" lon="-1.13592">
        <ele>196</ele>
        <time>2019-02-25T15:24:05Z</time>
      </trkpt>
      <trkpt lat="47.26959" lon="-1.13572">
        <ele>196</ele>
        <time>2019-02-25T15:24:09Z</time>
      </trkpt>
      <trkpt lat="47.26972" lon="-1.13553">
        <ele>196</ele>
        <time>2019-02-25T15:24:14Z</time>
      </trkpt>
      <trkpt lat="47.26976" lon="-1.1355">
        <ele>196</ele>
        <time>2019-02-25T15:24:15Z</time>
      </trkpt>
      <trkpt lat="47.26982" lon="-1.13542">
        <ele>196</ele>
        <time>2019-02-25T15:24:17Z</time>
      </trkpt>
      <trkpt lat="47.26983" lon="-1.13538">
        <ele>196</ele>
        <time>2019-02-25T15:24:18Z</time>
      </trkpt>
      <trkpt lat="47.26986" lon="-1.13512">
        <ele>196</ele>
        <time>2019-02-25T15:24:23Z</time>
      </trkpt>
      <trkpt lat="47.26988" lon="-1.13495">
        <ele>196</ele>
        <time>2019-02-25T15:24:26Z</time>
      </trkpt>
      <trkpt lat="47.26986" lon="-1.13491">
        <ele>196</ele>
        <time>2019-02-25T15:24:27Z</time>
      </trkpt>
      <trkpt lat="47.26975" lon="-1.13483">
        <ele>196</ele>
        <time>2019-02-25T15:24:30Z</time>
      </trkpt>
      <trkpt lat="47.26971" lon="-1.13482">
        <ele>196</ele>
        <time>2019-02-25T15:24:31Z</time>
      </trkpt>
      <trkpt lat="47.26967" lon="-1.1348">
        <ele>196</ele>
        <time>2019-02-25T15:24:32Z</time>
      </trkpt>
      <trkpt lat="47.26937" lon="-1.13473">
        <ele>195</ele>
        <time>2019-02-25T15:24:40Z</time>
      </trkpt>
      <trkpt lat="47.26926" lon="-1.13466">
        <ele>195</ele>
        <time>2019-02-25T15:24:44Z</time>
      </trkpt>
      <trkpt lat="47.26917" lon="-1.13473">
        <ele>195</ele>
        <time>2019-02-25T15:24:48Z</time>
      </trkpt>
      <trkpt lat="47.26915" lon="-1.13475">
        <ele>195</ele>
        <time>2019-02-25T15:24:49Z</time>
      </trkpt>
      <trkpt lat="47.26903" lon="-1.1349">
        <ele>195</ele>
        <time>2019-02-25T15:24:55Z</time>
      </trkpt>
      <trkpt lat="47.26891" lon="-1.13503">
        <ele>195</ele>
        <time>2019-02-25T15:25:01Z</time>
      </trkpt>
      <trkpt lat="47.26888" lon="-1.13504">
        <ele>195</ele>
        <time>2019-02-25T15:25:03Z</time>
      </trkpt>
      <trkpt lat="47.26882" lon="-1.13506">
        <ele>195</ele>
        <time>2019-02-25T15:25:07Z</time>
      </trkpt>
      <trkpt lat="47.2687" lon="-1.1351">
        <ele>195</ele>
        <time>2019-02-25T15:25:12Z</time>
      </trkpt>
      <trkpt lat="47.26858" lon="-1.1352">
        <ele>194</ele>
        <time>2019-02-25T15:25:38Z</time>
      </trkpt>
      <trkpt lat="47.26836" lon="-1.13521">
        <ele>195</ele>
        <time>2019-02-25T15:26:14Z</time>
      </trkpt>
      <trkpt lat="47.2683" lon="-1.13526">
        <ele>195</ele>
        <time>2019-02-25T15:26:17Z</time>
      </trkpt>
      <trkpt lat="47.2682" lon="-1.13548">
        <ele>194</ele>
        <time>2019-02-25T15:26:24Z</time>
      </trkpt>
      <trkpt lat="47.26809" lon="-1.13563">
        <ele>194</ele>
        <time>2019-02-25T15:26:29Z</time>
      </trkpt>
      <trkpt lat="47.26799" lon="-1.13575">
        <ele>195</ele>
        <time>2019-02-25T15:26:33Z</time>
      </trkpt>
      <trkpt lat="47.26795" lon="-1.1358">
        <ele>195</ele>
        <time>2019-02-25T15:26:35Z</time>
      </trkpt>
      <trkpt lat="47.26779" lon="-1.13592">
        <ele>194</ele>
        <time>2019-02-25T15:26:41Z</time>
      </trkpt>
      <trkpt lat="47.26765" lon="-1.13604">
        <ele>194</ele>
        <time>2019-02-25T15:26:46Z</time>
      </trkpt>
      <trkpt lat="47.26748" lon="-1.13616">
        <ele>195</ele>
        <time>2019-02-25T15:26:52Z</time>
      </trkpt>
      <trkpt lat="47.26735" lon="-1.1362">
        <ele>195</ele>
        <time>2019-02-25T15:26:57Z</time>
      </trkpt>
      <trkpt lat="47.26721" lon="-1.13618">
        <ele>195</ele>
        <time>2019-02-25T15:27:02Z</time>
      </trkpt>
      <trkpt lat="47.26698" lon="-1.13628">
        <ele>195</ele>
        <time>2019-02-25T15:27:09Z</time>
      </trkpt>
      <trkpt lat="47.26674" lon="-1.13638">
        <ele>195</ele>
        <time>2019-02-25T15:27:17Z</time>
      </trkpt>
      <trkpt lat="47.26651" lon="-1.1365">
        <ele>195</ele>
        <time>2019-02-25T15:27:24Z</time>
      </trkpt>
      <trkpt lat="47.26626" lon="-1.13664">
        <ele>195</ele>
        <time>2019-02-25T15:27:32Z</time>
      </trkpt>
      <trkpt lat="47.26605" lon="-1.13676">
        <ele>195</ele>
        <time>2019-02-25T15:27:39Z</time>
      </trkpt>
      <trkpt lat="47.26582" lon="-1.13688">
        <ele>194</ele>
        <time>2019-02-25T15:27:46Z</time>
      </trkpt>
      <trkpt lat="47.26563" lon="-1.13698">
        <ele>194</ele>
        <time>2019-02-25T15:27:53Z</time>
      </trkpt>
      <trkpt lat="47.26557" lon="-1.13708">
        <ele>194</ele>
        <time>2019-02-25T15:27:56Z</time>
      </trkpt>
      <trkpt lat="47.26555" lon="-1.13711">
        <ele>194</ele>
        <time>2019-02-25T15:27:57Z</time>
      </trkpt>
      <trkpt lat="47.26542" lon="-1.13729">
        <ele>193</ele>
        <time>2019-02-25T15:28:03Z</time>
      </trkpt>
      <trkpt lat="47.26534" lon="-1.13733">
        <ele>193</ele>
        <time>2019-02-25T15:28:06Z</time>
      </trkpt>
      <trkpt lat="47.26526" lon="-1.13737">
        <ele>193</ele>
        <time>2019-02-25T15:28:09Z</time>
      </trkpt>
      <trkpt lat="47.26515" lon="-1.1374">
        <ele>192</ele>
        <time>2019-02-25T15:28:28Z</time>
      </trkpt>
      <trkpt lat="47.2651" lon="-1.13736">
        <ele>193</ele>
        <time>2019-02-25T15:28:31Z</time>
      </trkpt>
      <trkpt lat="47.26496" lon="-1.1373">
        <ele>193</ele>
        <time>2019-02-25T15:28:38Z</time>
      </trkpt>
      <trkpt lat="47.26488" lon="-1.13727">
        <ele>193</ele>
        <time>2019-02-25T15:28:41Z</time>
      </trkpt>
      <trkpt lat="47.26473" lon="-1.13721">
        <ele>194</ele>
        <time>2019-02-25T15:28:47Z</time>
      </trkpt>
      <trkpt lat="47.2645" lon="-1.13713">
        <ele>194</ele>
        <time>2019-02-25T15:28:54Z</time>
      </trkpt>
      <trkpt lat="47.26428" lon="-1.13701">
        <ele>194</ele>
        <time>2019-02-25T15:29:02Z</time>
      </trkpt>
      <trkpt lat="47.26409" lon="-1.13688">
        <ele>195</ele>
        <time>2019-02-25T15:29:10Z</time>
      </trkpt>
      <trkpt lat="47.264" lon="-1.13688">
        <ele>195</ele>
        <time>2019-02-25T15:29:13Z</time>
      </trkpt>
      <trkpt lat="47.26399" lon="-1.1369">
        <ele>195</ele>
        <time>2019-02-25T15:29:14Z</time>
      </trkpt>
      <trkpt lat="47.26391" lon="-1.13703">
        <ele>196</ele>
        <time>2019-02-25T15:29:19Z</time>
      </trkpt>
      <trkpt lat="47.26384" lon="-1.13703">
        <ele>196</ele>
        <time>2019-02-25T15:29:21Z</time>
      </trkpt>
      <trkpt lat="47.26378" lon="-1.137">
        <ele>196</ele>
        <time>2019-02-25T15:29:23Z</time>
      </trkpt>
      <trkpt lat="47.26366" lon="-1.13697">
        <ele>196</ele>
        <time>2019-02-25T15:29:27Z</time>
      </trkpt>
      <trkpt lat="47.26358" lon="-1.13695">
        <ele>196</ele>
        <time>2019-02-25T15:29:30Z</time>
      </trkpt>
      <trkpt lat="47.26348" lon="-1.13702">
        <ele>196</ele>
        <time>2019-02-25T15:29:34Z</time>
      </trkpt>
      <trkpt lat="47.26338" lon="-1.13725">
        <ele>196</ele>
        <time>2019-02-25T15:29:40Z</time>
      </trkpt>
      <trkpt lat="47.26322" lon="-1.13762">
        <ele>196</ele>
        <time>2019-02-25T15:29:48Z</time>
      </trkpt>
      <trkpt lat="47.2632" lon="-1.13778">
        <ele>196</ele>
        <time>2019-02-25T15:29:51Z</time>
      </trkpt>
      <trkpt lat="47.26319" lon="-1.13787">
        <ele>197</ele>
        <time>2019-02-25T15:29:53Z</time>
      </trkpt>
      <trkpt lat="47.26321" lon="-1.13822">
        <ele>197</ele>
        <time>2019-02-25T15:30:00Z</time>
      </trkpt>
      <trkpt lat="47.26328" lon="-1.13856">
        <ele>196</ele>
        <time>2019-02-25T15:30:07Z</time>
      </trkpt>
      <trkpt lat="47.26329" lon="-1.13866">
        <ele>196</ele>
        <time>2019-02-25T15:30:09Z</time>
      </trkpt>
      <trkpt lat="47.26327" lon="-1.13876">
        <ele>196</ele>
        <time>2019-02-25T15:30:11Z</time>
      </trkpt>
      <trkpt lat="47.26325" lon="-1.13879">
        <ele>196</ele>
        <time>2019-02-25T15:30:12Z</time>
      </trkpt>
      <trkpt lat="47.26316" lon="-1.1389">
        <ele>196</ele>
        <time>2019-02-25T15:30:15Z</time>
      </trkpt>
      <trkpt lat="47.26312" lon="-1.13902">
        <ele>195</ele>
        <time>2019-02-25T15:30:17Z</time>
      </trkpt>
      <trkpt lat="47.26312" lon="-1.13909">
        <ele>195</ele>
        <time>2019-02-25T15:30:18Z</time>
      </trkpt>
      <trkpt lat="47.26317" lon="-1.1392">
        <ele>195</ele>
        <time>2019-02-25T15:30:20Z</time>
      </trkpt>
      <trkpt lat="47.26319" lon="-1.13925">
        <ele>195</ele>
        <time>2019-02-25T15:30:21Z</time>
      </trkpt>
      <trkpt lat="47.26336" lon="-1.13949">
        <ele>195</ele>
        <time>2019-02-25T15:30:27Z</time>
      </trkpt>
      <trkpt lat="47.26355" lon="-1.13967">
        <ele>195</ele>
        <time>2019-02-25T15:30:33Z</time>
      </trkpt>
      <trkpt lat="47.26386" lon="-1.13989">
        <ele>195</ele>
        <time>2019-02-25T15:30:40Z</time>
      </trkpt>
      <trkpt lat="47.26391" lon="-1.13993">
        <ele>194</ele>
        <time>2019-02-25T15:30:41Z</time>
      </trkpt>
      <trkpt lat="47.26406" lon="-1.14003">
        <ele>193</ele>
        <time>2019-02-25T15:30:44Z</time>
      </trkpt>
      <trkpt lat="47.26412" lon="-1.14006">
        <ele>193</ele>
        <time>2019-02-25T15:30:45Z</time>
      </trkpt>
      <trkpt lat="47.26437" lon="-1.14025">
        <ele>193</ele>
        <time>2019-02-25T15:30:50Z</time>
      </trkpt>
      <trkpt lat="47.26441" lon="-1.1403">
        <ele>193</ele>
        <time>2019-02-25T15:30:51Z</time>
      </trkpt>
      <trkpt lat="47.26453" lon="-1.14044">
        <ele>192</ele>
        <time>2019-02-25T15:30:54Z</time>
      </trkpt>
      <trkpt lat="47.26466" lon="-1.14056">
        <ele>192</ele>
        <time>2019-02-25T15:30:58Z</time>
      </trkpt>
      <trkpt lat="47.26475" lon="-1.14059">
        <ele>192</ele>
        <time>2019-02-25T15:31:03Z</time>
      </trkpt>
      <trkpt lat="47.26488" lon="-1.14063">
        <ele>192</ele>
        <time>2019-02-25T15:31:08Z</time>
      </trkpt>
      <trkpt lat="47.26517" lon="-1.1407">
        <ele>192</ele>
        <time>2019-02-25T15:31:15Z</time>
      </trkpt>
      <trkpt lat="47.2655" lon="-1.14082">
        <ele>193</ele>
        <time>2019-02-25T15:31:23Z</time>
      </trkpt>
      <trkpt lat="47.26554" lon="-1.14083">
        <ele>194</ele>
        <time>2019-02-25T15:31:24Z</time>
      </trkpt>
      <trkpt lat="47.26572" lon="-1.1409">
        <ele>194</ele>
        <time>2019-02-25T15:31:29Z</time>
      </trkpt>
      <trkpt lat="47.26583" lon="-1.14094">
        <ele>195</ele>
        <time>2019-02-25T15:31:32Z</time>
      </trkpt>
      <trkpt lat="47.26605" lon="-1.14096">
        <ele>195</ele>
        <time>2019-02-25T15:31:38Z</time>
      </trkpt>
      <trkpt lat="47.26622" lon="-1.14087">
        <ele>195</ele>
        <time>2019-02-25T15:31:42Z</time>
      </trkpt>
      <trkpt lat="47.26625" lon="-1.14083">
        <ele>195</ele>
        <time>2019-02-25T15:31:43Z</time>
      </trkpt>
      <trkpt lat="47.26642" lon="-1.14056">
        <ele>196</ele>
        <time>2019-02-25T15:31:49Z</time>
      </trkpt>
      <trkpt lat="47.26647" lon="-1.14047">
        <ele>196</ele>
        <time>2019-02-25T15:31:51Z</time>
      </trkpt>
      <trkpt lat="47.26666" lon="-1.14016">
        <ele>197</ele>
        <time>2019-02-25T15:31:58Z</time>
      </trkpt>
      <trkpt lat="47.26693" lon="-1.13972">
        <ele>198</ele>
        <time>2019-02-25T15:32:07Z</time>
      </trkpt>
      <trkpt lat="47.26695" lon="-1.13968">
        <ele>198</ele>
        <time>2019-02-25T15:32:08Z</time>
      </trkpt>
      <trkpt lat="47.26713" lon="-1.13942">
        <ele>198</ele>
        <time>2019-02-25T15:32:15Z</time>
      </trkpt>
      <trkpt lat="47.26723" lon="-1.13934">
        <ele>198</ele>
        <time>2019-02-25T15:32:19Z</time>
      </trkpt>
      <trkpt lat="47.26725" lon="-1.13935">
        <ele>198</ele>
        <time>2019-02-25T15:32:20Z</time>
      </trkpt>
      <trkpt lat="47.2673" lon="-1.13951">
        <ele>199</ele>
        <time>2019-02-25T15:32:24Z</time>
      </trkpt>
      <trkpt lat="47.2673" lon="-1.13962">
        <ele>199</ele>
        <time>2019-02-25T15:32:26Z</time>
      </trkpt>
      <trkpt lat="47.26731" lon="-1.13986">
        <ele>199</ele>
        <time>2019-02-25T15:32:30Z</time>
      </trkpt>
      <trkpt lat="47.26737" lon="-1.14029">
        <ele>200</ele>
        <time>2019-02-25T15:32:37Z</time>
      </trkpt>
      <trkpt lat="47.26739" lon="-1.14042">
        <ele>200</ele>
        <time>2019-02-25T15:32:39Z</time>
      </trkpt>
      <trkpt lat="47.26749" lon="-1.14101">
        <ele>200</ele>
        <time>2019-02-25T15:32:49Z</time>
      </trkpt>
      <trkpt lat="47.26754" lon="-1.14145">
        <ele>200</ele>
        <time>2019-02-25T15:32:57Z</time>
      </trkpt>
      <trkpt lat="47.26747" lon="-1.14186">
        <ele>200</ele>
        <time>2019-02-25T15:33:04Z</time>
      </trkpt>
      <trkpt lat="47.26741" lon="-1.14231">
        <ele>200</ele>
        <time>2019-02-25T15:33:13Z</time>
      </trkpt>
      <trkpt lat="47.26751" lon="-1.14237">
        <ele>200</ele>
        <time>2019-02-25T15:33:17Z</time>
      </trkpt>
      <trkpt lat="47.26763" lon="-1.14234">
        <ele>200</ele>
        <time>2019-02-25T15:33:20Z</time>
      </trkpt>
      <trkpt lat="47.26775" lon="-1.14233">
        <ele>200</ele>
        <time>2019-02-25T15:33:23Z</time>
      </trkpt>
      <trkpt lat="47.26793" lon="-1.14234">
        <ele>201</ele>
        <time>2019-02-25T15:33:27Z</time>
      </trkpt>
      <trkpt lat="47.26801" lon="-1.14236">
        <ele>201</ele>
        <time>2019-02-25T15:33:29Z</time>
      </trkpt>
      <trkpt lat="47.26805" lon="-1.14237">
        <ele>201</ele>
        <time>2019-02-25T15:33:30Z</time>
      </trkpt>
      <trkpt lat="47.26839" lon="-1.14245">
        <ele>201</ele>
        <time>2019-02-25T15:33:38Z</time>
      </trkpt>
      <trkpt lat="47.2685" lon="-1.14253">
        <ele>202</ele>
        <time>2019-02-25T15:33:41Z</time>
      </trkpt>
      <trkpt lat="47.2686" lon="-1.14263">
        <ele>203</ele>
        <time>2019-02-25T15:33:44Z</time>
      </trkpt>
      <trkpt lat="47.2687" lon="-1.14274">
        <ele>203</ele>
        <time>2019-02-25T15:33:47Z</time>
      </trkpt>
      <trkpt lat="47.26879" lon="-1.14283">
        <ele>203</ele>
        <time>2019-02-25T15:33:50Z</time>
      </trkpt>
      <trkpt lat="47.26892" lon="-1.143">
        <ele>203</ele>
        <time>2019-02-25T15:33:55Z</time>
      </trkpt>
      <trkpt lat="47.26914" lon="-1.14343">
        <ele>203</ele>
        <time>2019-02-25T15:34:03Z</time>
      </trkpt>
      <trkpt lat="47.26927" lon="-1.14384">
        <ele>203</ele>
        <time>2019-02-25T15:34:10Z</time>
      </trkpt>
      <trkpt lat="47.26936" lon="-1.14397">
        <ele>203</ele>
        <time>2019-02-25T15:34:14Z</time>
      </trkpt>
      <trkpt lat="47.26951" lon="-1.14398">
        <ele>203</ele>
        <time>2019-02-25T15:34:18Z</time>
      </trkpt>
      <trkpt lat="47.2696" lon="-1.14398">
        <ele>203</ele>
        <time>2019-02-25T15:34:20Z</time>
      </trkpt>
      <trkpt lat="47.26973" lon="-1.14407">
        <ele>203</ele>
        <time>2019-02-25T15:34:23Z</time>
      </trkpt>
      <trkpt lat="47.2698" lon="-1.14426">
        <ele>203</ele>
        <time>2019-02-25T15:34:26Z</time>
      </trkpt>
      <trkpt lat="47.26981" lon="-1.14433">
        <ele>202</ele>
        <time>2019-02-25T15:34:27Z</time>
      </trkpt>
      <trkpt lat="47.2699" lon="-1.14464">
        <ele>203</ele>
        <time>2019-02-25T15:34:32Z</time>
      </trkpt>
      <trkpt lat="47.27004" lon="-1.14499">
        <ele>202</ele>
        <time>2019-02-25T15:34:39Z</time>
      </trkpt>
      <trkpt lat="47.2702" lon="-1.14541">
        <ele>202</ele>
        <time>2019-02-25T15:34:46Z</time>
      </trkpt>
      <trkpt lat="47.27031" lon="-1.14572">
        <ele>202</ele>
        <time>2019-02-25T15:34:52Z</time>
      </trkpt>
      <trkpt lat="47.27037" lon="-1.14599">
        <ele>203</ele>
        <time>2019-02-25T15:34:58Z</time>
      </trkpt>
      <trkpt lat="47.27046" lon="-1.14624">
        <ele>202</ele>
        <time>2019-02-25T15:35:04Z</time>
      </trkpt>
      <trkpt lat="47.27048" lon="-1.14632">
        <ele>202</ele>
        <time>2019-02-25T15:35:06Z</time>
      </trkpt>
      <trkpt lat="47.27051" lon="-1.1464">
        <ele>200</ele>
        <time>2019-02-25T15:35:09Z</time>
      </trkpt>
      <trkpt lat="47.27053" lon="-1.14649">
        <ele>200</ele>
        <time>2019-02-25T15:35:13Z</time>
      </trkpt>
      <trkpt lat="47.27062" lon="-1.14671">
        <ele>200</ele>
        <time>2019-02-25T15:35:19Z</time>
      </trkpt>
      <trkpt lat="47.27071" lon="-1.14701">
        <ele>202</ele>
        <time>2019-02-25T15:35:26Z</time>
      </trkpt>
      <trkpt lat="47.27079" lon="-1.14717">
        <ele>202</ele>
        <time>2019-02-25T15:35:30Z</time>
      </trkpt>
      <trkpt lat="47.2709" lon="-1.14742">
        <ele>203</ele>
        <time>2019-02-25T15:35:36Z</time>
      </trkpt>
      <trkpt lat="47.27102" lon="-1.14768">
        <ele>203</ele>
        <time>2019-02-25T15:35:42Z</time>
      </trkpt>
      <trkpt lat="47.27113" lon="-1.14774">
        <ele>203</ele>
        <time>2019-02-25T15:35:46Z</time>
      </trkpt>
      <trkpt lat="47.27114" lon="-1.14773">
        <ele>203</ele>
        <time>2019-02-25T15:35:47Z</time>
      </trkpt>
      <trkpt lat="47.27122" lon="-1.14763">
        <ele>203</ele>
        <time>2019-02-25T15:35:50Z</time>
      </trkpt>
      <trkpt lat="47.2714" lon="-1.14734">
        <ele>203</ele>
        <time>2019-02-25T15:35:56Z</time>
      </trkpt>
      <trkpt lat="47.27153" lon="-1.14713">
        <ele>203</ele>
        <time>2019-02-25T15:36:01Z</time>
      </trkpt>
      <trkpt lat="47.27157" lon="-1.14708">
        <ele>203</ele>
        <time>2019-02-25T15:36:02Z</time>
      </trkpt>
      <trkpt lat="47.27184" lon="-1.1468">
        <ele>203</ele>
        <time>2019-02-25T15:36:09Z</time>
      </trkpt>
      <trkpt lat="47.2721" lon="-1.14663">
        <ele>202</ele>
        <time>2019-02-25T15:36:16Z</time>
      </trkpt>
      <trkpt lat="47.27237" lon="-1.14651">
        <ele>201</ele>
        <time>2019-02-25T15:36:23Z</time>
      </trkpt>
      <trkpt lat="47.27241" lon="-1.14649">
        <ele>201</ele>
        <time>2019-02-25T15:36:24Z</time>
      </trkpt>
      <trkpt lat="47.27274" lon="-1.14634">
        <ele>201</ele>
        <time>2019-02-25T15:36:32Z</time>
      </trkpt>
      <trkpt lat="47.27309" lon="-1.14609">
        <ele>201</ele>
        <time>2019-02-25T15:36:41Z</time>
      </trkpt>
      <trkpt lat="47.2734" lon="-1.14583">
        <ele>202</ele>
        <time>2019-02-25T15:36:49Z</time>
      </trkpt>
      <trkpt lat="47.27355" lon="-1.14574">
        <ele>202</ele>
        <time>2019-02-25T15:36:53Z</time>
      </trkpt>
      <trkpt lat="47.27364" lon="-1.14572">
        <ele>202</ele>
        <time>2019-02-25T15:36:55Z</time>
      </trkpt>
      <trkpt lat="47.27393" lon="-1.14563">
        <ele>201</ele>
        <time>2019-02-25T15:37:01Z</time>
      </trkpt>
      <trkpt lat="47.27421" lon="-1.14552">
        <ele>201</ele>
        <time>2019-02-25T15:37:08Z</time>
      </trkpt>
      <trkpt lat="47.27425" lon="-1.14549">
        <ele>201</ele>
        <time>2019-02-25T15:37:09Z</time>
      </trkpt>
      <trkpt lat="47.27465" lon="-1.14525">
        <ele>201</ele>
        <time>2019-02-25T15:37:18Z</time>
      </trkpt>
      <trkpt lat="47.27497" lon="-1.14506">
        <ele>201</ele>
        <time>2019-02-25T15:37:26Z</time>
      </trkpt>
      <trkpt lat="47.27543" lon="-1.14477">
        <ele>201</ele>
        <time>2019-02-25T15:37:37Z</time>
      </trkpt>
      <trkpt lat="47.27565" lon="-1.14455">
        <ele>200</ele>
        <time>2019-02-25T15:37:43Z</time>
      </trkpt>
      <trkpt lat="47.27593" lon="-1.14411">
        <ele>200</ele>
        <time>2019-02-25T15:37:51Z</time>
      </trkpt>
      <trkpt lat="47.27596" lon="-1.14405">
        <ele>200</ele>
        <time>2019-02-25T15:37:52Z</time>
      </trkpt>
      <trkpt lat="47.27619" lon="-1.1437">
        <ele>200</ele>
        <time>2019-02-25T15:37:59Z</time>
      </trkpt>
      <trkpt lat="47.27647" lon="-1.14325">
        <ele>200</ele>
        <time>2019-02-25T15:38:07Z</time>
      </trkpt>
      <trkpt lat="47.27652" lon="-1.14313">
        <ele>199</ele>
        <time>2019-02-25T15:38:09Z</time>
      </trkpt>
      <trkpt lat="47.27662" lon="-1.14289">
        <ele>199</ele>
        <time>2019-02-25T15:38:13Z</time>
      </trkpt>
      <trkpt lat="47.27681" lon="-1.14239">
        <ele>198</ele>
        <time>2019-02-25T15:38:21Z</time>
      </trkpt>
      <trkpt lat="47.27686" lon="-1.14226">
        <ele>198</ele>
        <time>2019-02-25T15:38:23Z</time>
      </trkpt>
      <trkpt lat="47.27708" lon="-1.14182">
        <ele>197</ele>
        <time>2019-02-25T15:38:30Z</time>
      </trkpt>
      <trkpt lat="47.27715" lon="-1.1417">
        <ele>197</ele>
        <time>2019-02-25T15:38:32Z</time>
      </trkpt>
      <trkpt lat="47.27738" lon="-1.14141">
        <ele>196</ele>
        <time>2019-02-25T15:38:38Z</time>
      </trkpt>
      <trkpt lat="47.2777" lon="-1.14105">
        <ele>196</ele>
        <time>2019-02-25T15:38:46Z</time>
      </trkpt>
      <trkpt lat="47.27808" lon="-1.14066">
        <ele>195</ele>
        <time>2019-02-25T15:38:55Z</time>
      </trkpt>
      <trkpt lat="47.27812" lon="-1.14062">
        <ele>195</ele>
        <time>2019-02-25T15:38:56Z</time>
      </trkpt>
      <trkpt lat="47.27836" lon="-1.14041">
        <ele>194</ele>
        <time>2019-02-25T15:39:02Z</time>
      </trkpt>
      <trkpt lat="47.27852" lon="-1.14028">
        <ele>193</ele>
        <time>2019-02-25T15:39:06Z</time>
      </trkpt>
      <trkpt lat="47.27879" lon="-1.14016">
        <ele>193</ele>
        <time>2019-02-25T15:39:12Z</time>
      </trkpt>
      <trkpt lat="47.27884" lon="-1.14015">
        <ele>193</ele>
        <time>2019-02-25T15:39:13Z</time>
      </trkpt>
      <trkpt lat="47.27922" lon="-1.14017">
        <ele>192</ele>
        <time>2019-02-25T15:39:20Z</time>
      </trkpt>
      <trkpt lat="47.27978" lon="-1.1402">
        <ele>191</ele>
        <time>2019-02-25T15:39:31Z</time>
      </trkpt>
      <trkpt lat="47.27988" lon="-1.14021">
        <ele>191</ele>
        <time>2019-02-25T15:39:33Z</time>
      </trkpt>
      <trkpt lat="47.28011" lon="-1.14022">
        <ele>190</ele>
        <time>2019-02-25T15:39:38Z</time>
      </trkpt>
      <trkpt lat="47.28016" lon="-1.14022">
        <ele>190</ele>
        <time>2019-02-25T15:39:39Z</time>
      </trkpt>
      <trkpt lat="47.28041" lon="-1.1402">
        <ele>190</ele>
        <time>2019-02-25T15:39:44Z</time>
      </trkpt>
      <trkpt lat="47.28046" lon="-1.14019">
        <ele>190</ele>
        <time>2019-02-25T15:39:45Z</time>
      </trkpt>
      <trkpt lat="47.28083" lon="-1.14014">
        <ele>189</ele>
        <time>2019-02-25T15:39:52Z</time>
      </trkpt>
      <trkpt lat="47.28093" lon="-1.14013">
        <ele>188</ele>
        <time>2019-02-25T15:39:54Z</time>
      </trkpt>
      <trkpt lat="47.28123" lon="-1.14011">
        <ele>187</ele>
        <time>2019-02-25T15:40:00Z</time>
      </trkpt>
      <trkpt lat="47.28141" lon="-1.1401">
        <ele>187</ele>
        <time>2019-02-25T15:40:04Z</time>
      </trkpt>
      <trkpt lat="47.28159" lon="-1.14011">
        <ele>186</ele>
        <time>2019-02-25T15:40:08Z</time>
      </trkpt>
      <trkpt lat="47.28172" lon="-1.14012">
        <ele>186</ele>
        <time>2019-02-25T15:40:11Z</time>
      </trkpt>
      <trkpt lat="47.28212" lon="-1.14007">
        <ele>186</ele>
        <time>2019-02-25T15:40:20Z</time>
      </trkpt>
      <trkpt lat="47.2823" lon="-1.13999">
        <ele>185</ele>
        <time>2019-02-25T15:40:26Z</time>
      </trkpt>
      <trkpt lat="47.28232" lon="-1.13998">
        <ele>186</ele>
        <time>2019-02-25T15:40:31Z</time>
      </trkpt>
      <trkpt lat="47.28234" lon="-1.13997">
        <ele>186</ele>
        <time>2019-02-25T15:40:32Z</time>
      </trkpt>
      <trkpt lat="47.28247" lon="-1.13993">
        <ele>186</ele>
        <time>2019-02-25T15:40:38Z</time>
      </trkpt>
      <trkpt lat="47.28249" lon="-1.1399">
        <ele>186</ele>
        <time>2019-02-25T15:40:39Z</time>
      </trkpt>
      <trkpt lat="47.2825" lon="-1.13982">
        <ele>186</ele>
        <time>2019-02-25T15:40:41Z</time>
      </trkpt>
      <trkpt lat="47.28258" lon="-1.13966">
        <ele>186</ele>
        <time>2019-02-25T15:40:46Z</time>
      </trkpt>
      <trkpt lat="47.28269" lon="-1.13942">
        <ele>187</ele>
        <time>2019-02-25T15:40:54Z</time>
      </trkpt>
      <trkpt lat="47.28273" lon="-1.13935">
        <ele>187</ele>
        <time>2019-02-25T15:41:09Z</time>
      </trkpt>
      <trkpt lat="47.28277" lon="-1.1393">
        <ele>187</ele>
        <time>2019-02-25T15:41:15Z</time>
      </trkpt>
      <trkpt lat="47.28284" lon="-1.13913">
        <ele>188</ele>
        <time>2019-02-25T15:41:52Z</time>
      </trkpt>
      <trkpt lat="47.28288" lon="-1.13908">
        <ele>188</ele>
        <time>2019-02-25T15:41:54Z</time>
      </trkpt>
      <trkpt lat="47.28306" lon="-1.13882">
        <ele>189</ele>
        <time>2019-02-25T15:42:03Z</time>
      </trkpt>
      <trkpt lat="47.28328" lon="-1.13855">
        <ele>189</ele>
        <time>2019-02-25T15:42:13Z</time>
      </trkpt>
      <trkpt lat="47.28337" lon="-1.13846">
        <ele>189</ele>
        <time>2019-02-25T15:42:17Z</time>
      </trkpt>
      <trkpt lat="47.28345" lon="-1.13835">
        <ele>189</ele>
        <time>2019-02-25T15:42:21Z</time>
      </trkpt>
      <trkpt lat="47.28361" lon="-1.1381">
        <ele>190</ele>
        <time>2019-02-25T15:42:30Z</time>
      </trkpt>
      <trkpt lat="47.28376" lon="-1.13789">
        <ele>190</ele>
        <time>2019-02-25T15:42:38Z</time>
      </trkpt>
      <trkpt lat="47.28382" lon="-1.1378">
        <ele>190</ele>
        <time>2019-02-25T15:42:42Z</time>
      </trkpt>
      <trkpt lat="47.28389" lon="-1.1377">
        <ele>190</ele>
        <time>2019-02-25T15:42:46Z</time>
      </trkpt>
      <trkpt lat="47.28405" lon="-1.13753">
        <ele>191</ele>
        <time>2019-02-25T15:42:54Z</time>
      </trkpt>
      <trkpt lat="47.28409" lon="-1.13749">
        <ele>191</ele>
        <time>2019-02-25T15:42:56Z</time>
      </trkpt>
      <trkpt lat="47.28415" lon="-1.13744">
        <ele>192</ele>
        <time>2019-02-25T15:42:59Z</time>
      </trkpt>
      <trkpt lat="47.28428" lon="-1.13736">
        <ele>192</ele>
        <time>2019-02-25T15:43:05Z</time>
      </trkpt>
      <trkpt lat="47.28445" lon="-1.13724">
        <ele>192</ele>
        <time>2019-02-25T15:43:13Z</time>
      </trkpt>
      <trkpt lat="47.28458" lon="-1.13712">
        <ele>193</ele>
        <time>2019-02-25T15:43:19Z</time>
      </trkpt>
      <trkpt lat="47.28464" lon="-1.13706">
        <ele>193</ele>
        <time>2019-02-25T15:43:22Z</time>
      </trkpt>
      <trkpt lat="47.28483" lon="-1.13686">
        <ele>194</ele>
        <time>2019-02-25T15:43:31Z</time>
      </trkpt>
      <trkpt lat="47.28499" lon="-1.13672">
        <ele>194</ele>
        <time>2019-02-25T15:43:39Z</time>
      </trkpt>
      <trkpt lat="47.28505" lon="-1.13664">
        <ele>195</ele>
        <time>2019-02-25T15:43:43Z</time>
      </trkpt>
      <trkpt lat="47.28508" lon="-1.13661">
        <ele>195</ele>
        <time>2019-02-25T15:43:45Z</time>
      </trkpt>
      <trkpt lat="47.28509" lon="-1.13657">
        <ele>195</ele>
        <time>2019-02-25T15:43:47Z</time>
      </trkpt>
      <trkpt lat="47.28511" lon="-1.13641">
        <ele>195</ele>
        <time>2019-02-25T15:43:53Z</time>
      </trkpt>
      <trkpt lat="47.2851" lon="-1.13619">
        <ele>196</ele>
        <time>2019-02-25T15:43:59Z</time>
      </trkpt>
      <trkpt lat="47.2851" lon="-1.13596">
        <ele>195</ele>
        <time>2019-02-25T15:44:30Z</time>
      </trkpt>
      <trkpt lat="47.28511" lon="-1.13585">
        <ele>195</ele>
        <time>2019-02-25T15:44:33Z</time>
      </trkpt>
      <trkpt lat="47.28519" lon="-1.13577">
        <ele>194</ele>
        <time>2019-02-25T15:44:37Z</time>
      </trkpt>
      <trkpt lat="47.28524" lon="-1.13573">
        <ele>194</ele>
        <time>2019-02-25T15:44:39Z</time>
      </trkpt>
      <trkpt lat="47.2853" lon="-1.13556">
        <ele>194</ele>
        <time>2019-02-25T15:44:43Z</time>
      </trkpt>
      <trkpt lat="47.28539" lon="-1.13545">
        <ele>194</ele>
        <time>2019-02-25T15:44:47Z</time>
      </trkpt>
      <trkpt lat="47.28546" lon="-1.1354">
        <ele>194</ele>
        <time>2019-02-25T15:44:50Z</time>
      </trkpt>
      <trkpt lat="47.28547" lon="-1.13533">
        <ele>194</ele>
        <time>2019-02-25T15:44:52Z</time>
      </trkpt>
      <trkpt lat="47.28549" lon="-1.13522">
        <ele>197</ele>
        <time>2019-02-25T15:45:05Z</time>
      </trkpt>
      <trkpt lat="47.2856" lon="-1.13511">
        <ele>197</ele>
        <time>2019-02-25T15:45:10Z</time>
      </trkpt>
      <trkpt lat="47.28581" lon="-1.1349">
        <ele>197</ele>
        <time>2019-02-25T15:45:18Z</time>
      </trkpt>
      <trkpt lat="47.28603" lon="-1.13467">
        <ele>197</ele>
        <time>2019-02-25T15:45:26Z</time>
      </trkpt>
      <trkpt lat="47.28623" lon="-1.13444">
        <ele>196</ele>
        <time>2019-02-25T15:45:33Z</time>
      </trkpt>
      <trkpt lat="47.28633" lon="-1.13436">
        <ele>196</ele>
        <time>2019-02-25T15:45:36Z</time>
      </trkpt>
      <trkpt lat="47.28642" lon="-1.13429">
        <ele>195</ele>
        <time>2019-02-25T15:45:39Z</time>
      </trkpt>
      <trkpt lat="47.28656" lon="-1.13408">
        <ele>195</ele>
        <time>2019-02-25T15:45:45Z</time>
      </trkpt>
      <trkpt lat="47.28655" lon="-1.13402">
        <ele>195</ele>
        <time>2019-02-25T15:45:47Z</time>
      </trkpt>
      <trkpt lat="47.28652" lon="-1.134">
        <ele>195</ele>
        <time>2019-02-25T15:45:48Z</time>
      </trkpt>
      <trkpt lat="47.2864" lon="-1.13397">
        <ele>195</ele>
        <time>2019-02-25T15:45:52Z</time>
      </trkpt>
      <trkpt lat="47.28607" lon="-1.13386">
        <ele>196</ele>
        <time>2019-02-25T15:46:01Z</time>
      </trkpt>
      <trkpt lat="47.28603" lon="-1.13385">
        <ele>196</ele>
        <time>2019-02-25T15:46:02Z</time>
      </trkpt>
      <trkpt lat="47.28581" lon="-1.13378">
        <ele>197</ele>
        <time>2019-02-25T15:46:08Z</time>
      </trkpt>
      <trkpt lat="47.28571" lon="-1.13375">
        <ele>197</ele>
        <time>2019-02-25T15:46:11Z</time>
      </trkpt>
      <trkpt lat="47.28558" lon="-1.1337">
        <ele>198</ele>
        <time>2019-02-25T15:46:15Z</time>
      </trkpt>
      <trkpt lat="47.28543" lon="-1.13364">
        <ele>198</ele>
        <time>2019-02-25T15:46:19Z</time>
      </trkpt>
      <trkpt lat="47.28514" lon="-1.13348">
        <ele>198</ele>
        <time>2019-02-25T15:46:27Z</time>
      </trkpt>
      <trkpt lat="47.28495" lon="-1.1333">
        <ele>198</ele>
        <time>2019-02-25T15:46:34Z</time>
      </trkpt>
      <trkpt lat="47.28495" lon="-1.13326">
        <ele>198</ele>
        <time>2019-02-25T15:46:35Z</time>
      </trkpt>
      <trkpt lat="47.28499" lon="-1.13319">
        <ele>198</ele>
        <time>2019-02-25T15:46:37Z</time>
      </trkpt>
      <trkpt lat="47.28505" lon="-1.13309">
        <ele>198</ele>
        <time>2019-02-25T15:46:39Z</time>
      </trkpt>
      <trkpt lat="47.28513" lon="-1.13294">
        <ele>198</ele>
        <time>2019-02-25T15:46:42Z</time>
      </trkpt>
      <trkpt lat="47.28531" lon="-1.13257">
        <ele>199</ele>
        <time>2019-02-25T15:46:50Z</time>
      </trkpt>
      <trkpt lat="47.28547" lon="-1.13225">
        <ele>198</ele>
        <time>2019-02-25T15:46:57Z</time>
      </trkpt>
      <trkpt lat="47.28569" lon="-1.13186">
        <ele>198</ele>
        <time>2019-02-25T15:47:05Z</time>
      </trkpt>
      <trkpt lat="47.28585" lon="-1.13148">
        <ele>198</ele>
        <time>2019-02-25T15:47:12Z</time>
      </trkpt>
      <trkpt lat="47.2859" lon="-1.1313">
        <ele>197</ele>
        <time>2019-02-25T15:47:15Z</time>
      </trkpt>
      <trkpt lat="47.28594" lon="-1.1312">
        <ele>196</ele>
        <time>2019-02-25T15:47:17Z</time>
      </trkpt>
      <trkpt lat="47.28606" lon="-1.13093">
        <ele>196</ele>
        <time>2019-02-25T15:47:22Z</time>
      </trkpt>
      <trkpt lat="47.2861" lon="-1.13083">
        <ele>196</ele>
        <time>2019-02-25T15:47:24Z</time>
      </trkpt>
      <trkpt lat="47.28619" lon="-1.13062">
        <ele>195</ele>
        <time>2019-02-25T15:47:28Z</time>
      </trkpt>
      <trkpt lat="47.28624" lon="-1.1305">
        <ele>195</ele>
        <time>2019-02-25T15:47:30Z</time>
      </trkpt>
      <trkpt lat="47.28639" lon="-1.13009">
        <ele>194</ele>
        <time>2019-02-25T15:47:37Z</time>
      </trkpt>
      <trkpt lat="47.28649" lon="-1.12979">
        <ele>195</ele>
        <time>2019-02-25T15:47:43Z</time>
      </trkpt>
      <trkpt lat="47.28663" lon="-1.12939">
        <ele>194</ele>
        <time>2019-02-25T15:47:51Z</time>
      </trkpt>
      <trkpt lat="47.28673" lon="-1.12914">
        <ele>194</ele>
        <time>2019-02-25T15:47:56Z</time>
      </trkpt>
      <trkpt lat="47.28682" lon="-1.12888">
        <ele>194</ele>
        <time>2019-02-25T15:48:02Z</time>
      </trkpt>
      <trkpt lat="47.28683" lon="-1.12886">
        <ele>194</ele>
        <time>2019-02-25T15:48:03Z</time>
      </trkpt>
      <trkpt lat="47.28691" lon="-1.12872">
        <ele>193</ele>
        <time>2019-02-25T15:48:07Z</time>
      </trkpt>
      <trkpt lat="47.28701" lon="-1.12849">
        <ele>193</ele>
        <time>2019-02-25T15:48:12Z</time>
      </trkpt>
      <trkpt lat="47.28717" lon="-1.12812">
        <ele>193</ele>
        <time>2019-02-25T15:48:18Z</time>
      </trkpt>
      <trkpt lat="47.28731" lon="-1.1278">
        <ele>192</ele>
        <time>2019-02-25T15:48:24Z</time>
      </trkpt>
      <trkpt lat="47.28742" lon="-1.12751">
        <ele>192</ele>
        <time>2019-02-25T15:48:31Z</time>
      </trkpt>
      <trkpt lat="47.28753" lon="-1.12743">
        <ele>192</ele>
        <time>2019-02-25T15:48:36Z</time>
      </trkpt>
      <trkpt lat="47.28775" lon="-1.1274">
        <ele>191</ele>
        <time>2019-02-25T15:48:41Z</time>
      </trkpt>
      <trkpt lat="47.2878" lon="-1.12739">
        <ele>191</ele>
        <time>2019-02-25T15:48:42Z</time>
      </trkpt>
      <trkpt lat="47.2881" lon="-1.12743">
        <ele>191</ele>
        <time>2019-02-25T15:48:48Z</time>
      </trkpt>
      <trkpt lat="47.28821" lon="-1.12745">
        <ele>190</ele>
        <time>2019-02-25T15:48:50Z</time>
      </trkpt>
      <trkpt lat="47.28846" lon="-1.12752">
        <ele>190</ele>
        <time>2019-02-25T15:48:54Z</time>
      </trkpt>
      <trkpt lat="47.2886" lon="-1.12756">
        <ele>189</ele>
        <time>2019-02-25T15:48:56Z</time>
      </trkpt>
      <trkpt lat="47.28881" lon="-1.12763">
        <ele>188</ele>
        <time>2019-02-25T15:48:59Z</time>
      </trkpt>
      <trkpt lat="47.28895" lon="-1.12766">
        <ele>187</ele>
        <time>2019-02-25T15:49:01Z</time>
      </trkpt>
      <trkpt lat="47.28902" lon="-1.12766">
        <ele>187</ele>
        <time>2019-02-25T15:49:02Z</time>
      </trkpt>
      <trkpt lat="47.28932" lon="-1.12769">
        <ele>186</ele>
        <time>2019-02-25T15:49:07Z</time>
      </trkpt>
      <trkpt lat="47.28961" lon="-1.12779">
        <ele>186</ele>
        <time>2019-02-25T15:49:13Z</time>
      </trkpt>
      <trkpt lat="47.28989" lon="-1.12791">
        <ele>187</ele>
        <time>2019-02-25T15:49:20Z</time>
      </trkpt>
      <trkpt lat="47.29013" lon="-1.128">
        <ele>188</ele>
        <time>2019-02-25T15:49:26Z</time>
      </trkpt>
      <trkpt lat="47.29017" lon="-1.12801">
        <ele>188</ele>
        <time>2019-02-25T15:49:27Z</time>
      </trkpt>
      <trkpt lat="47.2905" lon="-1.12814">
        <ele>189</ele>
        <time>2019-02-25T15:49:35Z</time>
      </trkpt>
      <trkpt lat="47.29054" lon="-1.12815">
        <ele>189</ele>
        <time>2019-02-25T15:49:36Z</time>
      </trkpt>
      <trkpt lat="47.29059" lon="-1.12815">
        <ele>189</ele>
        <time>2019-02-25T15:49:37Z</time>
      </trkpt>
      <trkpt lat="47.29079" lon="-1.12818">
        <ele>190</ele>
        <time>2019-02-25T15:49:42Z</time>
      </trkpt>
      <trkpt lat="47.29084" lon="-1.12818">
        <ele>190</ele>
        <time>2019-02-25T15:49:43Z</time>
      </trkpt>
      <trkpt lat="47.29101" lon="-1.12813">
        <ele>190</ele>
        <time>2019-02-25T15:49:47Z</time>
      </trkpt>
      <trkpt lat="47.29109" lon="-1.12809">
        <ele>190</ele>
        <time>2019-02-25T15:49:49Z</time>
      </trkpt>
      <trkpt lat="47.29121" lon="-1.12802">
        <ele>190</ele>
        <time>2019-02-25T15:49:52Z</time>
      </trkpt>
      <trkpt lat="47.29135" lon="-1.12789">
        <ele>191</ele>
        <time>2019-02-25T15:49:56Z</time>
      </trkpt>
      <trkpt lat="47.29167" lon="-1.12756">
        <ele>192</ele>
        <time>2019-02-25T15:50:05Z</time>
      </trkpt>
      <trkpt lat="47.29172" lon="-1.12753">
        <ele>192</ele>
        <time>2019-02-25T15:50:06Z</time>
      </trkpt>
      <trkpt lat="47.29184" lon="-1.12754">
        <ele>192</ele>
        <time>2019-02-25T15:50:09Z</time>
      </trkpt>
      <trkpt lat="47.29198" lon="-1.12768">
        <ele>192</ele>
        <time>2019-02-25T15:50:13Z</time>
      </trkpt>
      <trkpt lat="47.29204" lon="-1.12777">
        <ele>192</ele>
        <time>2019-02-25T15:50:15Z</time>
      </trkpt>
      <trkpt lat="47.29207" lon="-1.12781">
        <ele>192</ele>
        <time>2019-02-25T15:50:16Z</time>
      </trkpt>
      <trkpt lat="47.29221" lon="-1.12801">
        <ele>193</ele>
        <time>2019-02-25T15:50:21Z</time>
      </trkpt>
      <trkpt lat="47.29224" lon="-1.12805">
        <ele>193</ele>
        <time>2019-02-25T15:50:22Z</time>
      </trkpt>
      <trkpt lat="47.2925" lon="-1.12827">
        <ele>194</ele>
        <time>2019-02-25T15:50:30Z</time>
      </trkpt>
      <trkpt lat="47.29269" lon="-1.1282">
        <ele>195</ele>
        <time>2019-02-25T15:50:35Z</time>
      </trkpt>
      <trkpt lat="47.29301" lon="-1.12796">
        <ele>195</ele>
        <time>2019-02-25T15:50:43Z</time>
      </trkpt>
      <trkpt lat="47.29305" lon="-1.12793">
        <ele>195</ele>
        <time>2019-02-25T15:50:44Z</time>
      </trkpt>
      <trkpt lat="47.29331" lon="-1.12766">
        <ele>196</ele>
        <time>2019-02-25T15:50:51Z</time>
      </trkpt>
      <trkpt lat="47.29345" lon="-1.12748">
        <ele>196</ele>
        <time>2019-02-25T15:50:55Z</time>
      </trkpt>
      <trkpt lat="47.29357" lon="-1.12726">
        <ele>197</ele>
        <time>2019-02-25T15:50:59Z</time>
      </trkpt>
      <trkpt lat="47.29381" lon="-1.1268">
        <ele>197</ele>
        <time>2019-02-25T15:51:07Z</time>
      </trkpt>
      <trkpt lat="47.29406" lon="-1.12637">
        <ele>197</ele>
        <time>2019-02-25T15:51:15Z</time>
      </trkpt>
      <trkpt lat="47.29409" lon="-1.12631">
        <ele>197</ele>
        <time>2019-02-25T15:51:16Z</time>
      </trkpt>
      <trkpt lat="47.29438" lon="-1.12591">
        <ele>197</ele>
        <time>2019-02-25T15:51:24Z</time>
      </trkpt>
      <trkpt lat="47.29473" lon="-1.12548">
        <ele>197</ele>
        <time>2019-02-25T15:51:33Z</time>
      </trkpt>
      <trkpt lat="47.29511" lon="-1.125">
        <ele>197</ele>
        <time>2019-02-25T15:51:43Z</time>
      </trkpt>
      <trkpt lat="47.2955" lon="-1.12454">
        <ele>197</ele>
        <time>2019-02-25T15:51:53Z</time>
      </trkpt>
      <trkpt lat="47.29587" lon="-1.12428">
        <ele>198</ele>
        <time>2019-02-25T15:52:01Z</time>
      </trkpt>
      <trkpt lat="47.29631" lon="-1.12402">
        <ele>197</ele>
        <time>2019-02-25T15:52:10Z</time>
      </trkpt>
      <trkpt lat="47.29671" lon="-1.12371">
        <ele>197</ele>
        <time>2019-02-25T15:52:19Z</time>
      </trkpt>
      <trkpt lat="47.29691" lon="-1.12336">
        <ele>197</ele>
        <time>2019-02-25T15:52:26Z</time>
      </trkpt>
      <trkpt lat="47.2971" lon="-1.12293">
        <ele>197</ele>
        <time>2019-02-25T15:52:34Z</time>
      </trkpt>
      <trkpt lat="47.29719" lon="-1.12255">
        <ele>197</ele>
        <time>2019-02-25T15:52:41Z</time>
      </trkpt>
      <trkpt lat="47.29717" lon="-1.12251">
        <ele>197</ele>
        <time>2019-02-25T15:52:42Z</time>
      </trkpt>
      <trkpt lat="47.2971" lon="-1.12245">
        <ele>197</ele>
        <time>2019-02-25T15:52:44Z</time>
      </trkpt>
      <trkpt lat="47.29694" lon="-1.12245">
        <ele>197</ele>
        <time>2019-02-25T15:52:48Z</time>
      </trkpt>
      <trkpt lat="47.29682" lon="-1.12241">
        <ele>197</ele>
        <time>2019-02-25T15:52:51Z</time>
      </trkpt>
      <trkpt lat="47.29669" lon="-1.12235">
        <ele>197</ele>
        <time>2019-02-25T15:52:54Z</time>
      </trkpt>
      <trkpt lat="47.2963" lon="-1.12218">
        <ele>197</ele>
        <time>2019-02-25T15:53:03Z</time>
      </trkpt>
      <trkpt lat="47.29606" lon="-1.12205">
        <ele>196</ele>
        <time>2019-02-25T15:53:08Z</time>
      </trkpt>
      <trkpt lat="47.29596" lon="-1.122">
        <ele>196</ele>
        <time>2019-02-25T15:53:10Z</time>
      </trkpt>
      <trkpt lat="47.29578" lon="-1.12186">
        <ele>195</ele>
        <time>2019-02-25T15:53:14Z</time>
      </trkpt>
      <trkpt lat="47.29575" lon="-1.12183">
        <ele>195</ele>
        <time>2019-02-25T15:53:15Z</time>
      </trkpt>
      <trkpt lat="47.2956" lon="-1.12172">
        <ele>194</ele>
        <time>2019-02-25T15:53:19Z</time>
      </trkpt>
      <trkpt lat="47.29549" lon="-1.12163">
        <ele>193</ele>
        <time>2019-02-25T15:53:22Z</time>
      </trkpt>
      <trkpt lat="47.29526" lon="-1.1214">
        <ele>193</ele>
        <time>2019-02-25T15:53:27Z</time>
      </trkpt>
      <trkpt lat="47.29521" lon="-1.12135">
        <ele>193</ele>
        <time>2019-02-25T15:53:28Z</time>
      </trkpt>
      <trkpt lat="47.29497" lon="-1.12109">
        <ele>192</ele>
        <time>2019-02-25T15:53:33Z</time>
      </trkpt>
      <trkpt lat="47.29478" lon="-1.12089">
        <ele>191</ele>
        <time>2019-02-25T15:53:37Z</time>
      </trkpt>
      <trkpt lat="47.29474" lon="-1.12084">
        <ele>190</ele>
        <time>2019-02-25T15:53:38Z</time>
      </trkpt>
      <trkpt lat="47.29459" lon="-1.12066">
        <ele>189</ele>
        <time>2019-02-25T15:53:42Z</time>
      </trkpt>
      <trkpt lat="47.29451" lon="-1.12056">
        <ele>189</ele>
        <time>2019-02-25T15:53:44Z</time>
      </trkpt>
      <trkpt lat="47.29447" lon="-1.12051">
        <ele>188</ele>
        <time>2019-02-25T15:53:45Z</time>
      </trkpt>
      <trkpt lat="47.29431" lon="-1.12033">
        <ele>187</ele>
        <time>2019-02-25T15:53:49Z</time>
      </trkpt>
      <trkpt lat="47.29425" lon="-1.12025">
        <ele>186</ele>
        <time>2019-02-25T15:53:51Z</time>
      </trkpt>
      <trkpt lat="47.29419" lon="-1.12016">
        <ele>186</ele>
        <time>2019-02-25T15:53:53Z</time>
      </trkpt>
      <trkpt lat="47.29413" lon="-1.12004">
        <ele>185</ele>
        <time>2019-02-25T15:53:56Z</time>
      </trkpt>
      <trkpt lat="47.29411" lon="-1.12">
        <ele>185</ele>
        <time>2019-02-25T15:53:57Z</time>
      </trkpt>
      <trkpt lat="47.29404" lon="-1.11988">
        <ele>184</ele>
        <time>2019-02-25T15:54:01Z</time>
      </trkpt>
      <trkpt lat="47.29402" lon="-1.11984">
        <ele>184</ele>
        <time>2019-02-25T15:54:02Z</time>
      </trkpt>
      <trkpt lat="47.29391" lon="-1.11966">
        <ele>183</ele>
        <time>2019-02-25T15:54:06Z</time>
      </trkpt>
      <trkpt lat="47.29386" lon="-1.11956">
        <ele>182</ele>
        <time>2019-02-25T15:54:08Z</time>
      </trkpt>
      <trkpt lat="47.2938" lon="-1.11946">
        <ele>182</ele>
        <time>2019-02-25T15:54:10Z</time>
      </trkpt>
      <trkpt lat="47.29372" lon="-1.11929">
        <ele>180</ele>
        <time>2019-02-25T15:54:14Z</time>
      </trkpt>
      <trkpt lat="47.29365" lon="-1.11914">
        <ele>179</ele>
        <time>2019-02-25T15:54:18Z</time>
      </trkpt>
      <trkpt lat="47.29361" lon="-1.11905">
        <ele>179</ele>
        <time>2019-02-25T15:54:20Z</time>
      </trkpt>
      <trkpt lat="47.29353" lon="-1.11885">
        <ele>178</ele>
        <time>2019-02-25T15:54:24Z</time>
      </trkpt>
      <trkpt lat="47.29351" lon="-1.11879">
        <ele>178</ele>
        <time>2019-02-25T15:54:26Z</time>
      </trkpt>
      <trkpt lat="47.29346" lon="-1.11863">
        <ele>177</ele>
        <time>2019-02-25T15:54:31Z</time>
      </trkpt>
      <trkpt lat="47.29345" lon="-1.11858">
        <ele>177</ele>
        <time>2019-02-25T15:54:33Z</time>
      </trkpt>
      <trkpt lat="47.29345" lon="-1.1186">
        <ele>176</ele>
        <time>2019-02-25T16:07:03Z</time>
      </trkpt>
      <trkpt lat="47.29344" lon="-1.11858">
        <ele>176</ele>
        <time>2019-02-25T16:07:04Z</time>
      </trkpt>
      <trkpt lat="47.29339" lon="-1.11842">
        <ele>176</ele>
        <time>2019-02-25T16:07:08Z</time>
      </trkpt>
      <trkpt lat="47.29329" lon="-1.11816">
        <ele>175</ele>
        <time>2019-02-25T16:07:14Z</time>
      </trkpt>
      <trkpt lat="47.29321" lon="-1.11797">
        <ele>174</ele>
        <time>2019-02-25T16:07:19Z</time>
      </trkpt>
      <trkpt lat="47.29317" lon="-1.11789">
        <ele>174</ele>
        <time>2019-02-25T16:07:21Z</time>
      </trkpt>
      <trkpt lat="47.29311" lon="-1.11779">
        <ele>173</ele>
        <time>2019-02-25T16:07:24Z</time>
      </trkpt>
      <trkpt lat="47.29302" lon="-1.11765">
        <ele>172</ele>
        <time>2019-02-25T16:07:28Z</time>
      </trkpt>
      <trkpt lat="47.293" lon="-1.11761">
        <ele>172</ele>
        <time>2019-02-25T16:07:29Z</time>
      </trkpt>
      <trkpt lat="47.29292" lon="-1.1175">
        <ele>171</ele>
        <time>2019-02-25T16:07:33Z</time>
      </trkpt>
      <trkpt lat="47.29287" lon="-1.11745">
        <ele>171</ele>
        <time>2019-02-25T16:07:35Z</time>
      </trkpt>
      <trkpt lat="47.2928" lon="-1.11738">
        <ele>170</ele>
        <time>2019-02-25T16:07:38Z</time>
      </trkpt>
      <trkpt lat="47.29271" lon="-1.11732">
        <ele>170</ele>
        <time>2019-02-25T16:07:42Z</time>
      </trkpt>
      <trkpt lat="47.29269" lon="-1.11731">
        <ele>169</ele>
        <time>2019-02-25T16:07:43Z</time>
      </trkpt>
      <trkpt lat="47.29253" lon="-1.11727">
        <ele>169</ele>
        <time>2019-02-25T16:07:49Z</time>
      </trkpt>
      <trkpt lat="47.29233" lon="-1.11716">
        <ele>169</ele>
        <time>2019-02-25T16:07:56Z</time>
      </trkpt>
      <trkpt lat="47.29217" lon="-1.11708">
        <ele>170</ele>
        <time>2019-02-25T16:08:03Z</time>
      </trkpt>
      <trkpt lat="47.29199" lon="-1.11693">
        <ele>172</ele>
        <time>2019-02-25T16:08:15Z</time>
      </trkpt>
      <trkpt lat="47.29197" lon="-1.11691">
        <ele>173</ele>
        <time>2019-02-25T16:08:16Z</time>
      </trkpt>
      <trkpt lat="47.29186" lon="-1.11676">
        <ele>173</ele>
        <time>2019-02-25T16:08:23Z</time>
      </trkpt>
      <trkpt lat="47.29183" lon="-1.11672">
        <ele>174</ele>
        <time>2019-02-25T16:08:25Z</time>
      </trkpt>
      <trkpt lat="47.29178" lon="-1.11662">
        <ele>174</ele>
        <time>2019-02-25T16:08:29Z</time>
      </trkpt>
      <trkpt lat="47.29171" lon="-1.11651">
        <ele>175</ele>
        <time>2019-02-25T16:08:33Z</time>
      </trkpt>
      <trkpt lat="47.29168" lon="-1.11646">
        <ele>176</ele>
        <time>2019-02-25T16:08:35Z</time>
      </trkpt>
      <trkpt lat="47.29163" lon="-1.11639">
        <ele>176</ele>
        <time>2019-02-25T16:08:40Z</time>
      </trkpt>
      <trkpt lat="47.29161" lon="-1.11636">
        <ele>177</ele>
        <time>2019-02-25T16:08:42Z</time>
      </trkpt>
      <trkpt lat="47.29155" lon="-1.11628">
        <ele>178</ele>
        <time>2019-02-25T16:08:47Z</time>
      </trkpt>
      <trkpt lat="47.29154" lon="-1.11626">
        <ele>178</ele>
        <time>2019-02-25T16:08:48Z</time>
      </trkpt>
      <trkpt lat="47.29146" lon="-1.11615">
        <ele>179</ele>
        <time>2019-02-25T16:08:54Z</time>
      </trkpt>
      <trkpt lat="47.29144" lon="-1.11613">
        <ele>179</ele>
        <time>2019-02-25T16:08:55Z</time>
      </trkpt>
      <trkpt lat="47.29143" lon="-1.11612">
        <ele>179</ele>
        <time>2019-02-25T16:08:56Z</time>
      </trkpt>
      <trkpt lat="47.29135" lon="-1.11604">
        <ele>180</ele>
        <time>2019-02-25T16:09:00Z</time>
      </trkpt>
      <trkpt lat="47.29133" lon="-1.11602">
        <ele>180</ele>
        <time>2019-02-25T16:09:01Z</time>
      </trkpt>
      <trkpt lat="47.29126" lon="-1.11594">
        <ele>181</ele>
        <time>2019-02-25T16:09:05Z</time>
      </trkpt>
      <trkpt lat="47.29123" lon="-1.11591">
        <ele>181</ele>
        <time>2019-02-25T16:09:07Z</time>
      </trkpt>
      <trkpt lat="47.29115" lon="-1.11585">
        <ele>182</ele>
        <time>2019-02-25T16:09:11Z</time>
      </trkpt>
      <trkpt lat="47.29109" lon="-1.1158">
        <ele>183</ele>
        <time>2019-02-25T16:09:14Z</time>
      </trkpt>
      <trkpt lat="47.29101" lon="-1.11574">
        <ele>183</ele>
        <time>2019-02-25T16:09:18Z</time>
      </trkpt>
      <trkpt lat="47.29093" lon="-1.11568">
        <ele>184</ele>
        <time>2019-02-25T16:09:22Z</time>
      </trkpt>
      <trkpt lat="47.29089" lon="-1.11563">
        <ele>184</ele>
        <time>2019-02-25T16:09:25Z</time>
      </trkpt>
      <trkpt lat="47.2908" lon="-1.11556">
        <ele>185</ele>
        <time>2019-02-25T16:09:30Z</time>
      </trkpt>
      <trkpt lat="47.29076" lon="-1.11553">
        <ele>185</ele>
        <time>2019-02-25T16:09:32Z</time>
      </trkpt>
      <trkpt lat="47.29065" lon="-1.11544">
        <ele>186</ele>
        <time>2019-02-25T16:09:38Z</time>
      </trkpt>
      <trkpt lat="47.29064" lon="-1.11542">
        <ele>186</ele>
        <time>2019-02-25T16:09:39Z</time>
      </trkpt>
      <trkpt lat="47.29052" lon="-1.11533">
        <ele>187</ele>
        <time>2019-02-25T16:09:45Z</time>
      </trkpt>
      <trkpt lat="47.2905" lon="-1.11531">
        <ele>188</ele>
        <time>2019-02-25T16:09:46Z</time>
      </trkpt>
      <trkpt lat="47.29034" lon="-1.11519">
        <ele>189</ele>
        <time>2019-02-25T16:09:54Z</time>
      </trkpt>
      <trkpt lat="47.29015" lon="-1.11508">
        <ele>190</ele>
        <time>2019-02-25T16:10:03Z</time>
      </trkpt>
      <trkpt lat="47.29013" lon="-1.11507">
        <ele>190</ele>
        <time>2019-02-25T16:10:04Z</time>
      </trkpt>
      <trkpt lat="47.28995" lon="-1.11495">
        <ele>191</ele>
        <time>2019-02-25T16:10:12Z</time>
      </trkpt>
      <trkpt lat="47.28974" lon="-1.11484">
        <ele>191</ele>
        <time>2019-02-25T16:10:20Z</time>
      </trkpt>
      <trkpt lat="47.28957" lon="-1.11477">
        <ele>192</ele>
        <time>2019-02-25T16:10:26Z</time>
      </trkpt>
      <trkpt lat="47.28951" lon="-1.11475">
        <ele>192</ele>
        <time>2019-02-25T16:10:28Z</time>
      </trkpt>
      <trkpt lat="47.28929" lon="-1.11468">
        <ele>193</ele>
        <time>2019-02-25T16:10:36Z</time>
      </trkpt>
      <trkpt lat="47.28917" lon="-1.11465">
        <ele>193</ele>
        <time>2019-02-25T16:10:40Z</time>
      </trkpt>
      <trkpt lat="47.28906" lon="-1.1146">
        <ele>193</ele>
        <time>2019-02-25T16:10:44Z</time>
      </trkpt>
      <trkpt lat="47.2889" lon="-1.11443">
        <ele>194</ele>
        <time>2019-02-25T16:10:50Z</time>
      </trkpt>
      <trkpt lat="47.28867" lon="-1.11414">
        <ele>193</ele>
        <time>2019-02-25T16:10:59Z</time>
      </trkpt>
      <trkpt lat="47.28865" lon="-1.11411">
        <ele>193</ele>
        <time>2019-02-25T16:11:00Z</time>
      </trkpt>
      <trkpt lat="47.28848" lon="-1.1139">
        <ele>193</ele>
        <time>2019-02-25T16:11:08Z</time>
      </trkpt>
      <trkpt lat="47.28833" lon="-1.11372">
        <ele>193</ele>
        <time>2019-02-25T16:11:14Z</time>
      </trkpt>
      <trkpt lat="47.28812" lon="-1.11346">
        <ele>193</ele>
        <time>2019-02-25T16:11:22Z</time>
      </trkpt>
      <trkpt lat="47.28796" lon="-1.11319">
        <ele>193</ele>
        <time>2019-02-25T16:11:29Z</time>
      </trkpt>
      <trkpt lat="47.2878" lon="-1.11289">
        <ele>193</ele>
        <time>2019-02-25T16:11:36Z</time>
      </trkpt>
      <trkpt lat="47.28756" lon="-1.11251">
        <ele>193</ele>
        <time>2019-02-25T16:11:45Z</time>
      </trkpt>
      <trkpt lat="47.28732" lon="-1.11223">
        <ele>192</ele>
        <time>2019-02-25T16:11:53Z</time>
      </trkpt>
      <trkpt lat="47.28714" lon="-1.11201">
        <ele>192</ele>
        <time>2019-02-25T16:11:59Z</time>
      </trkpt>
      <trkpt lat="47.28711" lon="-1.11197">
        <ele>192</ele>
        <time>2019-02-25T16:12:00Z</time>
      </trkpt>
      <trkpt lat="47.2869" lon="-1.11165">
        <ele>191</ele>
        <time>2019-02-25T16:12:08Z</time>
      </trkpt>
      <trkpt lat="47.2867" lon="-1.11136">
        <ele>191</ele>
        <time>2019-02-25T16:12:15Z</time>
      </trkpt>
      <trkpt lat="47.28655" lon="-1.11114">
        <ele>191</ele>
        <time>2019-02-25T16:12:20Z</time>
      </trkpt>
      <trkpt lat="47.28647" lon="-1.111">
        <ele>190</ele>
        <time>2019-02-25T16:12:23Z</time>
      </trkpt>
      <trkpt lat="47.28632" lon="-1.11079">
        <ele>190</ele>
        <time>2019-02-25T16:12:28Z</time>
      </trkpt>
      <trkpt lat="47.28626" lon="-1.11069">
        <ele>190</ele>
        <time>2019-02-25T16:12:30Z</time>
      </trkpt>
      <trkpt lat="47.28605" lon="-1.11028">
        <ele>189</ele>
        <time>2019-02-25T16:12:39Z</time>
      </trkpt>
      <trkpt lat="47.286" lon="-1.11019">
        <ele>189</ele>
        <time>2019-02-25T16:12:41Z</time>
      </trkpt>
      <trkpt lat="47.28587" lon="-1.10991">
        <ele>188</ele>
        <time>2019-02-25T16:12:47Z</time>
      </trkpt>
      <trkpt lat="47.28581" lon="-1.10978">
        <ele>187</ele>
        <time>2019-02-25T16:12:50Z</time>
      </trkpt>
      <trkpt lat="47.2857" lon="-1.10959">
        <ele>187</ele>
        <time>2019-02-25T16:12:55Z</time>
      </trkpt>
      <trkpt lat="47.28563" lon="-1.10945">
        <ele>187</ele>
        <time>2019-02-25T16:13:00Z</time>
      </trkpt>
      <trkpt lat="47.28562" lon="-1.10943">
        <ele>187</ele>
        <time>2019-02-25T16:13:13Z</time>
      </trkpt>
      <trkpt lat="47.2856" lon="-1.10938">
        <ele>187</ele>
        <time>2019-02-25T16:13:15Z</time>
      </trkpt>
      <trkpt lat="47.28547" lon="-1.10919">
        <ele>187</ele>
        <time>2019-02-25T16:13:21Z</time>
      </trkpt>
      <trkpt lat="47.28534" lon="-1.10901">
        <ele>187</ele>
        <time>2019-02-25T16:13:28Z</time>
      </trkpt>
      <trkpt lat="47.28522" lon="-1.10883">
        <ele>187</ele>
        <time>2019-02-25T16:13:34Z</time>
      </trkpt>
      <trkpt lat="47.28508" lon="-1.10862">
        <ele>187</ele>
        <time>2019-02-25T16:13:41Z</time>
      </trkpt>
      <trkpt lat="47.28493" lon="-1.10844">
        <ele>187</ele>
        <time>2019-02-25T16:13:48Z</time>
      </trkpt>
      <trkpt lat="47.28473" lon="-1.10824">
        <ele>188</ele>
        <time>2019-02-25T16:13:56Z</time>
      </trkpt>
      <trkpt lat="47.28461" lon="-1.10809">
        <ele>188</ele>
        <time>2019-02-25T16:14:01Z</time>
      </trkpt>
      <trkpt lat="47.28454" lon="-1.10792">
        <ele>188</ele>
        <time>2019-02-25T16:14:06Z</time>
      </trkpt>
      <trkpt lat="47.28454" lon="-1.10769">
        <ele>187</ele>
        <time>2019-02-25T16:14:12Z</time>
      </trkpt>
      <trkpt lat="47.28454" lon="-1.10736">
        <ele>187</ele>
        <time>2019-02-25T16:14:18Z</time>
      </trkpt>
      <trkpt lat="47.28454" lon="-1.10719">
        <ele>186</ele>
        <time>2019-02-25T16:14:21Z</time>
      </trkpt>
      <trkpt lat="47.28453" lon="-1.10697">
        <ele>186</ele>
        <time>2019-02-25T16:14:25Z</time>
      </trkpt>
      <trkpt lat="47.28452" lon="-1.10668">
        <ele>185</ele>
        <time>2019-02-25T16:14:31Z</time>
      </trkpt>
      <trkpt lat="47.28453" lon="-1.10663">
        <ele>185</ele>
        <time>2019-02-25T16:14:32Z</time>
      </trkpt>
      <trkpt lat="47.28451" lon="-1.10631">
        <ele>185</ele>
        <time>2019-02-25T16:14:38Z</time>
      </trkpt>
      <trkpt lat="47.2845" lon="-1.10618">
        <ele>184</ele>
        <time>2019-02-25T16:14:41Z</time>
      </trkpt>
      <trkpt lat="47.28449" lon="-1.10602">
        <ele>184</ele>
        <time>2019-02-25T16:14:45Z</time>
      </trkpt>
      <trkpt lat="47.28445" lon="-1.10569">
        <ele>183</ele>
        <time>2019-02-25T16:14:52Z</time>
      </trkpt>
      <trkpt lat="47.28444" lon="-1.10564">
        <ele>183</ele>
        <time>2019-02-25T16:14:53Z</time>
      </trkpt>
      <trkpt lat="47.28441" lon="-1.10544">
        <ele>182</ele>
        <time>2019-02-25T16:14:59Z</time>
      </trkpt>
      <trkpt lat="47.28438" lon="-1.10531">
        <ele>182</ele>
        <time>2019-02-25T16:15:04Z</time>
      </trkpt>
      <trkpt lat="47.28437" lon="-1.10523">
        <ele>182</ele>
        <time>2019-02-25T16:15:07Z</time>
      </trkpt>
      <trkpt lat="47.28435" lon="-1.10501">
        <ele>182</ele>
        <time>2019-02-25T16:15:13Z</time>
      </trkpt>
      <trkpt lat="47.28432" lon="-1.10473">
        <ele>181</ele>
        <time>2019-02-25T16:15:19Z</time>
      </trkpt>
      <trkpt lat="47.2843" lon="-1.10443">
        <ele>181</ele>
        <time>2019-02-25T16:15:25Z</time>
      </trkpt>
      <trkpt lat="47.2843" lon="-1.10417">
        <ele>181</ele>
        <time>2019-02-25T16:15:30Z</time>
      </trkpt>
      <trkpt lat="47.28428" lon="-1.10381">
        <ele>181</ele>
        <time>2019-02-25T16:15:37Z</time>
      </trkpt>
      <trkpt lat="47.28425" lon="-1.10352">
        <ele>180</ele>
        <time>2019-02-25T16:15:43Z</time>
      </trkpt>
      <trkpt lat="47.28424" lon="-1.10324">
        <ele>180</ele>
        <time>2019-02-25T16:15:49Z</time>
      </trkpt>
      <trkpt lat="47.28417" lon="-1.10284">
        <ele>180</ele>
        <time>2019-02-25T16:15:57Z</time>
      </trkpt>
      <trkpt lat="47.28409" lon="-1.10243">
        <ele>180</ele>
        <time>2019-02-25T16:16:06Z</time>
      </trkpt>
      <trkpt lat="47.28405" lon="-1.10225">
        <ele>180</ele>
        <time>2019-02-25T16:16:10Z</time>
      </trkpt>
      <trkpt lat="47.28402" lon="-1.10213">
        <ele>180</ele>
        <time>2019-02-25T16:16:13Z</time>
      </trkpt>
      <trkpt lat="47.28394" lon="-1.10179">
        <ele>179</ele>
        <time>2019-02-25T16:16:20Z</time>
      </trkpt>
      <trkpt lat="47.28393" lon="-1.10175">
        <ele>179</ele>
        <time>2019-02-25T16:16:21Z</time>
      </trkpt>
      <trkpt lat="47.28387" lon="-1.10152">
        <ele>178</ele>
        <time>2019-02-25T16:16:27Z</time>
      </trkpt>
      <trkpt lat="47.28385" lon="-1.10146">
        <ele>178</ele>
        <time>2019-02-25T16:16:29Z</time>
      </trkpt>
      <trkpt lat="47.28385" lon="-1.10143">
        <ele>178</ele>
        <time>2019-02-25T16:16:30Z</time>
      </trkpt>
      <trkpt lat="47.28385" lon="-1.1014">
        <ele>177</ele>
        <time>2019-02-25T16:16:31Z</time>
      </trkpt>
      <trkpt lat="47.28382" lon="-1.1013">
        <ele>177</ele>
        <time>2019-02-25T16:16:34Z</time>
      </trkpt>
      <trkpt lat="47.28379" lon="-1.10121">
        <ele>175</ele>
        <time>2019-02-25T16:16:37Z</time>
      </trkpt>
      <trkpt lat="47.28378" lon="-1.10118">
        <ele>175</ele>
        <time>2019-02-25T16:16:38Z</time>
      </trkpt>
      <trkpt lat="47.28375" lon="-1.10107">
        <ele>174</ele>
        <time>2019-02-25T16:16:41Z</time>
      </trkpt>
      <trkpt lat="47.28371" lon="-1.10097">
        <ele>173</ele>
        <time>2019-02-25T16:16:44Z</time>
      </trkpt>
      <trkpt lat="47.2837" lon="-1.10093">
        <ele>173</ele>
        <time>2019-02-25T16:16:45Z</time>
      </trkpt>
      <trkpt lat="47.28368" lon="-1.10086">
        <ele>172</ele>
        <time>2019-02-25T16:16:47Z</time>
      </trkpt>
      <trkpt lat="47.28364" lon="-1.10078">
        <ele>171</ele>
        <time>2019-02-25T16:16:50Z</time>
      </trkpt>
      <trkpt lat="47.28363" lon="-1.10076">
        <ele>170</ele>
        <time>2019-02-25T16:16:51Z</time>
      </trkpt>
      <trkpt lat="47.28361" lon="-1.10071">
        <ele>169</ele>
        <time>2019-02-25T16:16:53Z</time>
      </trkpt>
      <trkpt lat="47.28358" lon="-1.10062">
        <ele>168</ele>
        <time>2019-02-25T16:16:57Z</time>
      </trkpt>
      <trkpt lat="47.28355" lon="-1.10056">
        <ele>167</ele>
        <time>2019-02-25T16:16:59Z</time>
      </trkpt>
      <trkpt lat="47.28352" lon="-1.10051">
        <ele>166</ele>
        <time>2019-02-25T16:17:02Z</time>
      </trkpt>
      <trkpt lat="47.28349" lon="-1.10046">
        <ele>165</ele>
        <time>2019-02-25T16:17:04Z</time>
      </trkpt>
      <trkpt lat="47.28348" lon="-1.10044">
        <ele>165</ele>
        <time>2019-02-25T16:17:05Z</time>
      </trkpt>
      <trkpt lat="47.28344" lon="-1.10036">
        <ele>163</ele>
        <time>2019-02-25T16:17:08Z</time>
      </trkpt>
      <trkpt lat="47.28342" lon="-1.10028">
        <ele>162</ele>
        <time>2019-02-25T16:17:11Z</time>
      </trkpt>
      <trkpt lat="47.2834" lon="-1.10024">
        <ele>161</ele>
        <time>2019-02-25T16:17:15Z</time>
      </trkpt>
      <trkpt lat="47.28338" lon="-1.10018">
        <ele>160</ele>
        <time>2019-02-25T16:17:17Z</time>
      </trkpt>
      <trkpt lat="47.28337" lon="-1.1001">
        <ele>160</ele>
        <time>2019-02-25T16:17:20Z</time>
      </trkpt>
      <trkpt lat="47.28335" lon="-1.10002">
        <ele>158</ele>
        <time>2019-02-25T16:17:23Z</time>
      </trkpt>
      <trkpt lat="47.28334" lon="-1.09992">
        <ele>157</ele>
        <time>2019-02-25T16:17:27Z</time>
      </trkpt>
      <trkpt lat="47.28332" lon="-1.09983">
        <ele>156</ele>
        <time>2019-02-25T16:17:30Z</time>
      </trkpt>
      <trkpt lat="47.28332" lon="-1.0998">
        <ele>156</ele>
        <time>2019-02-25T16:17:31Z</time>
      </trkpt>
      <trkpt lat="47.2833" lon="-1.09964">
        <ele>155</ele>
        <time>2019-02-25T16:17:36Z</time>
      </trkpt>
      <trkpt lat="47.2833" lon="-1.09961">
        <ele>155</ele>
        <time>2019-02-25T16:17:37Z</time>
      </trkpt>
      <trkpt lat="47.28328" lon="-1.0995">
        <ele>154</ele>
        <time>2019-02-25T16:17:41Z</time>
      </trkpt>
      <trkpt lat="47.28327" lon="-1.09947">
        <ele>154</ele>
        <time>2019-02-25T16:17:43Z</time>
      </trkpt>
      <trkpt lat="47.28327" lon="-1.0994">
        <ele>153</ele>
        <time>2019-02-25T16:17:46Z</time>
      </trkpt>
      <trkpt lat="47.28325" lon="-1.09936">
        <ele>152</ele>
        <time>2019-02-25T16:17:48Z</time>
      </trkpt>
      <trkpt lat="47.28324" lon="-1.09924">
        <ele>152</ele>
        <time>2019-02-25T16:17:52Z</time>
      </trkpt>
      <trkpt lat="47.28324" lon="-1.09921">
        <ele>151</ele>
        <time>2019-02-25T16:17:53Z</time>
      </trkpt>
      <trkpt lat="47.28324" lon="-1.0991">
        <ele>150</ele>
        <time>2019-02-25T16:17:56Z</time>
      </trkpt>
      <trkpt lat="47.28324" lon="-1.09899">
        <ele>149</ele>
        <time>2019-02-25T16:17:59Z</time>
      </trkpt>
      <trkpt lat="47.28324" lon="-1.09896">
        <ele>149</ele>
        <time>2019-02-25T16:18:00Z</time>
      </trkpt>
      <trkpt lat="47.28321" lon="-1.09884">
        <ele>148</ele>
        <time>2019-02-25T16:18:04Z</time>
      </trkpt>
      <trkpt lat="47.28322" lon="-1.09881">
        <ele>148</ele>
        <time>2019-02-25T16:18:05Z</time>
      </trkpt>
      <trkpt lat="47.28322" lon="-1.09874">
        <ele>147</ele>
        <time>2019-02-25T16:18:08Z</time>
      </trkpt>
      <trkpt lat="47.28321" lon="-1.09873">
        <ele>146</ele>
        <time>2019-02-25T16:18:09Z</time>
      </trkpt>
      <trkpt lat="47.2832" lon="-1.09869">
        <ele>146</ele>
        <time>2019-02-25T16:18:11Z</time>
      </trkpt>
      <trkpt lat="47.2832" lon="-1.09867">
        <ele>145</ele>
        <time>2019-02-25T16:18:12Z</time>
      </trkpt>
      <trkpt lat="47.28317" lon="-1.0985">
        <ele>143</ele>
        <time>2019-02-25T16:18:22Z</time>
      </trkpt>
      <trkpt lat="47.28315" lon="-1.09844">
        <ele>143</ele>
        <time>2019-02-25T16:18:24Z</time>
      </trkpt>
      <trkpt lat="47.28311" lon="-1.09836">
        <ele>142</ele>
        <time>2019-02-25T16:18:27Z</time>
      </trkpt>
      <trkpt lat="47.28307" lon="-1.09826">
        <ele>141</ele>
        <time>2019-02-25T16:18:30Z</time>
      </trkpt>
      <trkpt lat="47.28306" lon="-1.09823">
        <ele>141</ele>
        <time>2019-02-25T16:18:31Z</time>
      </trkpt>
      <trkpt lat="47.28304" lon="-1.09813">
        <ele>138</ele>
        <time>2019-02-25T16:19:09Z</time>
      </trkpt>
      <trkpt lat="47.28304" lon="-1.09811">
        <ele>138</ele>
        <time>2019-02-25T16:19:10Z</time>
      </trkpt>
      <trkpt lat="47.28298" lon="-1.09806">
        <ele>138</ele>
        <time>2019-02-25T16:19:15Z</time>
      </trkpt>
      <trkpt lat="47.28292" lon="-1.09805">
        <ele>139</ele>
        <time>2019-02-25T16:19:19Z</time>
      </trkpt>
      <trkpt lat="47.28289" lon="-1.09807">
        <ele>140</ele>
        <time>2019-02-25T16:19:21Z</time>
      </trkpt>
      <trkpt lat="47.28284" lon="-1.09809">
        <ele>140</ele>
        <time>2019-02-25T16:19:24Z</time>
      </trkpt>
      <trkpt lat="47.28277" lon="-1.09811">
        <ele>141</ele>
        <time>2019-02-25T16:19:28Z</time>
      </trkpt>
      <trkpt lat="47.28264" lon="-1.09815">
        <ele>141</ele>
        <time>2019-02-25T16:19:33Z</time>
      </trkpt>
      <trkpt lat="47.28254" lon="-1.09817">
        <ele>141</ele>
        <time>2019-02-25T16:19:37Z</time>
      </trkpt>
      <trkpt lat="47.2821" lon="-1.09735">
        <ele>153</ele>
        <time>2019-02-25T16:21:01Z</time>
      </trkpt>
      <trkpt lat="47.28206" lon="-1.09727">
        <ele>153</ele>
        <time>2019-02-25T16:21:05Z</time>
      </trkpt>
      <trkpt lat="47.28203" lon="-1.09719">
        <ele>154</ele>
        <time>2019-02-25T16:21:09Z</time>
      </trkpt>
      <trkpt lat="47.28198" lon="-1.09709">
        <ele>154</ele>
        <time>2019-02-25T16:21:13Z</time>
      </trkpt>
      <trkpt lat="47.28196" lon="-1.09704">
        <ele>155</ele>
        <time>2019-02-25T16:21:15Z</time>
      </trkpt>
      <trkpt lat="47.28192" lon="-1.09695">
        <ele>156</ele>
        <time>2019-02-25T16:21:19Z</time>
      </trkpt>
      <trkpt lat="47.2819" lon="-1.09691">
        <ele>156</ele>
        <time>2019-02-25T16:21:21Z</time>
      </trkpt>
      <trkpt lat="47.28189" lon="-1.09686">
        <ele>157</ele>
        <time>2019-02-25T16:21:24Z</time>
      </trkpt>
      <trkpt lat="47.28178" lon="-1.09662">
        <ele>160</ele>
        <time>2019-02-25T16:22:30Z</time>
      </trkpt>
      <trkpt lat="47.28172" lon="-1.09654">
        <ele>161</ele>
        <time>2019-02-25T16:22:35Z</time>
      </trkpt>
      <trkpt lat="47.28171" lon="-1.09648">
        <ele>162</ele>
        <time>2019-02-25T16:22:38Z</time>
      </trkpt>
      <trkpt lat="47.2817" lon="-1.09642">
        <ele>163</ele>
        <time>2019-02-25T16:22:41Z</time>
      </trkpt>
      <trkpt lat="47.28169" lon="-1.09636">
        <ele>163</ele>
        <time>2019-02-25T16:22:45Z</time>
      </trkpt>
      <trkpt lat="47.28169" lon="-1.09626">
        <ele>164</ele>
        <time>2019-02-25T16:22:49Z</time>
      </trkpt>
      <trkpt lat="47.28168" lon="-1.09624">
        <ele>164</ele>
        <time>2019-02-25T16:22:50Z</time>
      </trkpt>
      <trkpt lat="47.28168" lon="-1.09604">
        <ele>164</ele>
        <time>2019-02-25T16:22:56Z</time>
      </trkpt>
      <trkpt lat="47.28174" lon="-1.0958">
        <ele>164</ele>
        <time>2019-02-25T16:23:03Z</time>
      </trkpt>
      <trkpt lat="47.28177" lon="-1.09571">
        <ele>165</ele>
        <time>2019-02-25T16:23:06Z</time>
      </trkpt>
      <trkpt lat="47.28181" lon="-1.0956">
        <ele>165</ele>
        <time>2019-02-25T16:23:10Z</time>
      </trkpt>
      <trkpt lat="47.28187" lon="-1.09546">
        <ele>166</ele>
        <time>2019-02-25T16:23:15Z</time>
      </trkpt>
      <trkpt lat="47.28191" lon="-1.09534">
        <ele>166</ele>
        <time>2019-02-25T16:23:19Z</time>
      </trkpt>
      <trkpt lat="47.28196" lon="-1.09521">
        <ele>167</ele>
        <time>2019-02-25T16:23:24Z</time>
      </trkpt>
      <trkpt lat="47.28199" lon="-1.09516">
        <ele>167</ele>
        <time>2019-02-25T16:23:26Z</time>
      </trkpt>
      <trkpt lat="47.28208" lon="-1.09493">
        <ele>168</ele>
        <time>2019-02-25T16:23:34Z</time>
      </trkpt>
      <trkpt lat="47.28209" lon="-1.0949">
        <ele>168</ele>
        <time>2019-02-25T16:23:35Z</time>
      </trkpt>
      <trkpt lat="47.28214" lon="-1.09474">
        <ele>168</ele>
        <time>2019-02-25T16:23:40Z</time>
      </trkpt>
      <trkpt lat="47.28221" lon="-1.09443">
        <ele>168</ele>
        <time>2019-02-25T16:23:49Z</time>
      </trkpt>
      <trkpt lat="47.28222" lon="-1.09426">
        <ele>169</ele>
        <time>2019-02-25T16:23:54Z</time>
      </trkpt>
      <trkpt lat="47.28222" lon="-1.09415">
        <ele>169</ele>
        <time>2019-02-25T16:23:57Z</time>
      </trkpt>
      <trkpt lat="47.28223" lon="-1.09388">
        <ele>170</ele>
        <time>2019-02-25T16:24:05Z</time>
      </trkpt>
      <trkpt lat="47.28223" lon="-1.09382">
        <ele>170</ele>
        <time>2019-02-25T16:24:07Z</time>
      </trkpt>
      <trkpt lat="47.28223" lon="-1.09362">
        <ele>170</ele>
        <time>2019-02-25T16:24:13Z</time>
      </trkpt>
      <trkpt lat="47.28223" lon="-1.09344">
        <ele>171</ele>
        <time>2019-02-25T16:24:18Z</time>
      </trkpt>
      <trkpt lat="47.28223" lon="-1.09337">
        <ele>171</ele>
        <time>2019-02-25T16:24:20Z</time>
      </trkpt>
      <trkpt lat="47.2822" lon="-1.09298">
        <ele>172</ele>
        <time>2019-02-25T16:24:31Z</time>
      </trkpt>
      <trkpt lat="47.28219" lon="-1.09283">
        <ele>172</ele>
        <time>2019-02-25T16:24:35Z</time>
      </trkpt>
      <trkpt lat="47.28214" lon="-1.09263">
        <ele>172</ele>
        <time>2019-02-25T16:24:41Z</time>
      </trkpt>
      <trkpt lat="47.28209" lon="-1.09234">
        <ele>173</ele>
        <time>2019-02-25T16:24:49Z</time>
      </trkpt>
      <trkpt lat="47.28207" lon="-1.09223">
        <ele>173</ele>
        <time>2019-02-25T16:24:52Z</time>
      </trkpt>
      <trkpt lat="47.28203" lon="-1.09211">
        <ele>173</ele>
        <time>2019-02-25T16:24:56Z</time>
      </trkpt>
      <trkpt lat="47.28189" lon="-1.09194">
        <ele>174</ele>
        <time>2019-02-25T16:25:02Z</time>
      </trkpt>
      <trkpt lat="47.28169" lon="-1.09178">
        <ele>174</ele>
        <time>2019-02-25T16:25:10Z</time>
      </trkpt>
      <trkpt lat="47.28164" lon="-1.09176">
        <ele>174</ele>
        <time>2019-02-25T16:25:12Z</time>
      </trkpt>
      <trkpt lat="47.28158" lon="-1.09164">
        <ele>174</ele>
        <time>2019-02-25T16:25:16Z</time>
      </trkpt>
      <trkpt lat="47.28152" lon="-1.09148">
        <ele>175</ele>
        <time>2019-02-25T16:25:22Z</time>
      </trkpt>
      <trkpt lat="47.28146" lon="-1.09141">
        <ele>175</ele>
        <time>2019-02-25T16:25:26Z</time>
      </trkpt>
      <trkpt lat="47.28143" lon="-1.09136">
        <ele>175</ele>
        <time>2019-02-25T16:25:28Z</time>
      </trkpt>
      <trkpt lat="47.28132" lon="-1.09113">
        <ele>176</ele>
        <time>2019-02-25T16:25:36Z</time>
      </trkpt>
      <trkpt lat="47.2813" lon="-1.0911">
        <ele>176</ele>
        <time>2019-02-25T16:25:37Z</time>
      </trkpt>
      <trkpt lat="47.2812" lon="-1.09084">
        <ele>176</ele>
        <time>2019-02-25T16:25:45Z</time>
      </trkpt>
      <trkpt lat="47.28111" lon="-1.0906">
        <ele>177</ele>
        <time>2019-02-25T16:25:52Z</time>
      </trkpt>
      <trkpt lat="47.28109" lon="-1.09053">
        <ele>177</ele>
        <time>2019-02-25T16:25:54Z</time>
      </trkpt>
      <trkpt lat="47.28103" lon="-1.09036">
        <ele>178</ele>
        <time>2019-02-25T16:26:00Z</time>
      </trkpt>
      <trkpt lat="47.28097" lon="-1.09018">
        <ele>178</ele>
        <time>2019-02-25T16:26:06Z</time>
      </trkpt>
      <trkpt lat="47.28089" lon="-1.08995">
        <ele>179</ele>
        <time>2019-02-25T16:26:13Z</time>
      </trkpt>
      <trkpt lat="47.28084" lon="-1.08982">
        <ele>179</ele>
        <time>2019-02-25T16:26:17Z</time>
      </trkpt>
      <trkpt lat="47.28075" lon="-1.08961">
        <ele>180</ele>
        <time>2019-02-25T16:26:23Z</time>
      </trkpt>
      <trkpt lat="47.28064" lon="-1.08938">
        <ele>180</ele>
        <time>2019-02-25T16:26:30Z</time>
      </trkpt>
      <trkpt lat="47.28058" lon="-1.08925">
        <ele>181</ele>
        <time>2019-02-25T16:26:34Z</time>
      </trkpt>
      <trkpt lat="47.2805" lon="-1.08909">
        <ele>181</ele>
        <time>2019-02-25T16:26:39Z</time>
      </trkpt>
      <trkpt lat="47.28044" lon="-1.08897">
        <ele>182</ele>
        <time>2019-02-25T16:26:43Z</time>
      </trkpt>
      <trkpt lat="47.28038" lon="-1.08885">
        <ele>182</ele>
        <time>2019-02-25T16:26:47Z</time>
      </trkpt>
      <trkpt lat="47.28029" lon="-1.08866">
        <ele>183</ele>
        <time>2019-02-25T16:26:53Z</time>
      </trkpt>
      <trkpt lat="47.28026" lon="-1.0886">
        <ele>183</ele>
        <time>2019-02-25T16:26:55Z</time>
      </trkpt>
      <trkpt lat="47.28015" lon="-1.08835">
        <ele>184</ele>
        <time>2019-02-25T16:27:03Z</time>
      </trkpt>
      <trkpt lat="47.28013" lon="-1.08832">
        <ele>184</ele>
        <time>2019-02-25T16:27:04Z</time>
      </trkpt>
      <trkpt lat="47.28007" lon="-1.08812">
        <ele>185</ele>
        <time>2019-02-25T16:27:11Z</time>
      </trkpt>
      <trkpt lat="47.28008" lon="-1.08809">
        <ele>186</ele>
        <time>2019-02-25T16:27:12Z</time>
      </trkpt>
      <trkpt lat="47.28018" lon="-1.08801">
        <ele>186</ele>
        <time>2019-02-25T16:27:16Z</time>
      </trkpt>
      <trkpt lat="47.28042" lon="-1.08791">
        <ele>185</ele>
        <time>2019-02-25T16:27:23Z</time>
      </trkpt>
      <trkpt lat="47.2806" lon="-1.08796">
        <ele>184</ele>
        <time>2019-02-25T16:27:28Z</time>
      </trkpt>
      <trkpt lat="47.28064" lon="-1.08797">
        <ele>184</ele>
        <time>2019-02-25T16:27:29Z</time>
      </trkpt>
      <trkpt lat="47.28082" lon="-1.08801">
        <ele>184</ele>
        <time>2019-02-25T16:27:34Z</time>
      </trkpt>
      <trkpt lat="47.281" lon="-1.0881">
        <ele>183</ele>
        <time>2019-02-25T16:27:40Z</time>
      </trkpt>
      <trkpt lat="47.28107" lon="-1.08813">
        <ele>183</ele>
        <time>2019-02-25T16:27:42Z</time>
      </trkpt>
      <trkpt lat="47.28119" lon="-1.08815">
        <ele>183</ele>
        <time>2019-02-25T16:27:46Z</time>
      </trkpt>
      <trkpt lat="47.28136" lon="-1.08815">
        <ele>183</ele>
        <time>2019-02-25T16:27:52Z</time>
      </trkpt>
      <trkpt lat="47.28156" lon="-1.08805">
        <ele>183</ele>
        <time>2019-02-25T16:27:59Z</time>
      </trkpt>
      <trkpt lat="47.28173" lon="-1.08794">
        <ele>183</ele>
        <time>2019-02-25T16:28:05Z</time>
      </trkpt>
      <trkpt lat="47.28189" lon="-1.08783">
        <ele>183</ele>
        <time>2019-02-25T16:28:11Z</time>
      </trkpt>
      <trkpt lat="47.28204" lon="-1.08769">
        <ele>183</ele>
        <time>2019-02-25T16:28:17Z</time>
      </trkpt>
      <trkpt lat="47.2822" lon="-1.08749">
        <ele>183</ele>
        <time>2019-02-25T16:28:23Z</time>
      </trkpt>
      <trkpt lat="47.28242" lon="-1.08724">
        <ele>183</ele>
        <time>2019-02-25T16:28:31Z</time>
      </trkpt>
      <trkpt lat="47.28264" lon="-1.08704">
        <ele>183</ele>
        <time>2019-02-25T16:28:38Z</time>
      </trkpt>
      <trkpt lat="47.28287" lon="-1.08682">
        <ele>182</ele>
        <time>2019-02-25T16:28:45Z</time>
      </trkpt>
      <trkpt lat="47.28307" lon="-1.08664">
        <ele>181</ele>
        <time>2019-02-25T16:28:50Z</time>
      </trkpt>
      <trkpt lat="47.28319" lon="-1.08652">
        <ele>181</ele>
        <time>2019-02-25T16:28:53Z</time>
      </trkpt>
      <trkpt lat="47.28333" lon="-1.08635">
        <ele>180</ele>
        <time>2019-02-25T16:28:57Z</time>
      </trkpt>
      <trkpt lat="47.28344" lon="-1.08625">
        <ele>179</ele>
        <time>2019-02-25T16:29:00Z</time>
      </trkpt>
      <trkpt lat="47.2835" lon="-1.08619">
        <ele>179</ele>
        <time>2019-02-25T16:29:02Z</time>
      </trkpt>
      <trkpt lat="47.28359" lon="-1.08612">
        <ele>179</ele>
        <time>2019-02-25T16:29:05Z</time>
      </trkpt>
      <trkpt lat="47.28377" lon="-1.08593">
        <ele>178</ele>
        <time>2019-02-25T16:29:12Z</time>
      </trkpt>
      <trkpt lat="47.28383" lon="-1.08586">
        <ele>178</ele>
        <time>2019-02-25T16:29:14Z</time>
      </trkpt>
      <trkpt lat="47.28393" lon="-1.08572">
        <ele>178</ele>
        <time>2019-02-25T16:29:18Z</time>
      </trkpt>
      <trkpt lat="47.28403" lon="-1.08562">
        <ele>177</ele>
        <time>2019-02-25T16:29:22Z</time>
      </trkpt>
      <trkpt lat="47.28407" lon="-1.08558">
        <ele>176</ele>
        <time>2019-02-25T16:29:23Z</time>
      </trkpt>
      <trkpt lat="47.28414" lon="-1.08549">
        <ele>176</ele>
        <time>2019-02-25T16:29:25Z</time>
      </trkpt>
      <trkpt lat="47.2842" lon="-1.08538">
        <ele>175</ele>
        <time>2019-02-25T16:29:27Z</time>
      </trkpt>
      <trkpt lat="47.28422" lon="-1.08532">
        <ele>175</ele>
        <time>2019-02-25T16:29:28Z</time>
      </trkpt>
      <trkpt lat="47.2843" lon="-1.08507">
        <ele>173</ele>
        <time>2019-02-25T16:29:32Z</time>
      </trkpt>
      <trkpt lat="47.28431" lon="-1.085">
        <ele>173</ele>
        <time>2019-02-25T16:29:33Z</time>
      </trkpt>
      <trkpt lat="47.28436" lon="-1.08484">
        <ele>172</ele>
        <time>2019-02-25T16:29:36Z</time>
      </trkpt>
      <trkpt lat="47.2844" lon="-1.08479">
        <ele>172</ele>
        <time>2019-02-25T16:29:38Z</time>
      </trkpt>
      <trkpt lat="47.28445" lon="-1.08477">
        <ele>171</ele>
        <time>2019-02-25T16:29:41Z</time>
      </trkpt>
      <trkpt lat="47.2845" lon="-1.08473">
        <ele>170</ele>
        <time>2019-02-25T16:29:44Z</time>
      </trkpt>
      <trkpt lat="47.28467" lon="-1.08462">
        <ele>170</ele>
        <time>2019-02-25T16:29:50Z</time>
      </trkpt>
      <trkpt lat="47.28477" lon="-1.08443">
        <ele>171</ele>
        <time>2019-02-25T16:29:55Z</time>
      </trkpt>
      <trkpt lat="47.28488" lon="-1.0842">
        <ele>172</ele>
        <time>2019-02-25T16:30:02Z</time>
      </trkpt>
      <trkpt lat="47.28493" lon="-1.08401">
        <ele>173</ele>
        <time>2019-02-25T16:30:07Z</time>
      </trkpt>
      <trkpt lat="47.28494" lon="-1.08393">
        <ele>173</ele>
        <time>2019-02-25T16:30:09Z</time>
      </trkpt>
      <trkpt lat="47.28497" lon="-1.08377">
        <ele>174</ele>
        <time>2019-02-25T16:30:13Z</time>
      </trkpt>
      <trkpt lat="47.28501" lon="-1.08357">
        <ele>175</ele>
        <time>2019-02-25T16:30:18Z</time>
      </trkpt>
      <trkpt lat="47.28502" lon="-1.08349">
        <ele>175</ele>
        <time>2019-02-25T16:30:20Z</time>
      </trkpt>
      <trkpt lat="47.28506" lon="-1.08328">
        <ele>176</ele>
        <time>2019-02-25T16:30:25Z</time>
      </trkpt>
      <trkpt lat="47.2851" lon="-1.08312">
        <ele>176</ele>
        <time>2019-02-25T16:30:29Z</time>
      </trkpt>
      <trkpt lat="47.28512" lon="-1.08299">
        <ele>177</ele>
        <time>2019-02-25T16:30:32Z</time>
      </trkpt>
      <trkpt lat="47.28515" lon="-1.08273">
        <ele>177</ele>
        <time>2019-02-25T16:30:38Z</time>
      </trkpt>
      <trkpt lat="47.28517" lon="-1.08256">
        <ele>178</ele>
        <time>2019-02-25T16:30:42Z</time>
      </trkpt>
      <trkpt lat="47.2852" lon="-1.0822">
        <ele>178</ele>
        <time>2019-02-25T16:30:50Z</time>
      </trkpt>
      <trkpt lat="47.2852" lon="-1.08211">
        <ele>179</ele>
        <time>2019-02-25T16:30:52Z</time>
      </trkpt>
      <trkpt lat="47.28517" lon="-1.08189">
        <ele>179</ele>
        <time>2019-02-25T16:30:58Z</time>
      </trkpt>
      <trkpt lat="47.28519" lon="-1.08166">
        <ele>179</ele>
        <time>2019-02-25T16:31:04Z</time>
      </trkpt>
      <trkpt lat="47.28517" lon="-1.08133">
        <ele>179</ele>
        <time>2019-02-25T16:31:11Z</time>
      </trkpt>
      <trkpt lat="47.28515" lon="-1.08123">
        <ele>180</ele>
        <time>2019-02-25T16:31:13Z</time>
      </trkpt>
      <trkpt lat="47.28512" lon="-1.08086">
        <ele>180</ele>
        <time>2019-02-25T16:31:21Z</time>
      </trkpt>
      <trkpt lat="47.28503" lon="-1.08038">
        <ele>180</ele>
        <time>2019-02-25T16:31:31Z</time>
      </trkpt>
      <trkpt lat="47.28499" lon="-1.08021">
        <ele>180</ele>
        <time>2019-02-25T16:31:35Z</time>
      </trkpt>
      <trkpt lat="47.28497" lon="-1.08011">
        <ele>180</ele>
        <time>2019-02-25T16:31:37Z</time>
      </trkpt>
      <trkpt lat="47.28492" lon="-1.07987">
        <ele>181</ele>
        <time>2019-02-25T16:31:42Z</time>
      </trkpt>
      <trkpt lat="47.2849" lon="-1.0797">
        <ele>181</ele>
        <time>2019-02-25T16:31:46Z</time>
      </trkpt>
      <trkpt lat="47.28492" lon="-1.07944">
        <ele>181</ele>
        <time>2019-02-25T16:31:51Z</time>
      </trkpt>
      <trkpt lat="47.28495" lon="-1.07893">
        <ele>181</ele>
        <time>2019-02-25T16:31:59Z</time>
      </trkpt>
      <trkpt lat="47.28497" lon="-1.07847">
        <ele>181</ele>
        <time>2019-02-25T16:32:07Z</time>
      </trkpt>
      <trkpt lat="47.28499" lon="-1.07797">
        <ele>181</ele>
        <time>2019-02-25T16:32:15Z</time>
      </trkpt>
      <trkpt lat="47.285" lon="-1.07749">
        <ele>181</ele>
        <time>2019-02-25T16:32:22Z</time>
      </trkpt>
      <trkpt lat="47.28503" lon="-1.07687">
        <ele>180</ele>
        <time>2019-02-25T16:32:30Z</time>
      </trkpt>
      <trkpt lat="47.28503" lon="-1.0768">
        <ele>179</ele>
        <time>2019-02-25T16:32:31Z</time>
      </trkpt>
      <trkpt lat="47.28504" lon="-1.07645">
        <ele>178</ele>
        <time>2019-02-25T16:32:36Z</time>
      </trkpt>
      <trkpt lat="47.28504" lon="-1.07639">
        <ele>178</ele>
        <time>2019-02-25T16:32:37Z</time>
      </trkpt>
      <trkpt lat="47.28504" lon="-1.07632">
        <ele>177</ele>
        <time>2019-02-25T16:32:38Z</time>
      </trkpt>
      <trkpt lat="47.28499" lon="-1.07609">
        <ele>177</ele>
        <time>2019-02-25T16:32:42Z</time>
      </trkpt>
      <trkpt lat="47.28489" lon="-1.07575">
        <ele>178</ele>
        <time>2019-02-25T16:32:48Z</time>
      </trkpt>
      <trkpt lat="47.28475" lon="-1.07541">
        <ele>179</ele>
        <time>2019-02-25T16:32:55Z</time>
      </trkpt>
      <trkpt lat="47.28461" lon="-1.07505">
        <ele>178</ele>
        <time>2019-02-25T16:33:03Z</time>
      </trkpt>
      <trkpt lat="47.28448" lon="-1.07473">
        <ele>178</ele>
        <time>2019-02-25T16:33:10Z</time>
      </trkpt>
      <trkpt lat="47.28439" lon="-1.07437">
        <ele>177</ele>
        <time>2019-02-25T16:33:16Z</time>
      </trkpt>
      <trkpt lat="47.28435" lon="-1.07409">
        <ele>177</ele>
        <time>2019-02-25T16:33:20Z</time>
      </trkpt>
      <trkpt lat="47.28434" lon="-1.07395">
        <ele>176</ele>
        <time>2019-02-25T16:33:22Z</time>
      </trkpt>
      <trkpt lat="47.28434" lon="-1.07381">
        <ele>175</ele>
        <time>2019-02-25T16:33:24Z</time>
      </trkpt>
      <trkpt lat="47.28434" lon="-1.07375">
        <ele>175</ele>
        <time>2019-02-25T16:33:25Z</time>
      </trkpt>
      <trkpt lat="47.28437" lon="-1.07355">
        <ele>174</ele>
        <time>2019-02-25T16:33:28Z</time>
      </trkpt>
      <trkpt lat="47.28438" lon="-1.07348">
        <ele>174</ele>
        <time>2019-02-25T16:33:29Z</time>
      </trkpt>
      <trkpt lat="47.2844" lon="-1.07328">
        <ele>173</ele>
        <time>2019-02-25T16:33:32Z</time>
      </trkpt>
      <trkpt lat="47.28441" lon="-1.07322">
        <ele>172</ele>
        <time>2019-02-25T16:33:33Z</time>
      </trkpt>
      <trkpt lat="47.28442" lon="-1.07311">
        <ele>172</ele>
        <time>2019-02-25T16:33:35Z</time>
      </trkpt>
      <trkpt lat="47.28443" lon="-1.07299">
        <ele>171</ele>
        <time>2019-02-25T16:33:37Z</time>
      </trkpt>
      <trkpt lat="47.28445" lon="-1.07292">
        <ele>171</ele>
        <time>2019-02-25T16:33:38Z</time>
      </trkpt>
      <trkpt lat="47.28447" lon="-1.07285">
        <ele>170</ele>
        <time>2019-02-25T16:33:39Z</time>
      </trkpt>
      <trkpt lat="47.28449" lon="-1.07272">
        <ele>169</ele>
        <time>2019-02-25T16:33:41Z</time>
      </trkpt>
      <trkpt lat="47.28448" lon="-1.07259">
        <ele>168</ele>
        <time>2019-02-25T16:33:43Z</time>
      </trkpt>
      <trkpt lat="47.28447" lon="-1.07253">
        <ele>167</ele>
        <time>2019-02-25T16:33:44Z</time>
      </trkpt>
      <trkpt lat="47.28445" lon="-1.07248">
        <ele>167</ele>
        <time>2019-02-25T16:33:45Z</time>
      </trkpt>
      <trkpt lat="47.2844" lon="-1.0724">
        <ele>166</ele>
        <time>2019-02-25T16:33:47Z</time>
      </trkpt>
      <trkpt lat="47.28437" lon="-1.07238">
        <ele>166</ele>
        <time>2019-02-25T16:33:48Z</time>
      </trkpt>
      <trkpt lat="47.28424" lon="-1.07232">
        <ele>165</ele>
        <time>2019-02-25T16:33:52Z</time>
      </trkpt>
      <trkpt lat="47.28406" lon="-1.07225">
        <ele>165</ele>
        <time>2019-02-25T16:33:58Z</time>
      </trkpt>
      <trkpt lat="47.28385" lon="-1.07219">
        <ele>165</ele>
        <time>2019-02-25T16:34:05Z</time>
      </trkpt>
      <trkpt lat="47.2838" lon="-1.07215">
        <ele>166</ele>
        <time>2019-02-25T16:34:07Z</time>
      </trkpt>
      <trkpt lat="47.28378" lon="-1.07207">
        <ele>166</ele>
        <time>2019-02-25T16:34:09Z</time>
      </trkpt>
      <trkpt lat="47.28378" lon="-1.07187">
        <ele>166</ele>
        <time>2019-02-25T16:34:13Z</time>
      </trkpt>
      <trkpt lat="47.28378" lon="-1.07182">
        <ele>167</ele>
        <time>2019-02-25T16:34:14Z</time>
      </trkpt>
      <trkpt lat="47.28378" lon="-1.07177">
        <ele>167</ele>
        <time>2019-02-25T16:34:15Z</time>
      </trkpt>
      <trkpt lat="47.28378" lon="-1.07152">
        <ele>168</ele>
        <time>2019-02-25T16:34:21Z</time>
      </trkpt>
      <trkpt lat="47.28379" lon="-1.07127">
        <ele>169</ele>
        <time>2019-02-25T16:34:27Z</time>
      </trkpt>
      <trkpt lat="47.28379" lon="-1.0712">
        <ele>169</ele>
        <time>2019-02-25T16:34:29Z</time>
      </trkpt>
      <trkpt lat="47.28378" lon="-1.07103">
        <ele>170</ele>
        <time>2019-02-25T16:34:33Z</time>
      </trkpt>
      <trkpt lat="47.28378" lon="-1.0709">
        <ele>171</ele>
        <time>2019-02-25T16:34:36Z</time>
      </trkpt>
      <trkpt lat="47.28379" lon="-1.07072">
        <ele>171</ele>
        <time>2019-02-25T16:34:40Z</time>
      </trkpt>
      <trkpt lat="47.2838" lon="-1.07053">
        <ele>171</ele>
        <time>2019-02-25T16:34:44Z</time>
      </trkpt>
      <trkpt lat="47.2838" lon="-1.07012">
        <ele>171</ele>
        <time>2019-02-25T16:34:52Z</time>
      </trkpt>
      <trkpt lat="47.28369" lon="-1.06983">
        <ele>170</ele>
        <time>2019-02-25T16:34:58Z</time>
      </trkpt>
      <trkpt lat="47.28355" lon="-1.06953">
        <ele>170</ele>
        <time>2019-02-25T16:35:06Z</time>
      </trkpt>
      <trkpt lat="47.28339" lon="-1.06937">
        <ele>171</ele>
        <time>2019-02-25T16:35:13Z</time>
      </trkpt>
      <trkpt lat="47.28321" lon="-1.06936">
        <ele>172</ele>
        <time>2019-02-25T16:35:20Z</time>
      </trkpt>
      <trkpt lat="47.28319" lon="-1.06936">
        <ele>172</ele>
        <time>2019-02-25T16:35:21Z</time>
      </trkpt>
      <trkpt lat="47.28305" lon="-1.06945">
        <ele>173</ele>
        <time>2019-02-25T16:35:26Z</time>
      </trkpt>
      <trkpt lat="47.283" lon="-1.0695">
        <ele>173</ele>
        <time>2019-02-25T16:35:28Z</time>
      </trkpt>
      <trkpt lat="47.28279" lon="-1.06968">
        <ele>174</ele>
        <time>2019-02-25T16:35:35Z</time>
      </trkpt>
      <trkpt lat="47.28267" lon="-1.06978">
        <ele>174</ele>
        <time>2019-02-25T16:35:39Z</time>
      </trkpt>
      <trkpt lat="47.28255" lon="-1.0699">
        <ele>175</ele>
        <time>2019-02-25T16:35:43Z</time>
      </trkpt>
      <trkpt lat="47.28241" lon="-1.07006">
        <ele>175</ele>
        <time>2019-02-25T16:35:48Z</time>
      </trkpt>
      <trkpt lat="47.28227" lon="-1.07024">
        <ele>176</ele>
        <time>2019-02-25T16:35:53Z</time>
      </trkpt>
      <trkpt lat="47.28217" lon="-1.07038">
        <ele>177</ele>
        <time>2019-02-25T16:35:57Z</time>
      </trkpt>
      <trkpt lat="47.28207" lon="-1.0705">
        <ele>177</ele>
        <time>2019-02-25T16:36:01Z</time>
      </trkpt>
      <trkpt lat="47.28196" lon="-1.07064">
        <ele>178</ele>
        <time>2019-02-25T16:36:05Z</time>
      </trkpt>
      <trkpt lat="47.28185" lon="-1.07078">
        <ele>178</ele>
        <time>2019-02-25T16:36:09Z</time>
      </trkpt>
      <trkpt lat="47.28173" lon="-1.07091">
        <ele>179</ele>
        <time>2019-02-25T16:36:13Z</time>
      </trkpt>
      <trkpt lat="47.28153" lon="-1.07115">
        <ele>179</ele>
        <time>2019-02-25T16:36:20Z</time>
      </trkpt>
      <trkpt lat="47.2814" lon="-1.0713">
        <ele>180</ele>
        <time>2019-02-25T16:36:24Z</time>
      </trkpt>
      <trkpt lat="47.28123" lon="-1.0715">
        <ele>180</ele>
        <time>2019-02-25T16:36:30Z</time>
      </trkpt>
      <trkpt lat="47.28099" lon="-1.07178">
        <ele>181</ele>
        <time>2019-02-25T16:36:37Z</time>
      </trkpt>
      <trkpt lat="47.28096" lon="-1.07181">
        <ele>181</ele>
        <time>2019-02-25T16:36:38Z</time>
      </trkpt>
      <trkpt lat="47.28072" lon="-1.07207">
        <ele>181</ele>
        <time>2019-02-25T16:36:46Z</time>
      </trkpt>
      <trkpt lat="47.28043" lon="-1.0723">
        <ele>181</ele>
        <time>2019-02-25T16:36:55Z</time>
      </trkpt>
      <trkpt lat="47.28012" lon="-1.07254">
        <ele>182</ele>
        <time>2019-02-25T16:37:04Z</time>
      </trkpt>
      <trkpt lat="47.27974" lon="-1.07278">
        <ele>181</ele>
        <time>2019-02-25T16:37:14Z</time>
      </trkpt>
      <trkpt lat="47.27951" lon="-1.07292">
        <ele>181</ele>
        <time>2019-02-25T16:37:20Z</time>
      </trkpt>
      <trkpt lat="47.27942" lon="-1.07294">
        <ele>180</ele>
        <time>2019-02-25T16:37:23Z</time>
      </trkpt>
      <trkpt lat="47.27939" lon="-1.07292">
        <ele>180</ele>
        <time>2019-02-25T16:37:24Z</time>
      </trkpt>
      <trkpt lat="47.27931" lon="-1.07277">
        <ele>179</ele>
        <time>2019-02-25T16:37:28Z</time>
      </trkpt>
      <trkpt lat="47.27912" lon="-1.07247">
        <ele>179</ele>
        <time>2019-02-25T16:37:35Z</time>
      </trkpt>
      <trkpt lat="47.27888" lon="-1.07206">
        <ele>178</ele>
        <time>2019-02-25T16:37:42Z</time>
      </trkpt>
      <trkpt lat="47.27869" lon="-1.07169">
        <ele>177</ele>
        <time>2019-02-25T16:37:47Z</time>
      </trkpt>
      <trkpt lat="47.2786" lon="-1.07152">
        <ele>176</ele>
        <time>2019-02-25T16:37:49Z</time>
      </trkpt>
      <trkpt lat="47.27856" lon="-1.07144">
        <ele>176</ele>
        <time>2019-02-25T16:37:50Z</time>
      </trkpt>
      <trkpt lat="47.27837" lon="-1.07112">
        <ele>175</ele>
        <time>2019-02-25T16:37:54Z</time>
      </trkpt>
      <trkpt lat="47.27823" lon="-1.07087">
        <ele>174</ele>
        <time>2019-02-25T16:37:57Z</time>
      </trkpt>
      <trkpt lat="47.27814" lon="-1.07069">
        <ele>174</ele>
        <time>2019-02-25T16:37:59Z</time>
      </trkpt>
      <trkpt lat="47.27795" lon="-1.07033">
        <ele>173</ele>
        <time>2019-02-25T16:38:03Z</time>
      </trkpt>
      <trkpt lat="47.27783" lon="-1.07008">
        <ele>172</ele>
        <time>2019-02-25T16:38:06Z</time>
      </trkpt>
      <trkpt lat="47.2778" lon="-1.07">
        <ele>172</ele>
        <time>2019-02-25T16:38:07Z</time>
      </trkpt>
      <trkpt lat="47.2777" lon="-1.06972">
        <ele>171</ele>
        <time>2019-02-25T16:38:11Z</time>
      </trkpt>
      <trkpt lat="47.27768" lon="-1.06965">
        <ele>170</ele>
        <time>2019-02-25T16:38:12Z</time>
      </trkpt>
      <trkpt lat="47.27768" lon="-1.06959">
        <ele>170</ele>
        <time>2019-02-25T16:38:13Z</time>
      </trkpt>
      <trkpt lat="47.27769" lon="-1.0695">
        <ele>170</ele>
        <time>2019-02-25T16:38:15Z</time>
      </trkpt>
      <trkpt lat="47.27769" lon="-1.06938">
        <ele>169</ele>
        <time>2019-02-25T16:38:18Z</time>
      </trkpt>
      <trkpt lat="47.27767" lon="-1.06934">
        <ele>169</ele>
        <time>2019-02-25T16:38:19Z</time>
      </trkpt>
      <trkpt lat="47.27765" lon="-1.06931">
        <ele>169</ele>
        <time>2019-02-25T16:38:20Z</time>
      </trkpt>
      <trkpt lat="47.27752" lon="-1.06907">
        <ele>168</ele>
        <time>2019-02-25T16:38:25Z</time>
      </trkpt>
      <trkpt lat="47.2775" lon="-1.06903">
        <ele>168</ele>
        <time>2019-02-25T16:38:26Z</time>
      </trkpt>
      <trkpt lat="47.27742" lon="-1.0689">
        <ele>167</ele>
        <time>2019-02-25T16:38:29Z</time>
      </trkpt>
      <trkpt lat="47.27736" lon="-1.06884">
        <ele>166</ele>
        <time>2019-02-25T16:38:31Z</time>
      </trkpt>
      <trkpt lat="47.27734" lon="-1.06881">
        <ele>166</ele>
        <time>2019-02-25T16:38:32Z</time>
      </trkpt>
      <trkpt lat="47.27719" lon="-1.0687">
        <ele>164</ele>
        <time>2019-02-25T16:38:36Z</time>
      </trkpt>
      <trkpt lat="47.27715" lon="-1.06867">
        <ele>164</ele>
        <time>2019-02-25T16:38:37Z</time>
      </trkpt>
      <trkpt lat="47.27709" lon="-1.06862">
        <ele>163</ele>
        <time>2019-02-25T16:38:39Z</time>
      </trkpt>
      <trkpt lat="47.277" lon="-1.06855">
        <ele>162</ele>
        <time>2019-02-25T16:38:42Z</time>
      </trkpt>
      <trkpt lat="47.27695" lon="-1.06851">
        <ele>161</ele>
        <time>2019-02-25T16:38:44Z</time>
      </trkpt>
      <trkpt lat="47.27694" lon="-1.0685">
        <ele>160</ele>
        <time>2019-02-25T16:38:45Z</time>
      </trkpt>
      <trkpt lat="47.27699" lon="-1.06853">
        <ele>157</ele>
        <time>2019-02-25T16:39:09Z</time>
      </trkpt>
      <trkpt lat="47.27707" lon="-1.06859">
        <ele>159</ele>
        <time>2019-02-25T16:39:15Z</time>
      </trkpt>
      <trkpt lat="47.27711" lon="-1.06863">
        <ele>159</ele>
        <time>2019-02-25T16:39:19Z</time>
      </trkpt>
      <trkpt lat="47.27713" lon="-1.06864">
        <ele>160</ele>
        <time>2019-02-25T16:39:20Z</time>
      </trkpt>
      <trkpt lat="47.27717" lon="-1.06868">
        <ele>161</ele>
        <time>2019-02-25T16:39:24Z</time>
      </trkpt>
      <trkpt lat="47.27723" lon="-1.06872">
        <ele>162</ele>
        <time>2019-02-25T16:39:29Z</time>
      </trkpt>
      <trkpt lat="47.2773" lon="-1.06877">
        <ele>163</ele>
        <time>2019-02-25T16:39:35Z</time>
      </trkpt>
      <trkpt lat="47.27734" lon="-1.06881">
        <ele>163</ele>
        <time>2019-02-25T16:39:39Z</time>
      </trkpt>
      <trkpt lat="47.27738" lon="-1.06884">
        <ele>164</ele>
        <time>2019-02-25T16:39:44Z</time>
      </trkpt>
      <trkpt lat="47.27738" lon="-1.06887">
        <ele>164</ele>
        <time>2019-02-25T16:39:54Z</time>
      </trkpt>
      <trkpt lat="47.27733" lon="-1.06884">
        <ele>164</ele>
        <time>2019-02-25T16:39:56Z</time>
      </trkpt>
      <trkpt lat="47.27725" lon="-1.0688">
        <ele>164</ele>
        <time>2019-02-25T16:39:58Z</time>
      </trkpt>
      <trkpt lat="47.27713" lon="-1.06875">
        <ele>163</ele>
        <time>2019-02-25T16:40:01Z</time>
      </trkpt>
      <trkpt lat="47.27709" lon="-1.06873">
        <ele>162</ele>
        <time>2019-02-25T16:40:02Z</time>
      </trkpt>
      <trkpt lat="47.27703" lon="-1.06869">
        <ele>161</ele>
        <time>2019-02-25T16:40:04Z</time>
      </trkpt>
      <trkpt lat="47.27693" lon="-1.06862">
        <ele>160</ele>
        <time>2019-02-25T16:40:07Z</time>
      </trkpt>
      <trkpt lat="47.27687" lon="-1.06859">
        <ele>159</ele>
        <time>2019-02-25T16:40:09Z</time>
      </trkpt>
      <trkpt lat="47.27684" lon="-1.06859">
        <ele>158</ele>
        <time>2019-02-25T16:40:10Z</time>
      </trkpt>
      <trkpt lat="47.27681" lon="-1.06861">
        <ele>157</ele>
        <time>2019-02-25T16:40:11Z</time>
      </trkpt>
      <trkpt lat="47.27679" lon="-1.06864">
        <ele>156</ele>
        <time>2019-02-25T16:40:12Z</time>
      </trkpt>
      <trkpt lat="47.27675" lon="-1.06867">
        <ele>156</ele>
        <time>2019-02-25T16:40:13Z</time>
      </trkpt>
      <trkpt lat="47.27669" lon="-1.06873">
        <ele>155</ele>
        <time>2019-02-25T16:40:15Z</time>
      </trkpt>
      <trkpt lat="47.2766" lon="-1.06876">
        <ele>154</ele>
        <time>2019-02-25T16:40:17Z</time>
      </trkpt>
      <trkpt lat="47.27653" lon="-1.06874">
        <ele>154</ele>
        <time>2019-02-25T16:40:18Z</time>
      </trkpt>
      <trkpt lat="47.27639" lon="-1.06871">
        <ele>152</ele>
        <time>2019-02-25T16:40:21Z</time>
      </trkpt>
      <trkpt lat="47.27631" lon="-1.06871">
        <ele>152</ele>
        <time>2019-02-25T16:40:23Z</time>
      </trkpt>
      <trkpt lat="47.27621" lon="-1.0687">
        <ele>151</ele>
        <time>2019-02-25T16:40:26Z</time>
      </trkpt>
      <trkpt lat="47.27612" lon="-1.06864">
        <ele>151</ele>
        <time>2019-02-25T16:40:29Z</time>
      </trkpt>
      <trkpt lat="47.27605" lon="-1.06858">
        <ele>150</ele>
        <time>2019-02-25T16:40:34Z</time>
      </trkpt>
      <trkpt lat="47.27584" lon="-1.06831">
        <ele>151</ele>
        <time>2019-02-25T16:41:21Z</time>
      </trkpt>
      <trkpt lat="47.27584" lon="-1.06829">
        <ele>151</ele>
        <time>2019-02-25T16:41:22Z</time>
      </trkpt>
      <trkpt lat="47.2758" lon="-1.06824">
        <ele>151</ele>
        <time>2019-02-25T16:41:26Z</time>
      </trkpt>
      <trkpt lat="47.27575" lon="-1.0682">
        <ele>152</ele>
        <time>2019-02-25T16:41:30Z</time>
      </trkpt>
      <trkpt lat="47.27573" lon="-1.06819">
        <ele>152</ele>
        <time>2019-02-25T16:41:32Z</time>
      </trkpt>
      <trkpt lat="47.27541" lon="-1.0679">
        <ele>159</ele>
        <time>2019-02-25T16:42:09Z</time>
      </trkpt>
      <trkpt lat="47.27539" lon="-1.06786">
        <ele>159</ele>
        <time>2019-02-25T16:42:11Z</time>
      </trkpt>
      <trkpt lat="47.27533" lon="-1.0678">
        <ele>160</ele>
        <time>2019-02-25T16:42:15Z</time>
      </trkpt>
      <trkpt lat="47.27525" lon="-1.0677">
        <ele>161</ele>
        <time>2019-02-25T16:42:21Z</time>
      </trkpt>
      <trkpt lat="47.27519" lon="-1.06762">
        <ele>162</ele>
        <time>2019-02-25T16:42:27Z</time>
      </trkpt>
      <trkpt lat="47.27509" lon="-1.06752">
        <ele>163</ele>
        <time>2019-02-25T16:42:34Z</time>
      </trkpt>
      <trkpt lat="47.27505" lon="-1.06743">
        <ele>164</ele>
        <time>2019-02-25T16:42:39Z</time>
      </trkpt>
      <trkpt lat="47.275" lon="-1.06737">
        <ele>165</ele>
        <time>2019-02-25T16:42:43Z</time>
      </trkpt>
      <trkpt lat="47.27498" lon="-1.06733">
        <ele>165</ele>
        <time>2019-02-25T16:42:45Z</time>
      </trkpt>
      <trkpt lat="47.27494" lon="-1.06727">
        <ele>166</ele>
        <time>2019-02-25T16:42:49Z</time>
      </trkpt>
      <trkpt lat="47.27492" lon="-1.06723">
        <ele>166</ele>
        <time>2019-02-25T16:42:51Z</time>
      </trkpt>
      <trkpt lat="47.27485" lon="-1.06712">
        <ele>167</ele>
        <time>2019-02-25T16:42:57Z</time>
      </trkpt>
      <trkpt lat="47.27484" lon="-1.0671">
        <ele>167</ele>
        <time>2019-02-25T16:42:58Z</time>
      </trkpt>
      <trkpt lat="47.2748" lon="-1.06703">
        <ele>168</ele>
        <time>2019-02-25T16:43:02Z</time>
      </trkpt>
      <trkpt lat="47.27475" lon="-1.06693">
        <ele>169</ele>
        <time>2019-02-25T16:43:07Z</time>
      </trkpt>
      <trkpt lat="47.27473" lon="-1.06691">
        <ele>169</ele>
        <time>2019-02-25T16:43:08Z</time>
      </trkpt>
      <trkpt lat="47.27463" lon="-1.06675">
        <ele>170</ele>
        <time>2019-02-25T16:43:15Z</time>
      </trkpt>
      <trkpt lat="47.27461" lon="-1.06669">
        <ele>171</ele>
        <time>2019-02-25T16:43:17Z</time>
      </trkpt>
      <trkpt lat="47.27449" lon="-1.06643">
        <ele>171</ele>
        <time>2019-02-25T16:43:26Z</time>
      </trkpt>
      <trkpt lat="47.27441" lon="-1.06619">
        <ele>171</ele>
        <time>2019-02-25T16:43:33Z</time>
      </trkpt>
      <trkpt lat="47.27436" lon="-1.06592">
        <ele>171</ele>
        <time>2019-02-25T16:43:39Z</time>
      </trkpt>
      <trkpt lat="47.27423" lon="-1.06564">
        <ele>170</ele>
        <time>2019-02-25T16:43:45Z</time>
      </trkpt>
      <trkpt lat="47.27414" lon="-1.06548">
        <ele>169</ele>
        <time>2019-02-25T16:43:48Z</time>
      </trkpt>
      <trkpt lat="47.27407" lon="-1.06532">
        <ele>168</ele>
        <time>2019-02-25T16:43:51Z</time>
      </trkpt>
      <trkpt lat="47.27401" lon="-1.06512">
        <ele>168</ele>
        <time>2019-02-25T16:43:56Z</time>
      </trkpt>
      <trkpt lat="47.27397" lon="-1.06492">
        <ele>168</ele>
        <time>2019-02-25T16:44:03Z</time>
      </trkpt>
      <trkpt lat="47.27397" lon="-1.06471">
        <ele>168</ele>
        <time>2019-02-25T16:44:10Z</time>
      </trkpt>
      <trkpt lat="47.27397" lon="-1.06455">
        <ele>169</ele>
        <time>2019-02-25T16:44:16Z</time>
      </trkpt>
      <trkpt lat="47.27397" lon="-1.06453">
        <ele>170</ele>
        <time>2019-02-25T16:44:17Z</time>
      </trkpt>
      <trkpt lat="47.27397" lon="-1.06451">
        <ele>170</ele>
        <time>2019-02-25T16:44:18Z</time>
      </trkpt>
      <trkpt lat="47.27398" lon="-1.06444">
        <ele>170</ele>
        <time>2019-02-25T16:44:21Z</time>
      </trkpt>
      <trkpt lat="47.27398" lon="-1.06442">
        <ele>170</ele>
        <time>2019-02-25T16:44:22Z</time>
      </trkpt>
      <trkpt lat="47.27397" lon="-1.06432">
        <ele>172</ele>
        <time>2019-02-25T16:44:26Z</time>
      </trkpt>
      <trkpt lat="47.27399" lon="-1.06424">
        <ele>172</ele>
        <time>2019-02-25T16:44:30Z</time>
      </trkpt>
      <trkpt lat="47.27399" lon="-1.06422">
        <ele>173</ele>
        <time>2019-02-25T16:44:31Z</time>
      </trkpt>
      <trkpt lat="47.274" lon="-1.06419">
        <ele>173</ele>
        <time>2019-02-25T16:44:32Z</time>
      </trkpt>
      <trkpt lat="47.27401" lon="-1.0641">
        <ele>173</ele>
        <time>2019-02-25T16:44:35Z</time>
      </trkpt>
      <trkpt lat="47.27403" lon="-1.06404">
        <ele>173</ele>
        <time>2019-02-25T16:44:37Z</time>
      </trkpt>
      <trkpt lat="47.27406" lon="-1.06386">
        <ele>174</ele>
        <time>2019-02-25T16:44:42Z</time>
      </trkpt>
      <trkpt lat="47.27407" lon="-1.06371">
        <ele>174</ele>
        <time>2019-02-25T16:44:46Z</time>
      </trkpt>
      <trkpt lat="47.27407" lon="-1.06364">
        <ele>174</ele>
        <time>2019-02-25T16:44:48Z</time>
      </trkpt>
      <trkpt lat="47.27405" lon="-1.06335">
        <ele>174</ele>
        <time>2019-02-25T16:44:55Z</time>
      </trkpt>
      <trkpt lat="47.27401" lon="-1.06315">
        <ele>173</ele>
        <time>2019-02-25T16:45:01Z</time>
      </trkpt>
      <trkpt lat="47.27389" lon="-1.0629">
        <ele>173</ele>
        <time>2019-02-25T16:45:08Z</time>
      </trkpt>
      <trkpt lat="47.27376" lon="-1.06258">
        <ele>173</ele>
        <time>2019-02-25T16:45:15Z</time>
      </trkpt>
      <trkpt lat="47.27374" lon="-1.06252">
        <ele>172</ele>
        <time>2019-02-25T16:45:16Z</time>
      </trkpt>
      <trkpt lat="47.27355" lon="-1.06216">
        <ele>171</ele>
        <time>2019-02-25T16:45:22Z</time>
      </trkpt>
      <trkpt lat="47.27336" lon="-1.0619">
        <ele>170</ele>
        <time>2019-02-25T16:45:27Z</time>
      </trkpt>
      <trkpt lat="47.27333" lon="-1.06185">
        <ele>170</ele>
        <time>2019-02-25T16:45:28Z</time>
      </trkpt>
      <trkpt lat="47.27326" lon="-1.06179">
        <ele>170</ele>
        <time>2019-02-25T16:45:30Z</time>
      </trkpt>
      <trkpt lat="47.27319" lon="-1.06173">
        <ele>169</ele>
        <time>2019-02-25T16:45:32Z</time>
      </trkpt>
      <trkpt lat="47.27316" lon="-1.0617">
        <ele>169</ele>
        <time>2019-02-25T16:45:33Z</time>
      </trkpt>
      <trkpt lat="47.27298" lon="-1.06152">
        <ele>168</ele>
        <time>2019-02-25T16:45:38Z</time>
      </trkpt>
      <trkpt lat="47.27295" lon="-1.06149">
        <ele>168</ele>
        <time>2019-02-25T16:45:39Z</time>
      </trkpt>
      <trkpt lat="47.27287" lon="-1.06142">
        <ele>167</ele>
        <time>2019-02-25T16:45:41Z</time>
      </trkpt>
      <trkpt lat="47.27273" lon="-1.06127">
        <ele>166</ele>
        <time>2019-02-25T16:45:45Z</time>
      </trkpt>
      <trkpt lat="47.27265" lon="-1.06119">
        <ele>165</ele>
        <time>2019-02-25T16:45:47Z</time>
      </trkpt>
      <trkpt lat="47.27262" lon="-1.06114">
        <ele>164</ele>
        <time>2019-02-25T16:45:48Z</time>
      </trkpt>
      <trkpt lat="47.27254" lon="-1.06097">
        <ele>164</ele>
        <time>2019-02-25T16:45:51Z</time>
      </trkpt>
      <trkpt lat="47.27249" lon="-1.06085">
        <ele>163</ele>
        <time>2019-02-25T16:45:53Z</time>
      </trkpt>
      <trkpt lat="47.27242" lon="-1.06062">
        <ele>163</ele>
        <time>2019-02-25T16:45:57Z</time>
      </trkpt>
      <trkpt lat="47.27238" lon="-1.0605">
        <ele>162</ele>
        <time>2019-02-25T16:45:59Z</time>
      </trkpt>
      <trkpt lat="47.27235" lon="-1.06044">
        <ele>162</ele>
        <time>2019-02-25T16:46:00Z</time>
      </trkpt>
      <trkpt lat="47.27227" lon="-1.06028">
        <ele>162</ele>
        <time>2019-02-25T16:46:03Z</time>
      </trkpt>
      <trkpt lat="47.27213" lon="-1.05998">
        <ele>161</ele>
        <time>2019-02-25T16:46:09Z</time>
      </trkpt>
      <trkpt lat="47.27208" lon="-1.05989">
        <ele>161</ele>
        <time>2019-02-25T16:46:11Z</time>
      </trkpt>
      <trkpt lat="47.272" lon="-1.05973">
        <ele>160</ele>
        <time>2019-02-25T16:46:15Z</time>
      </trkpt>
      <trkpt lat="47.27185" lon="-1.05948">
        <ele>160</ele>
        <time>2019-02-25T16:46:21Z</time>
      </trkpt>
      <trkpt lat="47.27169" lon="-1.05928">
        <ele>160</ele>
        <time>2019-02-25T16:46:27Z</time>
      </trkpt>
      <trkpt lat="47.27152" lon="-1.05907">
        <ele>159</ele>
        <time>2019-02-25T16:46:34Z</time>
      </trkpt>
      <trkpt lat="47.27135" lon="-1.0589">
        <ele>160</ele>
        <time>2019-02-25T16:46:41Z</time>
      </trkpt>
      <trkpt lat="47.27119" lon="-1.05877">
        <ele>161</ele>
        <time>2019-02-25T16:46:47Z</time>
      </trkpt>
      <trkpt lat="47.27105" lon="-1.05866">
        <ele>162</ele>
        <time>2019-02-25T16:46:53Z</time>
      </trkpt>
      <trkpt lat="47.27103" lon="-1.05864">
        <ele>162</ele>
        <time>2019-02-25T16:46:54Z</time>
      </trkpt>
      <trkpt lat="47.27092" lon="-1.05856">
        <ele>163</ele>
        <time>2019-02-25T16:46:59Z</time>
      </trkpt>
      <trkpt lat="47.27086" lon="-1.05851">
        <ele>164</ele>
        <time>2019-02-25T16:47:02Z</time>
      </trkpt>
      <trkpt lat="47.27084" lon="-1.05849">
        <ele>164</ele>
        <time>2019-02-25T16:47:03Z</time>
      </trkpt>
      <trkpt lat="47.27076" lon="-1.05843">
        <ele>165</ele>
        <time>2019-02-25T16:47:08Z</time>
      </trkpt>
      <trkpt lat="47.27074" lon="-1.05842">
        <ele>166</ele>
        <time>2019-02-25T16:47:09Z</time>
      </trkpt>
      <trkpt lat="47.27072" lon="-1.05839">
        <ele>166</ele>
        <time>2019-02-25T16:47:11Z</time>
      </trkpt>
      <trkpt lat="47.27064" lon="-1.05831">
        <ele>167</ele>
        <time>2019-02-25T16:47:15Z</time>
      </trkpt>
      <trkpt lat="47.27059" lon="-1.05827">
        <ele>167</ele>
        <time>2019-02-25T16:47:17Z</time>
      </trkpt>
      <trkpt lat="47.27043" lon="-1.05813">
        <ele>168</ele>
        <time>2019-02-25T16:47:24Z</time>
      </trkpt>
      <trkpt lat="47.27039" lon="-1.05808">
        <ele>168</ele>
        <time>2019-02-25T16:47:26Z</time>
      </trkpt>
      <trkpt lat="47.27024" lon="-1.05789">
        <ele>169</ele>
        <time>2019-02-25T16:47:33Z</time>
      </trkpt>
      <trkpt lat="47.27014" lon="-1.05775">
        <ele>170</ele>
        <time>2019-02-25T16:47:38Z</time>
      </trkpt>
      <trkpt lat="47.27006" lon="-1.05762">
        <ele>170</ele>
        <time>2019-02-25T16:47:42Z</time>
      </trkpt>
      <trkpt lat="47.26992" lon="-1.05741">
        <ele>170</ele>
        <time>2019-02-25T16:47:49Z</time>
      </trkpt>
      <trkpt lat="47.26988" lon="-1.05743">
        <ele>170</ele>
        <time>2019-02-25T16:47:50Z</time>
      </trkpt>
      <trkpt lat="47.26986" lon="-1.05753">
        <ele>170</ele>
        <time>2019-02-25T16:47:53Z</time>
      </trkpt>
      <trkpt lat="47.26985" lon="-1.05758">
        <ele>170</ele>
        <time>2019-02-25T16:47:54Z</time>
      </trkpt>
      <trkpt lat="47.26976" lon="-1.05792">
        <ele>170</ele>
        <time>2019-02-25T16:48:02Z</time>
      </trkpt>
      <trkpt lat="47.26975" lon="-1.05801">
        <ele>171</ele>
        <time>2019-02-25T16:48:04Z</time>
      </trkpt>
      <trkpt lat="47.26968" lon="-1.05835">
        <ele>171</ele>
        <time>2019-02-25T16:48:12Z</time>
      </trkpt>
      <trkpt lat="47.26967" lon="-1.05839">
        <ele>172</ele>
        <time>2019-02-25T16:48:13Z</time>
      </trkpt>
      <trkpt lat="47.26961" lon="-1.05864">
        <ele>173</ele>
        <time>2019-02-25T16:48:19Z</time>
      </trkpt>
      <trkpt lat="47.26957" lon="-1.05881">
        <ele>173</ele>
        <time>2019-02-25T16:48:23Z</time>
      </trkpt>
      <trkpt lat="47.26952" lon="-1.05901">
        <ele>174</ele>
        <time>2019-02-25T16:48:28Z</time>
      </trkpt>
      <trkpt lat="47.2695" lon="-1.05913">
        <ele>174</ele>
        <time>2019-02-25T16:48:31Z</time>
      </trkpt>
      <trkpt lat="47.26946" lon="-1.05941">
        <ele>175</ele>
        <time>2019-02-25T16:48:38Z</time>
      </trkpt>
      <trkpt lat="47.26944" lon="-1.05986">
        <ele>175</ele>
        <time>2019-02-25T16:48:47Z</time>
      </trkpt>
      <trkpt lat="47.26937" lon="-1.06011">
        <ele>174</ele>
        <time>2019-02-25T16:48:52Z</time>
      </trkpt>
      <trkpt lat="47.26926" lon="-1.06019">
        <ele>175</ele>
        <time>2019-02-25T16:48:57Z</time>
      </trkpt>
      <trkpt lat="47.26918" lon="-1.06025">
        <ele>176</ele>
        <time>2019-02-25T16:49:02Z</time>
      </trkpt>
      <trkpt lat="47.26915" lon="-1.06025">
        <ele>178</ele>
        <time>2019-02-25T16:49:46Z</time>
      </trkpt>
      <trkpt lat="47.26913" lon="-1.06024">
        <ele>177</ele>
        <time>2019-02-25T16:49:48Z</time>
      </trkpt>
      <trkpt lat="47.26911" lon="-1.06023">
        <ele>177</ele>
        <time>2019-02-25T16:49:49Z</time>
      </trkpt>
      <trkpt lat="47.2691" lon="-1.06013">
        <ele>177</ele>
        <time>2019-02-25T16:49:54Z</time>
      </trkpt>
      <trkpt lat="47.26905" lon="-1.05993">
        <ele>177</ele>
        <time>2019-02-25T16:49:59Z</time>
      </trkpt>
      <trkpt lat="47.26901" lon="-1.05987">
        <ele>177</ele>
        <time>2019-02-25T16:50:01Z</time>
      </trkpt>
      <trkpt lat="47.26896" lon="-1.05983">
        <ele>177</ele>
        <time>2019-02-25T16:50:03Z</time>
      </trkpt>
      <trkpt lat="47.26872" lon="-1.05962">
        <ele>178</ele>
        <time>2019-02-25T16:50:12Z</time>
      </trkpt>
      <trkpt lat="47.26867" lon="-1.05958">
        <ele>179</ele>
        <time>2019-02-25T16:50:14Z</time>
      </trkpt>
      <trkpt lat="47.26851" lon="-1.05953">
        <ele>179</ele>
        <time>2019-02-25T16:50:19Z</time>
      </trkpt>
      <trkpt lat="47.26844" lon="-1.05951">
        <ele>180</ele>
        <time>2019-02-25T16:50:21Z</time>
      </trkpt>
      <trkpt lat="47.26827" lon="-1.05944">
        <ele>180</ele>
        <time>2019-02-25T16:50:27Z</time>
      </trkpt>
      <trkpt lat="47.26812" lon="-1.05941">
        <ele>181</ele>
        <time>2019-02-25T16:50:32Z</time>
      </trkpt>
      <trkpt lat="47.26802" lon="-1.05937">
        <ele>181</ele>
        <time>2019-02-25T16:50:35Z</time>
      </trkpt>
      <trkpt lat="47.2678" lon="-1.05919">
        <ele>181</ele>
        <time>2019-02-25T16:50:42Z</time>
      </trkpt>
      <trkpt lat="47.26763" lon="-1.05909">
        <ele>182</ele>
        <time>2019-02-25T16:50:47Z</time>
      </trkpt>
      <trkpt lat="47.26752" lon="-1.05904">
        <ele>182</ele>
        <time>2019-02-25T16:50:50Z</time>
      </trkpt>
      <trkpt lat="47.26724" lon="-1.05896">
        <ele>182</ele>
        <time>2019-02-25T16:50:57Z</time>
      </trkpt>
      <trkpt lat="47.26695" lon="-1.05884">
        <ele>182</ele>
        <time>2019-02-25T16:51:05Z</time>
      </trkpt>
      <trkpt lat="47.26664" lon="-1.05874">
        <ele>182</ele>
        <time>2019-02-25T16:51:13Z</time>
      </trkpt>
      <trkpt lat="47.26658" lon="-1.05878">
        <ele>182</ele>
        <time>2019-02-25T16:51:15Z</time>
      </trkpt>
      <trkpt lat="47.26656" lon="-1.05883">
        <ele>182</ele>
        <time>2019-02-25T16:51:16Z</time>
      </trkpt>
      <trkpt lat="47.26655" lon="-1.05904">
        <ele>182</ele>
        <time>2019-02-25T16:51:20Z</time>
      </trkpt>
      <trkpt lat="47.26656" lon="-1.0591">
        <ele>182</ele>
        <time>2019-02-25T16:51:21Z</time>
      </trkpt>
      <trkpt lat="47.26656" lon="-1.05946">
        <ele>182</ele>
        <time>2019-02-25T16:51:27Z</time>
      </trkpt>
      <trkpt lat="47.26651" lon="-1.05993">
        <ele>183</ele>
        <time>2019-02-25T16:51:35Z</time>
      </trkpt>
      <trkpt lat="47.26651" lon="-1.05998">
        <ele>183</ele>
        <time>2019-02-25T16:51:36Z</time>
      </trkpt>
      <trkpt lat="47.26651" lon="-1.06031">
        <ele>183</ele>
        <time>2019-02-25T16:51:42Z</time>
      </trkpt>
      <trkpt lat="47.26661" lon="-1.06048">
        <ele>183</ele>
        <time>2019-02-25T16:51:46Z</time>
      </trkpt>
      <trkpt lat="47.26665" lon="-1.06064">
        <ele>184</ele>
        <time>2019-02-25T16:51:49Z</time>
      </trkpt>
      <trkpt lat="47.26666" lon="-1.0607">
        <ele>184</ele>
        <time>2019-02-25T16:51:50Z</time>
      </trkpt>
      <trkpt lat="47.26666" lon="-1.06076">
        <ele>184</ele>
        <time>2019-02-25T16:51:51Z</time>
      </trkpt>
      <trkpt lat="47.26665" lon="-1.06091">
        <ele>184</ele>
        <time>2019-02-25T16:51:54Z</time>
      </trkpt>
      <trkpt lat="47.26665" lon="-1.06106">
        <ele>184</ele>
        <time>2019-02-25T16:51:57Z</time>
      </trkpt>
      <trkpt lat="47.26661" lon="-1.06129">
        <ele>184</ele>
        <time>2019-02-25T16:52:01Z</time>
      </trkpt>
      <trkpt lat="47.26658" lon="-1.06141">
        <ele>185</ele>
        <time>2019-02-25T16:52:03Z</time>
      </trkpt>
      <trkpt lat="47.2665" lon="-1.06169">
        <ele>185</ele>
        <time>2019-02-25T16:52:08Z</time>
      </trkpt>
      <trkpt lat="47.26646" lon="-1.06179">
        <ele>185</ele>
        <time>2019-02-25T16:52:10Z</time>
      </trkpt>
      <trkpt lat="47.26632" lon="-1.0622">
        <ele>185</ele>
        <time>2019-02-25T16:52:18Z</time>
      </trkpt>
      <trkpt lat="47.26619" lon="-1.06265">
        <ele>185</ele>
        <time>2019-02-25T16:52:26Z</time>
      </trkpt>
      <trkpt lat="47.26611" lon="-1.06307">
        <ele>184</ele>
        <time>2019-02-25T16:52:32Z</time>
      </trkpt>
      <trkpt lat="47.2661" lon="-1.06312">
        <ele>184</ele>
        <time>2019-02-25T16:52:33Z</time>
      </trkpt>
      <trkpt lat="47.26606" lon="-1.06334">
        <ele>182</ele>
        <time>2019-02-25T16:52:37Z</time>
      </trkpt>
      <trkpt lat="47.26605" lon="-1.0634">
        <ele>182</ele>
        <time>2019-02-25T16:52:38Z</time>
      </trkpt>
      <trkpt lat="47.26601" lon="-1.06359">
        <ele>181</ele>
        <time>2019-02-25T16:52:41Z</time>
      </trkpt>
      <trkpt lat="47.266" lon="-1.06371">
        <ele>180</ele>
        <time>2019-02-25T16:52:43Z</time>
      </trkpt>
      <trkpt lat="47.26599" lon="-1.06377">
        <ele>179</ele>
        <time>2019-02-25T16:52:44Z</time>
      </trkpt>
      <trkpt lat="47.266" lon="-1.06383">
        <ele>178</ele>
        <time>2019-02-25T16:52:45Z</time>
      </trkpt>
      <trkpt lat="47.26605" lon="-1.06393">
        <ele>177</ele>
        <time>2019-02-25T16:52:48Z</time>
      </trkpt>
      <trkpt lat="47.26617" lon="-1.064">
        <ele>176</ele>
        <time>2019-02-25T16:52:53Z</time>
      </trkpt>
      <trkpt lat="47.26632" lon="-1.0641">
        <ele>177</ele>
        <time>2019-02-25T16:53:00Z</time>
      </trkpt>
      <trkpt lat="47.26649" lon="-1.06425">
        <ele>178</ele>
        <time>2019-02-25T16:53:07Z</time>
      </trkpt>
      <trkpt lat="47.26657" lon="-1.06443">
        <ele>179</ele>
        <time>2019-02-25T16:53:12Z</time>
      </trkpt>
      <trkpt lat="47.2666" lon="-1.06457">
        <ele>179</ele>
        <time>2019-02-25T16:53:17Z</time>
      </trkpt>
      <trkpt lat="47.2666" lon="-1.06463">
        <ele>179</ele>
        <time>2019-02-25T16:53:19Z</time>
      </trkpt>
      <trkpt lat="47.26657" lon="-1.06482">
        <ele>180</ele>
        <time>2019-02-25T16:53:25Z</time>
      </trkpt>
      <trkpt lat="47.26656" lon="-1.06485">
        <ele>180</ele>
        <time>2019-02-25T16:53:26Z</time>
      </trkpt>
      <trkpt lat="47.2665" lon="-1.06509">
        <ele>181</ele>
        <time>2019-02-25T16:53:32Z</time>
      </trkpt>
      <trkpt lat="47.26647" lon="-1.06521">
        <ele>181</ele>
        <time>2019-02-25T16:53:35Z</time>
      </trkpt>
      <trkpt lat="47.26644" lon="-1.06533">
        <ele>182</ele>
        <time>2019-02-25T16:53:38Z</time>
      </trkpt>
      <trkpt lat="47.26641" lon="-1.06554">
        <ele>182</ele>
        <time>2019-02-25T16:53:43Z</time>
      </trkpt>
      <trkpt lat="47.26641" lon="-1.06559">
        <ele>183</ele>
        <time>2019-02-25T16:53:44Z</time>
      </trkpt>
      <trkpt lat="47.26635" lon="-1.06588">
        <ele>183</ele>
        <time>2019-02-25T16:53:49Z</time>
      </trkpt>
      <trkpt lat="47.26633" lon="-1.06595">
        <ele>184</ele>
        <time>2019-02-25T16:53:50Z</time>
      </trkpt>
      <trkpt lat="47.2663" lon="-1.06628">
        <ele>184</ele>
        <time>2019-02-25T16:53:55Z</time>
      </trkpt>
      <trkpt lat="47.26628" lon="-1.06659">
        <ele>184</ele>
        <time>2019-02-25T16:54:01Z</time>
      </trkpt>
      <trkpt lat="47.26629" lon="-1.06681">
        <ele>185</ele>
        <time>2019-02-25T16:54:05Z</time>
      </trkpt>
      <trkpt lat="47.26629" lon="-1.0669">
        <ele>185</ele>
        <time>2019-02-25T16:54:07Z</time>
      </trkpt>
      <trkpt lat="47.26631" lon="-1.0673">
        <ele>185</ele>
        <time>2019-02-25T16:54:14Z</time>
      </trkpt>
      <trkpt lat="47.26632" lon="-1.06748">
        <ele>186</ele>
        <time>2019-02-25T16:54:17Z</time>
      </trkpt>
      <trkpt lat="47.26633" lon="-1.06784">
        <ele>186</ele>
        <time>2019-02-25T16:54:23Z</time>
      </trkpt>
      <trkpt lat="47.26629" lon="-1.06825">
        <ele>187</ele>
        <time>2019-02-25T16:54:29Z</time>
      </trkpt>
      <trkpt lat="47.26628" lon="-1.06836">
        <ele>187</ele>
        <time>2019-02-25T16:54:31Z</time>
      </trkpt>
      <trkpt lat="47.26625" lon="-1.06868">
        <ele>187</ele>
        <time>2019-02-25T16:54:37Z</time>
      </trkpt>
      <trkpt lat="47.26623" lon="-1.06885">
        <ele>188</ele>
        <time>2019-02-25T16:54:40Z</time>
      </trkpt>
      <trkpt lat="47.26622" lon="-1.0691">
        <ele>188</ele>
        <time>2019-02-25T16:54:44Z</time>
      </trkpt>
      <trkpt lat="47.26621" lon="-1.06958">
        <ele>189</ele>
        <time>2019-02-25T16:54:52Z</time>
      </trkpt>
      <trkpt lat="47.26614" lon="-1.0699">
        <ele>189</ele>
        <time>2019-02-25T16:54:58Z</time>
      </trkpt>
      <trkpt lat="47.26601" lon="-1.0703">
        <ele>190</ele>
        <time>2019-02-25T16:55:06Z</time>
      </trkpt>
      <trkpt lat="47.26597" lon="-1.07039">
        <ele>190</ele>
        <time>2019-02-25T16:55:08Z</time>
      </trkpt>
      <trkpt lat="47.26583" lon="-1.07073">
        <ele>190</ele>
        <time>2019-02-25T16:55:15Z</time>
      </trkpt>
      <trkpt lat="47.26566" lon="-1.07104">
        <ele>191</ele>
        <time>2019-02-25T16:55:22Z</time>
      </trkpt>
      <trkpt lat="47.26564" lon="-1.07108">
        <ele>191</ele>
        <time>2019-02-25T16:55:23Z</time>
      </trkpt>
      <trkpt lat="47.26546" lon="-1.0714">
        <ele>191</ele>
        <time>2019-02-25T16:55:30Z</time>
      </trkpt>
      <trkpt lat="47.2654" lon="-1.07155">
        <ele>192</ele>
        <time>2019-02-25T16:55:33Z</time>
      </trkpt>
      <trkpt lat="47.26526" lon="-1.0719">
        <ele>192</ele>
        <time>2019-02-25T16:55:40Z</time>
      </trkpt>
      <trkpt lat="47.26522" lon="-1.072">
        <ele>193</ele>
        <time>2019-02-25T16:55:42Z</time>
      </trkpt>
      <trkpt lat="47.26513" lon="-1.07227">
        <ele>193</ele>
        <time>2019-02-25T16:55:48Z</time>
      </trkpt>
      <trkpt lat="47.2651" lon="-1.0724">
        <ele>194</ele>
        <time>2019-02-25T16:55:51Z</time>
      </trkpt>
      <trkpt lat="47.26506" lon="-1.07271">
        <ele>195</ele>
        <time>2019-02-25T16:55:57Z</time>
      </trkpt>
      <trkpt lat="47.26507" lon="-1.07287">
        <ele>195</ele>
        <time>2019-02-25T16:56:00Z</time>
      </trkpt>
      <trkpt lat="47.2651" lon="-1.07298">
        <ele>195</ele>
        <time>2019-02-25T16:56:02Z</time>
      </trkpt>
      <trkpt lat="47.2652" lon="-1.07322">
        <ele>196</ele>
        <time>2019-02-25T16:56:07Z</time>
      </trkpt>
      <trkpt lat="47.26524" lon="-1.07331">
        <ele>196</ele>
        <time>2019-02-25T16:56:09Z</time>
      </trkpt>
      <trkpt lat="47.26536" lon="-1.07359">
        <ele>197</ele>
        <time>2019-02-25T16:56:15Z</time>
      </trkpt>
      <trkpt lat="47.26539" lon="-1.07368">
        <ele>197</ele>
        <time>2019-02-25T16:56:17Z</time>
      </trkpt>
      <trkpt lat="47.26552" lon="-1.07404">
        <ele>198</ele>
        <time>2019-02-25T16:56:24Z</time>
      </trkpt>
      <trkpt lat="47.26558" lon="-1.0742">
        <ele>198</ele>
        <time>2019-02-25T16:56:27Z</time>
      </trkpt>
      <trkpt lat="47.26568" lon="-1.07447">
        <ele>199</ele>
        <time>2019-02-25T16:56:32Z</time>
      </trkpt>
      <trkpt lat="47.26578" lon="-1.07483">
        <ele>199</ele>
        <time>2019-02-25T16:56:39Z</time>
      </trkpt>
      <trkpt lat="47.26587" lon="-1.07512">
        <ele>199</ele>
        <time>2019-02-25T16:56:44Z</time>
      </trkpt>
      <trkpt lat="47.2659" lon="-1.07518">
        <ele>199</ele>
        <time>2019-02-25T16:56:45Z</time>
      </trkpt>
      <trkpt lat="47.26602" lon="-1.07538">
        <ele>199</ele>
        <time>2019-02-25T16:56:49Z</time>
      </trkpt>
      <trkpt lat="47.2661" lon="-1.07556">
        <ele>199</ele>
        <time>2019-02-25T16:56:52Z</time>
      </trkpt>
      <trkpt lat="47.26623" lon="-1.07578">
        <ele>198</ele>
        <time>2019-02-25T16:56:57Z</time>
      </trkpt>
      <trkpt lat="47.26624" lon="-1.07581">
        <ele>198</ele>
        <time>2019-02-25T16:56:58Z</time>
      </trkpt>
      <trkpt lat="47.26626" lon="-1.07586">
        <ele>197</ele>
        <time>2019-02-25T16:57:00Z</time>
      </trkpt>
      <trkpt lat="47.26625" lon="-1.07588">
        <ele>197</ele>
        <time>2019-02-25T16:57:01Z</time>
      </trkpt>
      <trkpt lat="47.26615" lon="-1.07594">
        <ele>197</ele>
        <time>2019-02-25T16:57:05Z</time>
      </trkpt>
      <trkpt lat="47.26589" lon="-1.07594">
        <ele>198</ele>
        <time>2019-02-25T16:57:12Z</time>
      </trkpt>
      <trkpt lat="47.2656" lon="-1.07577">
        <ele>199</ele>
        <time>2019-02-25T16:57:20Z</time>
      </trkpt>
      <trkpt lat="47.26557" lon="-1.07574">
        <ele>199</ele>
        <time>2019-02-25T16:57:21Z</time>
      </trkpt>
      <trkpt lat="47.2654" lon="-1.07556">
        <ele>200</ele>
        <time>2019-02-25T16:57:27Z</time>
      </trkpt>
      <trkpt lat="47.26534" lon="-1.07564">
        <ele>200</ele>
        <time>2019-02-25T16:57:30Z</time>
      </trkpt>
      <trkpt lat="47.26529" lon="-1.07578">
        <ele>200</ele>
        <time>2019-02-25T16:57:33Z</time>
      </trkpt>
      <trkpt lat="47.26526" lon="-1.07593">
        <ele>200</ele>
        <time>2019-02-25T16:57:36Z</time>
      </trkpt>
      <trkpt lat="47.26517" lon="-1.07623">
        <ele>200</ele>
        <time>2019-02-25T16:57:42Z</time>
      </trkpt>
      <trkpt lat="47.26511" lon="-1.0766">
        <ele>200</ele>
        <time>2019-02-25T16:57:48Z</time>
      </trkpt>
      <trkpt lat="47.26507" lon="-1.07701">
        <ele>199</ele>
        <time>2019-02-25T16:57:55Z</time>
      </trkpt>
      <trkpt lat="47.26505" lon="-1.07719">
        <ele>199</ele>
        <time>2019-02-25T16:57:58Z</time>
      </trkpt>
      <trkpt lat="47.26505" lon="-1.07725">
        <ele>199</ele>
        <time>2019-02-25T16:57:59Z</time>
      </trkpt>
      <trkpt lat="47.26505" lon="-1.07745">
        <ele>199</ele>
        <time>2019-02-25T16:58:02Z</time>
      </trkpt>
      <trkpt lat="47.26512" lon="-1.07789">
        <ele>198</ele>
        <time>2019-02-25T16:58:09Z</time>
      </trkpt>
      <trkpt lat="47.26516" lon="-1.07823">
        <ele>198</ele>
        <time>2019-02-25T16:58:14Z</time>
      </trkpt>
      <trkpt lat="47.26516" lon="-1.07844">
        <ele>197</ele>
        <time>2019-02-25T16:58:17Z</time>
      </trkpt>
      <trkpt lat="47.26516" lon="-1.07873">
        <ele>197</ele>
        <time>2019-02-25T16:58:21Z</time>
      </trkpt>
      <trkpt lat="47.26516" lon="-1.07894">
        <ele>196</ele>
        <time>2019-02-25T16:58:24Z</time>
      </trkpt>
      <trkpt lat="47.26515" lon="-1.07921">
        <ele>195</ele>
        <time>2019-02-25T16:58:28Z</time>
      </trkpt>
      <trkpt lat="47.26515" lon="-1.07945">
        <ele>195</ele>
        <time>2019-02-25T16:58:32Z</time>
      </trkpt>
      <trkpt lat="47.26519" lon="-1.07993">
        <ele>194</ele>
        <time>2019-02-25T16:58:40Z</time>
      </trkpt>
      <trkpt lat="47.26525" lon="-1.08036">
        <ele>195</ele>
        <time>2019-02-25T16:58:48Z</time>
      </trkpt>
      <trkpt lat="47.26531" lon="-1.08069">
        <ele>196</ele>
        <time>2019-02-25T16:58:55Z</time>
      </trkpt>
      <trkpt lat="47.26535" lon="-1.08102">
        <ele>196</ele>
        <time>2019-02-25T16:59:01Z</time>
      </trkpt>
      <trkpt lat="47.26535" lon="-1.08107">
        <ele>196</ele>
        <time>2019-02-25T16:59:02Z</time>
      </trkpt>
      <trkpt lat="47.26538" lon="-1.08133">
        <ele>197</ele>
        <time>2019-02-25T16:59:08Z</time>
      </trkpt>
      <trkpt lat="47.26538" lon="-1.08138">
        <ele>198</ele>
        <time>2019-02-25T16:59:09Z</time>
      </trkpt>
      <trkpt lat="47.26542" lon="-1.08169">
        <ele>199</ele>
        <time>2019-02-25T16:59:16Z</time>
      </trkpt>
      <trkpt lat="47.26542" lon="-1.08173">
        <ele>199</ele>
        <time>2019-02-25T16:59:17Z</time>
      </trkpt>
      <trkpt lat="47.26545" lon="-1.08194">
        <ele>200</ele>
        <time>2019-02-25T16:59:22Z</time>
      </trkpt>
      <trkpt lat="47.26547" lon="-1.08212">
        <ele>201</ele>
        <time>2019-02-25T16:59:26Z</time>
      </trkpt>
      <trkpt lat="47.26548" lon="-1.08218">
        <ele>201</ele>
        <time>2019-02-25T16:59:27Z</time>
      </trkpt>
      <trkpt lat="47.26551" lon="-1.08256">
        <ele>201</ele>
        <time>2019-02-25T16:59:34Z</time>
      </trkpt>
      <trkpt lat="47.26552" lon="-1.08292">
        <ele>201</ele>
        <time>2019-02-25T16:59:41Z</time>
      </trkpt>
      <trkpt lat="47.2655" lon="-1.08329">
        <ele>201</ele>
        <time>2019-02-25T16:59:48Z</time>
      </trkpt>
      <trkpt lat="47.26544" lon="-1.08368">
        <ele>201</ele>
        <time>2019-02-25T16:59:56Z</time>
      </trkpt>
      <trkpt lat="47.26537" lon="-1.08381">
        <ele>201</ele>
        <time>2019-02-25T17:00:01Z</time>
      </trkpt>
      <trkpt lat="47.26528" lon="-1.08376">
        <ele>201</ele>
        <time>2019-02-25T17:00:05Z</time>
      </trkpt>
      <trkpt lat="47.26526" lon="-1.08375">
        <ele>201</ele>
        <time>2019-02-25T17:00:06Z</time>
      </trkpt>
      <trkpt lat="47.26515" lon="-1.0837">
        <ele>201</ele>
        <time>2019-02-25T17:00:12Z</time>
      </trkpt>
      <trkpt lat="47.26498" lon="-1.08364">
        <ele>201</ele>
        <time>2019-02-25T17:00:19Z</time>
      </trkpt>
      <trkpt lat="47.26468" lon="-1.08354">
        <ele>201</ele>
        <time>2019-02-25T17:00:30Z</time>
      </trkpt>
      <trkpt lat="47.26444" lon="-1.08345">
        <ele>201</ele>
        <time>2019-02-25T17:00:37Z</time>
      </trkpt>
      <trkpt lat="47.26423" lon="-1.08337">
        <ele>202</ele>
        <time>2019-02-25T17:00:44Z</time>
      </trkpt>
      <trkpt lat="47.26403" lon="-1.08329">
        <ele>202</ele>
        <time>2019-02-25T17:00:50Z</time>
      </trkpt>
      <trkpt lat="47.26396" lon="-1.08327">
        <ele>202</ele>
        <time>2019-02-25T17:00:52Z</time>
      </trkpt>
      <trkpt lat="47.26361" lon="-1.08311">
        <ele>203</ele>
        <time>2019-02-25T17:01:02Z</time>
      </trkpt>
      <trkpt lat="47.26338" lon="-1.08307">
        <ele>203</ele>
        <time>2019-02-25T17:01:09Z</time>
      </trkpt>
      <trkpt lat="47.26334" lon="-1.08308">
        <ele>203</ele>
        <time>2019-02-25T17:01:10Z</time>
      </trkpt>
      <trkpt lat="47.26312" lon="-1.08315">
        <ele>203</ele>
        <time>2019-02-25T17:01:16Z</time>
      </trkpt>
      <trkpt lat="47.26278" lon="-1.08331">
        <ele>204</ele>
        <time>2019-02-25T17:01:25Z</time>
      </trkpt>
      <trkpt lat="47.26262" lon="-1.08339">
        <ele>204</ele>
        <time>2019-02-25T17:01:29Z</time>
      </trkpt>
      <trkpt lat="47.26246" lon="-1.08347">
        <ele>204</ele>
        <time>2019-02-25T17:01:33Z</time>
      </trkpt>
      <trkpt lat="47.26206" lon="-1.08376">
        <ele>204</ele>
        <time>2019-02-25T17:01:43Z</time>
      </trkpt>
      <trkpt lat="47.26199" lon="-1.08383">
        <ele>204</ele>
        <time>2019-02-25T17:01:45Z</time>
      </trkpt>
      <trkpt lat="47.26191" lon="-1.084">
        <ele>203</ele>
        <time>2019-02-25T17:01:48Z</time>
      </trkpt>
      <trkpt lat="47.26188" lon="-1.08426">
        <ele>203</ele>
        <time>2019-02-25T17:01:52Z</time>
      </trkpt>
      <trkpt lat="47.26186" lon="-1.08486">
        <ele>202</ele>
        <time>2019-02-25T17:02:00Z</time>
      </trkpt>
      <trkpt lat="47.26185" lon="-1.08525">
        <ele>202</ele>
        <time>2019-02-25T17:02:05Z</time>
      </trkpt>
      <trkpt lat="47.26183" lon="-1.08559">
        <ele>202</ele>
        <time>2019-02-25T17:02:09Z</time>
      </trkpt>
      <trkpt lat="47.26179" lon="-1.08603">
        <ele>201</ele>
        <time>2019-02-25T17:02:14Z</time>
      </trkpt>
      <trkpt lat="47.26175" lon="-1.08638">
        <ele>201</ele>
        <time>2019-02-25T17:02:18Z</time>
      </trkpt>
      <trkpt lat="47.2617" lon="-1.08674">
        <ele>200</ele>
        <time>2019-02-25T17:02:22Z</time>
      </trkpt>
      <trkpt lat="47.26165" lon="-1.08729">
        <ele>199</ele>
        <time>2019-02-25T17:02:28Z</time>
      </trkpt>
      <trkpt lat="47.26164" lon="-1.08737">
        <ele>199</ele>
        <time>2019-02-25T17:02:29Z</time>
      </trkpt>
      <trkpt lat="47.26162" lon="-1.08757">
        <ele>199</ele>
        <time>2019-02-25T17:02:32Z</time>
      </trkpt>
      <trkpt lat="47.26163" lon="-1.08763">
        <ele>199</ele>
        <time>2019-02-25T17:02:33Z</time>
      </trkpt>
      <trkpt lat="47.26174" lon="-1.08798">
        <ele>198</ele>
        <time>2019-02-25T17:02:39Z</time>
      </trkpt>
      <trkpt lat="47.26176" lon="-1.08805">
        <ele>198</ele>
        <time>2019-02-25T17:02:40Z</time>
      </trkpt>
      <trkpt lat="47.26186" lon="-1.08841">
        <ele>197</ele>
        <time>2019-02-25T17:02:45Z</time>
      </trkpt>
      <trkpt lat="47.26191" lon="-1.08857">
        <ele>196</ele>
        <time>2019-02-25T17:02:47Z</time>
      </trkpt>
      <trkpt lat="47.26198" lon="-1.08879">
        <ele>195</ele>
        <time>2019-02-25T17:02:50Z</time>
      </trkpt>
      <trkpt lat="47.26202" lon="-1.08891">
        <ele>195</ele>
        <time>2019-02-25T17:02:52Z</time>
      </trkpt>
      <trkpt lat="47.26206" lon="-1.08902">
        <ele>194</ele>
        <time>2019-02-25T17:02:54Z</time>
      </trkpt>
      <trkpt lat="47.26212" lon="-1.08923">
        <ele>193</ele>
        <time>2019-02-25T17:02:58Z</time>
      </trkpt>
      <trkpt lat="47.26213" lon="-1.08928">
        <ele>193</ele>
        <time>2019-02-25T17:02:59Z</time>
      </trkpt>
      <trkpt lat="47.26221" lon="-1.08946">
        <ele>192</ele>
        <time>2019-02-25T17:03:03Z</time>
      </trkpt>
      <trkpt lat="47.26224" lon="-1.08956">
        <ele>192</ele>
        <time>2019-02-25T17:03:05Z</time>
      </trkpt>
      <trkpt lat="47.26225" lon="-1.08965">
        <ele>191</ele>
        <time>2019-02-25T17:03:07Z</time>
      </trkpt>
      <trkpt lat="47.26223" lon="-1.0897">
        <ele>191</ele>
        <time>2019-02-25T17:03:08Z</time>
      </trkpt>
      <trkpt lat="47.26215" lon="-1.08979">
        <ele>191</ele>
        <time>2019-02-25T17:03:11Z</time>
      </trkpt>
      <trkpt lat="47.26212" lon="-1.08982">
        <ele>191</ele>
        <time>2019-02-25T17:03:12Z</time>
      </trkpt>
      <trkpt lat="47.26185" lon="-1.09004">
        <ele>191</ele>
        <time>2019-02-25T17:03:20Z</time>
      </trkpt>
      <trkpt lat="47.2616" lon="-1.09024">
        <ele>192</ele>
        <time>2019-02-25T17:03:27Z</time>
      </trkpt>
      <trkpt lat="47.26141" lon="-1.09045">
        <ele>191</ele>
        <time>2019-02-25T17:03:33Z</time>
      </trkpt>
      <trkpt lat="47.26142" lon="-1.09062">
        <ele>191</ele>
        <time>2019-02-25T17:03:36Z</time>
      </trkpt>
      <trkpt lat="47.26144" lon="-1.09069">
        <ele>191</ele>
        <time>2019-02-25T17:03:37Z</time>
      </trkpt>
      <trkpt lat="47.26153" lon="-1.09104">
        <ele>190</ele>
        <time>2019-02-25T17:03:42Z</time>
      </trkpt>
      <trkpt lat="47.26155" lon="-1.09112">
        <ele>190</ele>
        <time>2019-02-25T17:03:43Z</time>
      </trkpt>
      <trkpt lat="47.26156" lon="-1.09119">
        <ele>189</ele>
        <time>2019-02-25T17:03:44Z</time>
      </trkpt>
      <trkpt lat="47.26155" lon="-1.09143">
        <ele>189</ele>
        <time>2019-02-25T17:03:47Z</time>
      </trkpt>
      <trkpt lat="47.26153" lon="-1.09152">
        <ele>189</ele>
        <time>2019-02-25T17:03:48Z</time>
      </trkpt>
      <trkpt lat="47.26145" lon="-1.09177">
        <ele>188</ele>
        <time>2019-02-25T17:03:51Z</time>
      </trkpt>
      <trkpt lat="47.26142" lon="-1.09184">
        <ele>188</ele>
        <time>2019-02-25T17:03:52Z</time>
      </trkpt>
      <trkpt lat="47.26131" lon="-1.09203">
        <ele>187</ele>
        <time>2019-02-25T17:03:55Z</time>
      </trkpt>
      <trkpt lat="47.26126" lon="-1.09208">
        <ele>186</ele>
        <time>2019-02-25T17:03:56Z</time>
      </trkpt>
      <trkpt lat="47.26112" lon="-1.09231">
        <ele>185</ele>
        <time>2019-02-25T17:04:00Z</time>
      </trkpt>
      <trkpt lat="47.26109" lon="-1.09236">
        <ele>185</ele>
        <time>2019-02-25T17:04:01Z</time>
      </trkpt>
      <trkpt lat="47.26098" lon="-1.09259">
        <ele>184</ele>
        <time>2019-02-25T17:04:05Z</time>
      </trkpt>
      <trkpt lat="47.26091" lon="-1.09274">
        <ele>184</ele>
        <time>2019-02-25T17:04:08Z</time>
      </trkpt>
      <trkpt lat="47.26083" lon="-1.09305">
        <ele>184</ele>
        <time>2019-02-25T17:04:14Z</time>
      </trkpt>
      <trkpt lat="47.26068" lon="-1.09347">
        <ele>185</ele>
        <time>2019-02-25T17:04:22Z</time>
      </trkpt>
      <trkpt lat="47.26056" lon="-1.09374">
        <ele>185</ele>
        <time>2019-02-25T17:04:28Z</time>
      </trkpt>
      <trkpt lat="47.26054" lon="-1.09378">
        <ele>185</ele>
        <time>2019-02-25T17:04:29Z</time>
      </trkpt>
      <trkpt lat="47.26037" lon="-1.09406">
        <ele>186</ele>
        <time>2019-02-25T17:04:36Z</time>
      </trkpt>
      <trkpt lat="47.26032" lon="-1.09416">
        <ele>187</ele>
        <time>2019-02-25T17:04:38Z</time>
      </trkpt>
      <trkpt lat="47.26015" lon="-1.09442">
        <ele>187</ele>
        <time>2019-02-25T17:04:44Z</time>
      </trkpt>
      <trkpt lat="47.26009" lon="-1.09454">
        <ele>188</ele>
        <time>2019-02-25T17:04:47Z</time>
      </trkpt>
      <trkpt lat="47.25995" lon="-1.09476">
        <ele>189</ele>
        <time>2019-02-25T17:04:53Z</time>
      </trkpt>
      <trkpt lat="47.25993" lon="-1.09479">
        <ele>189</ele>
        <time>2019-02-25T17:04:54Z</time>
      </trkpt>
      <trkpt lat="47.25979" lon="-1.09497">
        <ele>190</ele>
        <time>2019-02-25T17:05:00Z</time>
      </trkpt>
      <trkpt lat="47.25977" lon="-1.095">
        <ele>190</ele>
        <time>2019-02-25T17:05:01Z</time>
      </trkpt>
      <trkpt lat="47.25963" lon="-1.09517">
        <ele>191</ele>
        <time>2019-02-25T17:05:06Z</time>
      </trkpt>
      <trkpt lat="47.25955" lon="-1.09528">
        <ele>191</ele>
        <time>2019-02-25T17:05:09Z</time>
      </trkpt>
      <trkpt lat="47.25937" lon="-1.0955">
        <ele>192</ele>
        <time>2019-02-25T17:05:16Z</time>
      </trkpt>
      <trkpt lat="47.25931" lon="-1.09556">
        <ele>192</ele>
        <time>2019-02-25T17:05:18Z</time>
      </trkpt>
      <trkpt lat="47.25912" lon="-1.09576">
        <ele>193</ele>
        <time>2019-02-25T17:05:25Z</time>
      </trkpt>
      <trkpt lat="47.25909" lon="-1.09578">
        <ele>193</ele>
        <time>2019-02-25T17:05:26Z</time>
      </trkpt>
      <trkpt lat="47.25886" lon="-1.09593">
        <ele>194</ele>
        <time>2019-02-25T17:05:33Z</time>
      </trkpt>
      <trkpt lat="47.25882" lon="-1.09595">
        <ele>194</ele>
        <time>2019-02-25T17:05:34Z</time>
      </trkpt>
      <trkpt lat="47.25858" lon="-1.09604">
        <ele>195</ele>
        <time>2019-02-25T17:05:41Z</time>
      </trkpt>
      <trkpt lat="47.2583" lon="-1.09612">
        <ele>195</ele>
        <time>2019-02-25T17:05:49Z</time>
      </trkpt>
      <trkpt lat="47.25817" lon="-1.09616">
        <ele>195</ele>
        <time>2019-02-25T17:05:53Z</time>
      </trkpt>
      <trkpt lat="47.25796" lon="-1.09626">
        <ele>196</ele>
        <time>2019-02-25T17:05:59Z</time>
      </trkpt>
      <trkpt lat="47.25767" lon="-1.09643">
        <ele>196</ele>
        <time>2019-02-25T17:06:07Z</time>
      </trkpt>
      <trkpt lat="47.25741" lon="-1.09658">
        <ele>196</ele>
        <time>2019-02-25T17:06:14Z</time>
      </trkpt>
      <trkpt lat="47.25734" lon="-1.09662">
        <ele>196</ele>
        <time>2019-02-25T17:06:16Z</time>
      </trkpt>
      <trkpt lat="47.25719" lon="-1.0967">
        <ele>196</ele>
        <time>2019-02-25T17:06:21Z</time>
      </trkpt>
      <trkpt lat="47.25695" lon="-1.09689">
        <ele>197</ele>
        <time>2019-02-25T17:06:28Z</time>
      </trkpt>
      <trkpt lat="47.25667" lon="-1.09712">
        <ele>197</ele>
        <time>2019-02-25T17:06:36Z</time>
      </trkpt>
      <trkpt lat="47.25645" lon="-1.0973">
        <ele>197</ele>
        <time>2019-02-25T17:06:43Z</time>
      </trkpt>
      <trkpt lat="47.25621" lon="-1.09747">
        <ele>197</ele>
        <time>2019-02-25T17:06:50Z</time>
      </trkpt>
      <trkpt lat="47.25618" lon="-1.0975">
        <ele>197</ele>
        <time>2019-02-25T17:06:51Z</time>
      </trkpt>
      <trkpt lat="47.25594" lon="-1.09765">
        <ele>198</ele>
        <time>2019-02-25T17:06:58Z</time>
      </trkpt>
      <trkpt lat="47.25567" lon="-1.09775">
        <ele>198</ele>
        <time>2019-02-25T17:07:05Z</time>
      </trkpt>
      <trkpt lat="47.25538" lon="-1.09778">
        <ele>198</ele>
        <time>2019-02-25T17:07:12Z</time>
      </trkpt>
      <trkpt lat="47.25505" lon="-1.09779">
        <ele>198</ele>
        <time>2019-02-25T17:07:20Z</time>
      </trkpt>
      <trkpt lat="47.25481" lon="-1.09775">
        <ele>198</ele>
        <time>2019-02-25T17:07:26Z</time>
      </trkpt>
      <trkpt lat="47.25477" lon="-1.09775">
        <ele>197</ele>
        <time>2019-02-25T17:07:27Z</time>
      </trkpt>
      <trkpt lat="47.25443" lon="-1.09773">
        <ele>197</ele>
        <time>2019-02-25T17:07:35Z</time>
      </trkpt>
      <trkpt lat="47.25412" lon="-1.09772">
        <ele>197</ele>
        <time>2019-02-25T17:07:43Z</time>
      </trkpt>
      <trkpt lat="47.25377" lon="-1.09775">
        <ele>197</ele>
        <time>2019-02-25T17:07:52Z</time>
      </trkpt>
      <trkpt lat="47.25349" lon="-1.09781">
        <ele>197</ele>
        <time>2019-02-25T17:07:59Z</time>
      </trkpt>
      <trkpt lat="47.25315" lon="-1.09791">
        <ele>197</ele>
        <time>2019-02-25T17:08:08Z</time>
      </trkpt>
      <trkpt lat="47.25279" lon="-1.09802">
        <ele>198</ele>
        <time>2019-02-25T17:08:18Z</time>
      </trkpt>
      <trkpt lat="47.25254" lon="-1.09807">
        <ele>198</ele>
        <time>2019-02-25T17:08:25Z</time>
      </trkpt>
      <trkpt lat="47.25243" lon="-1.09809">
        <ele>199</ele>
        <time>2019-02-25T17:08:28Z</time>
      </trkpt>
      <trkpt lat="47.25224" lon="-1.09812">
        <ele>199</ele>
        <time>2019-02-25T17:08:34Z</time>
      </trkpt>
      <trkpt lat="47.25208" lon="-1.09814">
        <ele>200</ele>
        <time>2019-02-25T17:08:39Z</time>
      </trkpt>
      <trkpt lat="47.25205" lon="-1.09814">
        <ele>200</ele>
        <time>2019-02-25T17:08:40Z</time>
      </trkpt>
      <trkpt lat="47.25176" lon="-1.09812">
        <ele>200</ele>
        <time>2019-02-25T17:08:48Z</time>
      </trkpt>
      <trkpt lat="47.25151" lon="-1.09812">
        <ele>201</ele>
        <time>2019-02-25T17:08:56Z</time>
      </trkpt>
      <trkpt lat="47.25148" lon="-1.09812">
        <ele>201</ele>
        <time>2019-02-25T17:08:57Z</time>
      </trkpt>
      <trkpt lat="47.25131" lon="-1.0981">
        <ele>201</ele>
        <time>2019-02-25T17:09:03Z</time>
      </trkpt>
      <trkpt lat="47.25123" lon="-1.09804">
        <ele>202</ele>
        <time>2019-02-25T17:09:07Z</time>
      </trkpt>
      <trkpt lat="47.25123" lon="-1.098">
        <ele>202</ele>
        <time>2019-02-25T17:09:08Z</time>
      </trkpt>
      <trkpt lat="47.25121" lon="-1.09787">
        <ele>202</ele>
        <time>2019-02-25T17:09:11Z</time>
      </trkpt>
      <trkpt lat="47.25117" lon="-1.09779">
        <ele>202</ele>
        <time>2019-02-25T17:09:13Z</time>
      </trkpt>
      <trkpt lat="47.25113" lon="-1.09776">
        <ele>202</ele>
        <time>2019-02-25T17:09:14Z</time>
      </trkpt>
      <trkpt lat="47.25103" lon="-1.09773">
        <ele>202</ele>
        <time>2019-02-25T17:09:17Z</time>
      </trkpt>
      <trkpt lat="47.25072" lon="-1.09764">
        <ele>203</ele>
        <time>2019-02-25T17:09:26Z</time>
      </trkpt>
      <trkpt lat="47.25069" lon="-1.09762">
        <ele>203</ele>
        <time>2019-02-25T17:09:27Z</time>
      </trkpt>
      <trkpt lat="47.25047" lon="-1.09754">
        <ele>203</ele>
        <time>2019-02-25T17:09:34Z</time>
      </trkpt>
      <trkpt lat="47.25027" lon="-1.09745">
        <ele>203</ele>
        <time>2019-02-25T17:09:41Z</time>
      </trkpt>
      <trkpt lat="47.25017" lon="-1.09749">
        <ele>204</ele>
        <time>2019-02-25T17:09:46Z</time>
      </trkpt>
      <trkpt lat="47.25011" lon="-1.09771">
        <ele>204</ele>
        <time>2019-02-25T17:09:51Z</time>
      </trkpt>
      <trkpt lat="47.25004" lon="-1.09786">
        <ele>204</ele>
        <time>2019-02-25T17:09:56Z</time>
      </trkpt>
      <trkpt lat="47.24999" lon="-1.09806">
        <ele>204</ele>
        <time>2019-02-25T17:10:01Z</time>
      </trkpt>
      <trkpt lat="47.24994" lon="-1.09829">
        <ele>204</ele>
        <time>2019-02-25T17:10:07Z</time>
      </trkpt>
      <trkpt lat="47.24989" lon="-1.09853">
        <ele>203</ele>
        <time>2019-02-25T17:10:13Z</time>
      </trkpt>
      <trkpt lat="47.24985" lon="-1.09869">
        <ele>203</ele>
        <time>2019-02-25T17:10:17Z</time>
      </trkpt>
      <trkpt lat="47.2498" lon="-1.09893">
        <ele>203</ele>
        <time>2019-02-25T17:10:23Z</time>
      </trkpt>
      <trkpt lat="47.2498" lon="-1.09897">
        <ele>203</ele>
        <time>2019-02-25T17:10:24Z</time>
      </trkpt>
      <trkpt lat="47.24981" lon="-1.09911">
        <ele>203</ele>
        <time>2019-02-25T17:10:27Z</time>
      </trkpt>
      <trkpt lat="47.24977" lon="-1.09934">
        <ele>203</ele>
        <time>2019-02-25T17:10:37Z</time>
      </trkpt>
      <trkpt lat="47.24975" lon="-1.09954">
        <ele>203</ele>
        <time>2019-02-25T17:10:42Z</time>
      </trkpt>
      <trkpt lat="47.24974" lon="-1.09959">
        <ele>203</ele>
        <time>2019-02-25T17:10:43Z</time>
      </trkpt>
      <trkpt lat="47.24973" lon="-1.09965">
        <ele>203</ele>
        <time>2019-02-25T17:10:44Z</time>
      </trkpt>
      <trkpt lat="47.24972" lon="-1.09978">
        <ele>203</ele>
        <time>2019-02-25T17:10:47Z</time>
      </trkpt>
      <trkpt lat="47.2497" lon="-1.10008">
        <ele>203</ele>
        <time>2019-02-25T17:10:54Z</time>
      </trkpt>
      <trkpt lat="47.24968" lon="-1.10033">
        <ele>203</ele>
        <time>2019-02-25T17:11:00Z</time>
      </trkpt>
      <trkpt lat="47.24968" lon="-1.10037">
        <ele>203</ele>
        <time>2019-02-25T17:11:01Z</time>
      </trkpt>
      <trkpt lat="47.24965" lon="-1.10056">
        <ele>203</ele>
        <time>2019-02-25T17:11:05Z</time>
      </trkpt>
      <trkpt lat="47.24961" lon="-1.10072">
        <ele>203</ele>
        <time>2019-02-25T17:11:09Z</time>
      </trkpt>
      <trkpt lat="47.24959" lon="-1.10074">
        <ele>203</ele>
        <time>2019-02-25T17:11:10Z</time>
      </trkpt>
      <trkpt lat="47.24955" lon="-1.1009">
        <ele>203</ele>
        <time>2019-02-25T17:11:15Z</time>
      </trkpt>
      <trkpt lat="47.24949" lon="-1.10117">
        <ele>202</ele>
        <time>2019-02-25T17:11:20Z</time>
      </trkpt>
      <trkpt lat="47.24945" lon="-1.10134">
        <ele>202</ele>
        <time>2019-02-25T17:11:24Z</time>
      </trkpt>
      <trkpt lat="47.24943" lon="-1.10141">
        <ele>202</ele>
        <time>2019-02-25T17:11:26Z</time>
      </trkpt>
      <trkpt lat="47.24942" lon="-1.10149">
        <ele>202</ele>
        <time>2019-02-25T17:11:28Z</time>
      </trkpt>
      <trkpt lat="47.24943" lon="-1.1016">
        <ele>201</ele>
        <time>2019-02-25T17:11:31Z</time>
      </trkpt>
      <trkpt lat="47.24942" lon="-1.10175">
        <ele>201</ele>
        <time>2019-02-25T17:11:34Z</time>
      </trkpt>
      <trkpt lat="47.24937" lon="-1.102">
        <ele>201</ele>
        <time>2019-02-25T17:11:40Z</time>
      </trkpt>
      <trkpt lat="47.24931" lon="-1.10227">
        <ele>201</ele>
        <time>2019-02-25T17:11:46Z</time>
      </trkpt>
      <trkpt lat="47.2493" lon="-1.10246">
        <ele>201</ele>
        <time>2019-02-25T17:11:50Z</time>
      </trkpt>
      <trkpt lat="47.24929" lon="-1.10249">
        <ele>201</ele>
        <time>2019-02-25T17:11:51Z</time>
      </trkpt>
      <trkpt lat="47.24928" lon="-1.10256">
        <ele>201</ele>
        <time>2019-02-25T17:12:12Z</time>
      </trkpt>
      <trkpt lat="47.24928" lon="-1.1026">
        <ele>201</ele>
        <time>2019-02-25T17:12:13Z</time>
      </trkpt>
      <trkpt lat="47.24925" lon="-1.1028">
        <ele>200</ele>
        <time>2019-02-25T17:12:18Z</time>
      </trkpt>
      <trkpt lat="47.2492" lon="-1.10307">
        <ele>200</ele>
        <time>2019-02-25T17:12:24Z</time>
      </trkpt>
      <trkpt lat="47.24913" lon="-1.10347">
        <ele>201</ele>
        <time>2019-02-25T17:12:31Z</time>
      </trkpt>
      <trkpt lat="47.24908" lon="-1.10367">
        <ele>201</ele>
        <time>2019-02-25T17:12:35Z</time>
      </trkpt>
      <trkpt lat="47.24904" lon="-1.10393">
        <ele>201</ele>
        <time>2019-02-25T17:12:40Z</time>
      </trkpt>
      <trkpt lat="47.24893" lon="-1.10437">
        <ele>201</ele>
        <time>2019-02-25T17:12:48Z</time>
      </trkpt>
      <trkpt lat="47.24885" lon="-1.10471">
        <ele>201</ele>
        <time>2019-02-25T17:12:54Z</time>
      </trkpt>
      <trkpt lat="47.24878" lon="-1.10502">
        <ele>201</ele>
        <time>2019-02-25T17:13:00Z</time>
      </trkpt>
      <trkpt lat="47.24874" lon="-1.10518">
        <ele>202</ele>
        <time>2019-02-25T17:13:03Z</time>
      </trkpt>
      <trkpt lat="47.24871" lon="-1.10532">
        <ele>202</ele>
        <time>2019-02-25T17:13:06Z</time>
      </trkpt>
      <trkpt lat="47.2486" lon="-1.10575">
        <ele>202</ele>
        <time>2019-02-25T17:13:14Z</time>
      </trkpt>
      <trkpt lat="47.24854" lon="-1.10606">
        <ele>203</ele>
        <time>2019-02-25T17:13:20Z</time>
      </trkpt>
      <trkpt lat="47.24852" lon="-1.10611">
        <ele>203</ele>
        <time>2019-02-25T17:13:21Z</time>
      </trkpt>
      <trkpt lat="47.24843" lon="-1.10653">
        <ele>203</ele>
        <time>2019-02-25T17:13:28Z</time>
      </trkpt>
      <trkpt lat="47.24835" lon="-1.10696">
        <ele>203</ele>
        <time>2019-02-25T17:13:36Z</time>
      </trkpt>
      <trkpt lat="47.24825" lon="-1.10739">
        <ele>204</ele>
        <time>2019-02-25T17:13:44Z</time>
      </trkpt>
      <trkpt lat="47.24821" lon="-1.10756">
        <ele>204</ele>
        <time>2019-02-25T17:13:47Z</time>
      </trkpt>
      <trkpt lat="47.24814" lon="-1.10784">
        <ele>204</ele>
        <time>2019-02-25T17:13:52Z</time>
      </trkpt>
      <trkpt lat="47.24804" lon="-1.10831">
        <ele>204</ele>
        <time>2019-02-25T17:14:00Z</time>
      </trkpt>
      <trkpt lat="47.24793" lon="-1.10885">
        <ele>203</ele>
        <time>2019-02-25T17:14:09Z</time>
      </trkpt>
      <trkpt lat="47.24783" lon="-1.1093">
        <ele>203</ele>
        <time>2019-02-25T17:14:16Z</time>
      </trkpt>
      <trkpt lat="47.24782" lon="-1.10936">
        <ele>203</ele>
        <time>2019-02-25T17:14:17Z</time>
      </trkpt>
      <trkpt lat="47.24771" lon="-1.10992">
        <ele>202</ele>
        <time>2019-02-25T17:14:25Z</time>
      </trkpt>
      <trkpt lat="47.24761" lon="-1.1104">
        <ele>201</ele>
        <time>2019-02-25T17:14:33Z</time>
      </trkpt>
      <trkpt lat="47.24751" lon="-1.11088">
        <ele>201</ele>
        <time>2019-02-25T17:14:41Z</time>
      </trkpt>
      <trkpt lat="47.24743" lon="-1.11124">
        <ele>201</ele>
        <time>2019-02-25T17:14:47Z</time>
      </trkpt>
      <trkpt lat="47.24734" lon="-1.1117">
        <ele>202</ele>
        <time>2019-02-25T17:14:55Z</time>
      </trkpt>
      <trkpt lat="47.24723" lon="-1.11222">
        <ele>202</ele>
        <time>2019-02-25T17:15:04Z</time>
      </trkpt>
      <trkpt lat="47.24712" lon="-1.11232">
        <ele>202</ele>
        <time>2019-02-25T17:15:07Z</time>
      </trkpt>
      <trkpt lat="47.24689" lon="-1.11236">
        <ele>202</ele>
        <time>2019-02-25T17:15:12Z</time>
      </trkpt>
      <trkpt lat="47.24675" lon="-1.11238">
        <ele>202</ele>
        <time>2019-02-25T17:15:15Z</time>
      </trkpt>
      <trkpt lat="47.24667" lon="-1.11239">
        <ele>203</ele>
        <time>2019-02-25T17:15:17Z</time>
      </trkpt>
      <trkpt lat="47.24635" lon="-1.11245">
        <ele>202</ele>
        <time>2019-02-25T17:15:24Z</time>
      </trkpt>
      <trkpt lat="47.246" lon="-1.1125">
        <ele>202</ele>
        <time>2019-02-25T17:15:32Z</time>
      </trkpt>
      <trkpt lat="47.24571" lon="-1.11253">
        <ele>202</ele>
        <time>2019-02-25T17:15:39Z</time>
      </trkpt>
      <trkpt lat="47.24533" lon="-1.11255">
        <ele>202</ele>
        <time>2019-02-25T17:15:48Z</time>
      </trkpt>
      <trkpt lat="47.24517" lon="-1.11263">
        <ele>202</ele>
        <time>2019-02-25T17:15:53Z</time>
      </trkpt>
      <trkpt lat="47.24511" lon="-1.11284">
        <ele>202</ele>
        <time>2019-02-25T17:15:57Z</time>
      </trkpt>
      <trkpt lat="47.24509" lon="-1.1129">
        <ele>202</ele>
        <time>2019-02-25T17:15:58Z</time>
      </trkpt>
      <trkpt lat="47.24495" lon="-1.11315">
        <ele>202</ele>
        <time>2019-02-25T17:16:03Z</time>
      </trkpt>
      <trkpt lat="47.24478" lon="-1.11345">
        <ele>203</ele>
        <time>2019-02-25T17:16:10Z</time>
      </trkpt>
      <trkpt lat="47.24476" lon="-1.1135">
        <ele>203</ele>
        <time>2019-02-25T17:16:11Z</time>
      </trkpt>
      <trkpt lat="47.24464" lon="-1.11373">
        <ele>203</ele>
        <time>2019-02-25T17:16:17Z</time>
      </trkpt>
      <trkpt lat="47.24457" lon="-1.11378">
        <ele>203</ele>
        <time>2019-02-25T17:16:22Z</time>
      </trkpt>
      <trkpt lat="47.2444" lon="-1.11373">
        <ele>203</ele>
        <time>2019-02-25T17:16:27Z</time>
      </trkpt>
      <trkpt lat="47.24416" lon="-1.11359">
        <ele>203</ele>
        <time>2019-02-25T17:16:33Z</time>
      </trkpt>
      <trkpt lat="47.24412" lon="-1.11355">
        <ele>203</ele>
        <time>2019-02-25T17:16:34Z</time>
      </trkpt>
      <trkpt lat="47.24378" lon="-1.11326">
        <ele>203</ele>
        <time>2019-02-25T17:16:42Z</time>
      </trkpt>
      <trkpt lat="47.24347" lon="-1.11295">
        <ele>203</ele>
        <time>2019-02-25T17:16:49Z</time>
      </trkpt>
      <trkpt lat="47.24304" lon="-1.11251">
        <ele>203</ele>
        <time>2019-02-25T17:16:58Z</time>
      </trkpt>
      <trkpt lat="47.24268" lon="-1.11218">
        <ele>202</ele>
        <time>2019-02-25T17:17:05Z</time>
      </trkpt>
      <trkpt lat="47.24253" lon="-1.11206">
        <ele>201</ele>
        <time>2019-02-25T17:17:08Z</time>
      </trkpt>
      <trkpt lat="47.2421" lon="-1.11182">
        <ele>201</ele>
        <time>2019-02-25T17:17:16Z</time>
      </trkpt>
      <trkpt lat="47.24172" lon="-1.11174">
        <ele>200</ele>
        <time>2019-02-25T17:17:23Z</time>
      </trkpt>
      <trkpt lat="47.24148" lon="-1.11174">
        <ele>200</ele>
        <time>2019-02-25T17:17:28Z</time>
      </trkpt>
      <trkpt lat="47.24124" lon="-1.11179">
        <ele>199</ele>
        <time>2019-02-25T17:17:32Z</time>
      </trkpt>
      <trkpt lat="47.24098" lon="-1.11187">
        <ele>198</ele>
        <time>2019-02-25T17:17:36Z</time>
      </trkpt>
      <trkpt lat="47.24071" lon="-1.11197">
        <ele>198</ele>
        <time>2019-02-25T17:17:40Z</time>
      </trkpt>
      <trkpt lat="47.24064" lon="-1.11199">
        <ele>197</ele>
        <time>2019-02-25T17:17:41Z</time>
      </trkpt>
      <trkpt lat="47.24029" lon="-1.11213">
        <ele>196</ele>
        <time>2019-02-25T17:17:46Z</time>
      </trkpt>
      <trkpt lat="47.24015" lon="-1.11218">
        <ele>196</ele>
        <time>2019-02-25T17:17:48Z</time>
      </trkpt>
      <trkpt lat="47.23993" lon="-1.11221">
        <ele>195</ele>
        <time>2019-02-25T17:17:51Z</time>
      </trkpt>
      <trkpt lat="47.2397" lon="-1.1122">
        <ele>194</ele>
        <time>2019-02-25T17:17:54Z</time>
      </trkpt>
      <trkpt lat="47.23956" lon="-1.11216">
        <ele>194</ele>
        <time>2019-02-25T17:17:56Z</time>
      </trkpt>
      <trkpt lat="47.23929" lon="-1.11204">
        <ele>193</ele>
        <time>2019-02-25T17:18:00Z</time>
      </trkpt>
      <trkpt lat="47.23885" lon="-1.11178">
        <ele>193</ele>
        <time>2019-02-25T17:18:07Z</time>
      </trkpt>
      <trkpt lat="47.23873" lon="-1.11171">
        <ele>193</ele>
        <time>2019-02-25T17:18:09Z</time>
      </trkpt>
      <trkpt lat="47.23841" lon="-1.11156">
        <ele>192</ele>
        <time>2019-02-25T17:18:14Z</time>
      </trkpt>
      <trkpt lat="47.23835" lon="-1.11155">
        <ele>192</ele>
        <time>2019-02-25T17:18:15Z</time>
      </trkpt>
      <trkpt lat="47.23828" lon="-1.11154">
        <ele>191</ele>
        <time>2019-02-25T17:18:16Z</time>
      </trkpt>
      <trkpt lat="47.238" lon="-1.11163">
        <ele>191</ele>
        <time>2019-02-25T17:18:20Z</time>
      </trkpt>
      <trkpt lat="47.23787" lon="-1.11174">
        <ele>190</ele>
        <time>2019-02-25T17:18:22Z</time>
      </trkpt>
      <trkpt lat="47.23768" lon="-1.11192">
        <ele>190</ele>
        <time>2019-02-25T17:18:25Z</time>
      </trkpt>
      <trkpt lat="47.23722" lon="-1.1124">
        <ele>189</ele>
        <time>2019-02-25T17:18:33Z</time>
      </trkpt>
      <trkpt lat="47.23716" lon="-1.11245">
        <ele>189</ele>
        <time>2019-02-25T17:18:34Z</time>
      </trkpt>
      <trkpt lat="47.2371" lon="-1.11249">
        <ele>189</ele>
        <time>2019-02-25T17:18:35Z</time>
      </trkpt>
      <trkpt lat="47.23684" lon="-1.11275">
        <ele>188</ele>
        <time>2019-02-25T17:18:40Z</time>
      </trkpt>
      <trkpt lat="47.23661" lon="-1.11313">
        <ele>188</ele>
        <time>2019-02-25T17:18:46Z</time>
      </trkpt>
      <trkpt lat="47.23624" lon="-1.11369">
        <ele>188</ele>
        <time>2019-02-25T17:18:55Z</time>
      </trkpt>
      <trkpt lat="47.23589" lon="-1.114">
        <ele>188</ele>
        <time>2019-02-25T17:19:01Z</time>
      </trkpt>
      <trkpt lat="47.2357" lon="-1.1141">
        <ele>188</ele>
        <time>2019-02-25T17:19:04Z</time>
      </trkpt>
      <trkpt lat="47.23545" lon="-1.11423">
        <ele>187</ele>
        <time>2019-02-25T17:19:08Z</time>
      </trkpt>
      <trkpt lat="47.23509" lon="-1.11441">
        <ele>188</ele>
        <time>2019-02-25T17:19:15Z</time>
      </trkpt>
      <trkpt lat="47.2347" lon="-1.11462">
        <ele>188</ele>
        <time>2019-02-25T17:19:23Z</time>
      </trkpt>
      <trkpt lat="47.23423" lon="-1.11487">
        <ele>188</ele>
        <time>2019-02-25T17:19:32Z</time>
      </trkpt>
      <trkpt lat="47.23376" lon="-1.11513">
        <ele>188</ele>
        <time>2019-02-25T17:19:41Z</time>
      </trkpt>
      <trkpt lat="47.2334" lon="-1.11526">
        <ele>189</ele>
        <time>2019-02-25T17:19:48Z</time>
      </trkpt>
      <trkpt lat="47.23335" lon="-1.11526">
        <ele>189</ele>
        <time>2019-02-25T17:19:49Z</time>
      </trkpt>
      <trkpt lat="47.23313" lon="-1.11526">
        <ele>189</ele>
        <time>2019-02-25T17:19:53Z</time>
      </trkpt>
      <trkpt lat="47.23308" lon="-1.11524">
        <ele>189</ele>
        <time>2019-02-25T17:19:54Z</time>
      </trkpt>
      <trkpt lat="47.23273" lon="-1.11505">
        <ele>188</ele>
        <time>2019-02-25T17:20:00Z</time>
      </trkpt>
      <trkpt lat="47.23263" lon="-1.11498">
        <ele>188</ele>
        <time>2019-02-25T17:20:02Z</time>
      </trkpt>
      <trkpt lat="47.23255" lon="-1.11492">
        <ele>187</ele>
        <time>2019-02-25T17:20:04Z</time>
      </trkpt>
      <trkpt lat="47.23248" lon="-1.1149">
        <ele>187</ele>
        <time>2019-02-25T17:20:06Z</time>
      </trkpt>
      <trkpt lat="47.23244" lon="-1.11491">
        <ele>186</ele>
        <time>2019-02-25T17:20:07Z</time>
      </trkpt>
      <trkpt lat="47.2324" lon="-1.11493">
        <ele>186</ele>
        <time>2019-02-25T17:20:08Z</time>
      </trkpt>
      <trkpt lat="47.23213" lon="-1.11513">
        <ele>186</ele>
        <time>2019-02-25T17:20:15Z</time>
      </trkpt>
      <trkpt lat="47.2319" lon="-1.11535">
        <ele>187</ele>
        <time>2019-02-25T17:20:22Z</time>
      </trkpt>
      <trkpt lat="47.23186" lon="-1.1155">
        <ele>188</ele>
        <time>2019-02-25T17:20:25Z</time>
      </trkpt>
      <trkpt lat="47.23187" lon="-1.11556">
        <ele>188</ele>
        <time>2019-02-25T17:20:26Z</time>
      </trkpt>
      <trkpt lat="47.23193" lon="-1.11571">
        <ele>188</ele>
        <time>2019-02-25T17:20:29Z</time>
      </trkpt>
      <trkpt lat="47.23195" lon="-1.11577">
        <ele>188</ele>
        <time>2019-02-25T17:20:30Z</time>
      </trkpt>
      <trkpt lat="47.23199" lon="-1.11588">
        <ele>189</ele>
        <time>2019-02-25T17:20:32Z</time>
      </trkpt>
      <trkpt lat="47.23204" lon="-1.11607">
        <ele>189</ele>
        <time>2019-02-25T17:20:35Z</time>
      </trkpt>
      <trkpt lat="47.23205" lon="-1.11621">
        <ele>189</ele>
        <time>2019-02-25T17:20:37Z</time>
      </trkpt>
      <trkpt lat="47.23209" lon="-1.11649">
        <ele>190</ele>
        <time>2019-02-25T17:20:41Z</time>
      </trkpt>
      <trkpt lat="47.23213" lon="-1.11688">
        <ele>190</ele>
        <time>2019-02-25T17:20:47Z</time>
      </trkpt>
      <trkpt lat="47.23215" lon="-1.11708">
        <ele>191</ele>
        <time>2019-02-25T17:20:50Z</time>
      </trkpt>
      <trkpt lat="47.2322" lon="-1.1174">
        <ele>192</ele>
        <time>2019-02-25T17:20:55Z</time>
      </trkpt>
      <trkpt lat="47.23223" lon="-1.11759">
        <ele>192</ele>
        <time>2019-02-25T17:20:58Z</time>
      </trkpt>
      <trkpt lat="47.23225" lon="-1.11771">
        <ele>192</ele>
        <time>2019-02-25T17:21:00Z</time>
      </trkpt>
      <trkpt lat="47.23227" lon="-1.11782">
        <ele>192</ele>
        <time>2019-02-25T17:21:02Z</time>
      </trkpt>
      <trkpt lat="47.2323" lon="-1.11806">
        <ele>193</ele>
        <time>2019-02-25T17:21:06Z</time>
      </trkpt>
      <trkpt lat="47.23232" lon="-1.11839">
        <ele>194</ele>
        <time>2019-02-25T17:21:12Z</time>
      </trkpt>
      <trkpt lat="47.23234" lon="-1.11854">
        <ele>194</ele>
        <time>2019-02-25T17:21:15Z</time>
      </trkpt>
      <trkpt lat="47.23236" lon="-1.11867">
        <ele>195</ele>
        <time>2019-02-25T17:21:18Z</time>
      </trkpt>
      <trkpt lat="47.23241" lon="-1.11895">
        <ele>195</ele>
        <time>2019-02-25T17:21:24Z</time>
      </trkpt>
      <trkpt lat="47.23242" lon="-1.11901">
        <ele>195</ele>
        <time>2019-02-25T17:21:25Z</time>
      </trkpt>
      <trkpt lat="47.23254" lon="-1.11943">
        <ele>196</ele>
        <time>2019-02-25T17:21:32Z</time>
      </trkpt>
      <trkpt lat="47.23257" lon="-1.11949">
        <ele>196</ele>
        <time>2019-02-25T17:21:33Z</time>
      </trkpt>
      <trkpt lat="47.23262" lon="-1.1196">
        <ele>196</ele>
        <time>2019-02-25T17:21:35Z</time>
      </trkpt>
      <trkpt lat="47.23284" lon="-1.12007">
        <ele>197</ele>
        <time>2019-02-25T17:21:43Z</time>
      </trkpt>
      <trkpt lat="47.23314" lon="-1.12068">
        <ele>197</ele>
        <time>2019-02-25T17:21:53Z</time>
      </trkpt>
      <trkpt lat="47.23345" lon="-1.1213">
        <ele>196</ele>
        <time>2019-02-25T17:22:02Z</time>
      </trkpt>
      <trkpt lat="47.2337" lon="-1.12202">
        <ele>197</ele>
        <time>2019-02-25T17:22:11Z</time>
      </trkpt>
      <trkpt lat="47.23378" lon="-1.12229">
        <ele>197</ele>
        <time>2019-02-25T17:22:16Z</time>
      </trkpt>
      <trkpt lat="47.23381" lon="-1.1223">
        <ele>198</ele>
        <time>2019-02-25T17:22:17Z</time>
      </trkpt>
      <trkpt lat="47.23386" lon="-1.12228">
        <ele>198</ele>
        <time>2019-02-25T17:22:19Z</time>
      </trkpt>
      <trkpt lat="47.23402" lon="-1.12227">
        <ele>198</ele>
        <time>2019-02-25T17:22:24Z</time>
      </trkpt>
      <trkpt lat="47.2341" lon="-1.12228">
        <ele>198</ele>
        <time>2019-02-25T17:22:59Z</time>
      </trkpt>
      <trkpt lat="47.23415" lon="-1.12229">
        <ele>198</ele>
        <time>2019-02-25T17:23:02Z</time>
      </trkpt>
      <trkpt lat="47.23422" lon="-1.12228">
        <ele>198</ele>
        <time>2019-02-25T17:23:08Z</time>
      </trkpt>
      <trkpt lat="47.23424" lon="-1.12228">
        <ele>198</ele>
        <time>2019-02-25T17:23:09Z</time>
      </trkpt>
      <trkpt lat="47.23436" lon="-1.12232">
        <ele>198</ele>
        <time>2019-02-25T17:23:16Z</time>
      </trkpt>
      <trkpt lat="47.23449" lon="-1.1224">
        <ele>198</ele>
        <time>2019-02-25T17:23:24Z</time>
      </trkpt>
      <trkpt lat="47.23465" lon="-1.12248">
        <ele>198</ele>
        <time>2019-02-25T17:23:30Z</time>
      </trkpt>
      <trkpt lat="47.23478" lon="-1.12255">
        <ele>198</ele>
        <time>2019-02-25T17:23:35Z</time>
      </trkpt>
      <trkpt lat="47.23495" lon="-1.12266">
        <ele>198</ele>
        <time>2019-02-25T17:23:42Z</time>
      </trkpt>
      <trkpt lat="47.23509" lon="-1.12274">
        <ele>198</ele>
        <time>2019-02-25T17:24:04Z</time>
      </trkpt>
      <trkpt lat="47.2351" lon="-1.12276">
        <ele>198</ele>
        <time>2019-02-25T17:24:05Z</time>
      </trkpt>
      <trkpt lat="47.23519" lon="-1.12283">
        <ele>198</ele>
        <time>2019-02-25T17:24:10Z</time>
      </trkpt>
      <trkpt lat="47.2353" lon="-1.12289">
        <ele>198</ele>
        <time>2019-02-25T17:24:15Z</time>
      </trkpt>
      <trkpt lat="47.23547" lon="-1.12304">
        <ele>198</ele>
        <time>2019-02-25T17:24:22Z</time>
      </trkpt>
      <trkpt lat="47.2356" lon="-1.12317">
        <ele>198</ele>
        <time>2019-02-25T17:24:28Z</time>
      </trkpt>
      <trkpt lat="47.23572" lon="-1.1233">
        <ele>198</ele>
        <time>2019-02-25T17:24:34Z</time>
      </trkpt>
      <trkpt lat="47.23587" lon="-1.12338">
        <ele>198</ele>
        <time>2019-02-25T17:24:41Z</time>
      </trkpt>
      <trkpt lat="47.23606" lon="-1.12343">
        <ele>198</ele>
        <time>2019-02-25T17:24:48Z</time>
      </trkpt>
      <trkpt lat="47.23621" lon="-1.12343">
        <ele>198</ele>
        <time>2019-02-25T17:24:54Z</time>
      </trkpt>
      <trkpt lat="47.23632" lon="-1.12344">
        <ele>198</ele>
        <time>2019-02-25T17:24:59Z</time>
      </trkpt>
      <trkpt lat="47.23646" lon="-1.12346">
        <ele>199</ele>
        <time>2019-02-25T17:25:05Z</time>
      </trkpt>
      <trkpt lat="47.23656" lon="-1.12347">
        <ele>199</ele>
        <time>2019-02-25T17:25:09Z</time>
      </trkpt>
      <trkpt lat="47.23675" lon="-1.12351">
        <ele>200</ele>
        <time>2019-02-25T17:25:17Z</time>
      </trkpt>
      <trkpt lat="47.23677" lon="-1.12353">
        <ele>200</ele>
        <time>2019-02-25T17:25:18Z</time>
      </trkpt>
      <trkpt lat="47.23691" lon="-1.12367">
        <ele>200</ele>
        <time>2019-02-25T17:25:25Z</time>
      </trkpt>
      <trkpt lat="47.23702" lon="-1.12375">
        <ele>201</ele>
        <time>2019-02-25T17:25:31Z</time>
      </trkpt>
      <trkpt lat="47.23714" lon="-1.1237">
        <ele>201</ele>
        <time>2019-02-25T17:25:36Z</time>
      </trkpt>
      <trkpt lat="47.23727" lon="-1.12361">
        <ele>201</ele>
        <time>2019-02-25T17:25:42Z</time>
      </trkpt>
      <trkpt lat="47.23729" lon="-1.12359">
        <ele>201</ele>
        <time>2019-02-25T17:25:43Z</time>
      </trkpt>
      <trkpt lat="47.23747" lon="-1.12347">
        <ele>201</ele>
        <time>2019-02-25T17:25:50Z</time>
      </trkpt>
      <trkpt lat="47.23763" lon="-1.12335">
        <ele>201</ele>
        <time>2019-02-25T17:25:56Z</time>
      </trkpt>
      <trkpt lat="47.23784" lon="-1.1232">
        <ele>200</ele>
        <time>2019-02-25T17:26:03Z</time>
      </trkpt>
      <trkpt lat="47.23802" lon="-1.12305">
        <ele>200</ele>
        <time>2019-02-25T17:26:09Z</time>
      </trkpt>
      <trkpt lat="47.23805" lon="-1.12303">
        <ele>200</ele>
        <time>2019-02-25T17:26:10Z</time>
      </trkpt>
      <trkpt lat="47.23824" lon="-1.12288">
        <ele>199</ele>
        <time>2019-02-25T17:26:17Z</time>
      </trkpt>
      <trkpt lat="47.23838" lon="-1.1227">
        <ele>199</ele>
        <time>2019-02-25T17:26:23Z</time>
      </trkpt>
      <trkpt lat="47.23847" lon="-1.12263">
        <ele>199</ele>
        <time>2019-02-25T17:26:27Z</time>
      </trkpt>
      <trkpt lat="47.23849" lon="-1.12261">
        <ele>199</ele>
        <time>2019-02-25T17:26:28Z</time>
      </trkpt>
      <trkpt lat="47.23859" lon="-1.12253">
        <ele>198</ele>
        <time>2019-02-25T17:26:34Z</time>
      </trkpt>
      <trkpt lat="47.23868" lon="-1.1224">
        <ele>198</ele>
        <time>2019-02-25T17:26:52Z</time>
      </trkpt>
      <trkpt lat="47.23871" lon="-1.12236">
        <ele>198</ele>
        <time>2019-02-25T17:26:54Z</time>
      </trkpt>
      <trkpt lat="47.23878" lon="-1.12225">
        <ele>199</ele>
        <time>2019-02-25T17:27:07Z</time>
      </trkpt>
      <trkpt lat="47.2388" lon="-1.12223">
        <ele>199</ele>
        <time>2019-02-25T17:27:08Z</time>
      </trkpt>
      <trkpt lat="47.23895" lon="-1.12215">
        <ele>199</ele>
        <time>2019-02-25T17:27:14Z</time>
      </trkpt>
      <trkpt lat="47.23915" lon="-1.12203">
        <ele>200</ele>
        <time>2019-02-25T17:27:22Z</time>
      </trkpt>
      <trkpt lat="47.23921" lon="-1.12201">
        <ele>200</ele>
        <time>2019-02-25T17:27:24Z</time>
      </trkpt>
      <trkpt lat="47.23935" lon="-1.12194">
        <ele>201</ele>
        <time>2019-02-25T17:27:29Z</time>
      </trkpt>
      <trkpt lat="47.23948" lon="-1.12188">
        <ele>201</ele>
        <time>2019-02-25T17:27:34Z</time>
      </trkpt>
      <trkpt lat="47.23953" lon="-1.12187">
        <ele>201</ele>
        <time>2019-02-25T17:27:36Z</time>
      </trkpt>
      <trkpt lat="47.23973" lon="-1.12179">
        <ele>201</ele>
        <time>2019-02-25T17:27:43Z</time>
      </trkpt>
      <trkpt lat="47.23991" lon="-1.12172">
        <ele>202</ele>
        <time>2019-02-25T17:27:50Z</time>
      </trkpt>
      <trkpt lat="47.23996" lon="-1.12168">
        <ele>202</ele>
        <time>2019-02-25T17:27:52Z</time>
      </trkpt>
      <trkpt lat="47.24006" lon="-1.12161">
        <ele>202</ele>
        <time>2019-02-25T17:27:56Z</time>
      </trkpt>
      <trkpt lat="47.24023" lon="-1.12149">
        <ele>202</ele>
        <time>2019-02-25T17:28:03Z</time>
      </trkpt>
      <trkpt lat="47.24034" lon="-1.12146">
        <ele>202</ele>
        <time>2019-02-25T17:28:08Z</time>
      </trkpt>
      <trkpt lat="47.24047" lon="-1.12142">
        <ele>202</ele>
        <time>2019-02-25T17:28:13Z</time>
      </trkpt>
      <trkpt lat="47.24071" lon="-1.12137">
        <ele>203</ele>
        <time>2019-02-25T17:28:21Z</time>
      </trkpt>
      <trkpt lat="47.24082" lon="-1.12137">
        <ele>203</ele>
        <time>2019-02-25T17:28:25Z</time>
      </trkpt>
      <trkpt lat="47.24092" lon="-1.12139">
        <ele>203</ele>
        <time>2019-02-25T17:28:28Z</time>
      </trkpt>
      <trkpt lat="47.24113" lon="-1.12144">
        <ele>203</ele>
        <time>2019-02-25T17:28:35Z</time>
      </trkpt>
      <trkpt lat="47.24136" lon="-1.12147">
        <ele>203</ele>
        <time>2019-02-25T17:28:43Z</time>
      </trkpt>
      <trkpt lat="47.24159" lon="-1.1215">
        <ele>203</ele>
        <time>2019-02-25T17:28:50Z</time>
      </trkpt>
      <trkpt lat="47.24174" lon="-1.12148">
        <ele>203</ele>
        <time>2019-02-25T17:28:56Z</time>
      </trkpt>
      <trkpt lat="47.24179" lon="-1.12148">
        <ele>203</ele>
        <time>2019-02-25T17:29:01Z</time>
      </trkpt>
      <trkpt lat="47.2419" lon="-1.12151">
        <ele>203</ele>
        <time>2019-02-25T17:29:07Z</time>
      </trkpt>
      <trkpt lat="47.24212" lon="-1.12156">
        <ele>202</ele>
        <time>2019-02-25T17:29:14Z</time>
      </trkpt>
      <trkpt lat="47.24235" lon="-1.1216">
        <ele>202</ele>
        <time>2019-02-25T17:29:21Z</time>
      </trkpt>
      <trkpt lat="47.24242" lon="-1.12161">
        <ele>202</ele>
        <time>2019-02-25T17:29:23Z</time>
      </trkpt>
      <trkpt lat="47.24262" lon="-1.12166">
        <ele>202</ele>
        <time>2019-02-25T17:29:29Z</time>
      </trkpt>
      <trkpt lat="47.24281" lon="-1.12168">
        <ele>201</ele>
        <time>2019-02-25T17:29:35Z</time>
      </trkpt>
      <trkpt lat="47.24299" lon="-1.12162">
        <ele>201</ele>
        <time>2019-02-25T17:29:41Z</time>
      </trkpt>
      <trkpt lat="47.24312" lon="-1.12158">
        <ele>201</ele>
        <time>2019-02-25T17:29:47Z</time>
      </trkpt>
      <trkpt lat="47.24323" lon="-1.12158">
        <ele>201</ele>
        <time>2019-02-25T17:29:50Z</time>
      </trkpt>
      <trkpt lat="47.24333" lon="-1.12158">
        <ele>201</ele>
        <time>2019-02-25T17:29:52Z</time>
      </trkpt>
      <trkpt lat="47.24356" lon="-1.12156">
        <ele>200</ele>
        <time>2019-02-25T17:29:58Z</time>
      </trkpt>
      <trkpt lat="47.24385" lon="-1.12155">
        <ele>200</ele>
        <time>2019-02-25T17:30:06Z</time>
      </trkpt>
      <trkpt lat="47.24397" lon="-1.12149">
        <ele>200</ele>
        <time>2019-02-25T17:30:09Z</time>
      </trkpt>
      <trkpt lat="47.24404" lon="-1.12146">
        <ele>200</ele>
        <time>2019-02-25T17:30:11Z</time>
      </trkpt>
      <trkpt lat="47.24427" lon="-1.12136">
        <ele>199</ele>
        <time>2019-02-25T17:30:17Z</time>
      </trkpt>
      <trkpt lat="47.24452" lon="-1.12124">
        <ele>199</ele>
        <time>2019-02-25T17:30:24Z</time>
      </trkpt>
      <trkpt lat="47.24465" lon="-1.12117">
        <ele>199</ele>
        <time>2019-02-25T17:30:28Z</time>
      </trkpt>
      <trkpt lat="47.24472" lon="-1.12113">
        <ele>199</ele>
        <time>2019-02-25T17:30:31Z</time>
      </trkpt>
      <trkpt lat="47.24488" lon="-1.12099">
        <ele>198</ele>
        <time>2019-02-25T17:30:47Z</time>
      </trkpt>
      <trkpt lat="47.2449" lon="-1.12097">
        <ele>198</ele>
        <time>2019-02-25T17:30:48Z</time>
      </trkpt>
      <trkpt lat="47.24498" lon="-1.12082">
        <ele>198</ele>
        <time>2019-02-25T17:30:54Z</time>
      </trkpt>
      <trkpt lat="47.24502" lon="-1.12061">
        <ele>198</ele>
        <time>2019-02-25T17:30:59Z</time>
      </trkpt>
      <trkpt lat="47.2451" lon="-1.12029">
        <ele>198</ele>
        <time>2019-02-25T17:31:06Z</time>
      </trkpt>
      <trkpt lat="47.24512" lon="-1.12021">
        <ele>198</ele>
        <time>2019-02-25T17:31:09Z</time>
      </trkpt>
      <trkpt lat="47.24523" lon="-1.12022">
        <ele>198</ele>
        <time>2019-02-25T17:31:41Z</time>
      </trkpt>
      <trkpt lat="47.24528" lon="-1.12027">
        <ele>197</ele>
        <time>2019-02-25T17:31:44Z</time>
      </trkpt>
      <trkpt lat="47.24535" lon="-1.12029">
        <ele>197</ele>
        <time>2019-02-25T17:31:47Z</time>
      </trkpt>
      <trkpt lat="47.24544" lon="-1.12034">
        <ele>197</ele>
        <time>2019-02-25T17:31:51Z</time>
      </trkpt>
      <trkpt lat="47.24559" lon="-1.12039">
        <ele>197</ele>
        <time>2019-02-25T17:31:57Z</time>
      </trkpt>
      <trkpt lat="47.24568" lon="-1.12043">
        <ele>197</ele>
        <time>2019-02-25T17:32:03Z</time>
      </trkpt>
      <trkpt lat="47.24601" lon="-1.12055">
        <ele>198</ele>
        <time>2019-02-25T17:32:41Z</time>
      </trkpt>
      <trkpt lat="47.24603" lon="-1.12056">
        <ele>198</ele>
        <time>2019-02-25T17:32:42Z</time>
      </trkpt>
      <trkpt lat="47.24616" lon="-1.12062">
        <ele>198</ele>
        <time>2019-02-25T17:32:48Z</time>
      </trkpt>
      <trkpt lat="47.2462" lon="-1.12061">
        <ele>198</ele>
        <time>2019-02-25T17:32:50Z</time>
      </trkpt>
      <trkpt lat="47.24624" lon="-1.12054">
        <ele>198</ele>
        <time>2019-02-25T17:32:52Z</time>
      </trkpt>
      <trkpt lat="47.24627" lon="-1.12043">
        <ele>198</ele>
        <time>2019-02-25T17:32:55Z</time>
      </trkpt>
      <trkpt lat="47.24628" lon="-1.12035">
        <ele>198</ele>
        <time>2019-02-25T17:32:57Z</time>
      </trkpt>
      <trkpt lat="47.24631" lon="-1.12018">
        <ele>198</ele>
        <time>2019-02-25T17:33:02Z</time>
      </trkpt>
      <trkpt lat="47.24635" lon="-1.12">
        <ele>198</ele>
        <time>2019-02-25T17:33:07Z</time>
      </trkpt>
      <trkpt lat="47.24635" lon="-1.11996">
        <ele>198</ele>
        <time>2019-02-25T17:33:08Z</time>
      </trkpt>
      <trkpt lat="47.24638" lon="-1.11971">
        <ele>198</ele>
        <time>2019-02-25T17:33:15Z</time>
      </trkpt>
      <trkpt lat="47.24641" lon="-1.11944">
        <ele>198</ele>
        <time>2019-02-25T17:33:22Z</time>
      </trkpt>
      <trkpt lat="47.24643" lon="-1.11924">
        <ele>198</ele>
        <time>2019-02-25T17:33:40Z</time>
      </trkpt>
      <trkpt lat="47.24643" lon="-1.11921">
        <ele>198</ele>
        <time>2019-02-25T17:33:41Z</time>
      </trkpt>
      <trkpt lat="47.24646" lon="-1.11899">
        <ele>198</ele>
        <time>2019-02-25T17:33:47Z</time>
      </trkpt>
      <trkpt lat="47.24646" lon="-1.11874">
        <ele>198</ele>
        <time>2019-02-25T17:33:53Z</time>
      </trkpt>
      <trkpt lat="47.24648" lon="-1.11848">
        <ele>198</ele>
        <time>2019-02-25T17:33:59Z</time>
      </trkpt>
      <trkpt lat="47.24649" lon="-1.1183">
        <ele>198</ele>
        <time>2019-02-25T17:34:04Z</time>
      </trkpt>
      <trkpt lat="47.24652" lon="-1.11815">
        <ele>198</ele>
        <time>2019-02-25T17:34:09Z</time>
      </trkpt>
      <trkpt lat="47.24652" lon="-1.1179">
        <ele>198</ele>
        <time>2019-02-25T17:34:16Z</time>
      </trkpt>
      <trkpt lat="47.24654" lon="-1.11756">
        <ele>199</ele>
        <time>2019-02-25T17:34:24Z</time>
      </trkpt>
      <trkpt lat="47.24655" lon="-1.11751">
        <ele>199</ele>
        <time>2019-02-25T17:34:25Z</time>
      </trkpt>
      <trkpt lat="47.24658" lon="-1.11724">
        <ele>199</ele>
        <time>2019-02-25T17:34:31Z</time>
      </trkpt>
      <trkpt lat="47.2466" lon="-1.11687">
        <ele>199</ele>
        <time>2019-02-25T17:34:38Z</time>
      </trkpt>
      <trkpt lat="47.24662" lon="-1.11655">
        <ele>200</ele>
        <time>2019-02-25T17:34:44Z</time>
      </trkpt>
      <trkpt lat="47.24663" lon="-1.1165">
        <ele>200</ele>
        <time>2019-02-25T17:34:45Z</time>
      </trkpt>
      <trkpt lat="47.24665" lon="-1.11607">
        <ele>201</ele>
        <time>2019-02-25T17:34:53Z</time>
      </trkpt>
      <trkpt lat="47.24667" lon="-1.11588">
        <ele>201</ele>
        <time>2019-02-25T17:34:57Z</time>
      </trkpt>
      <trkpt lat="47.24668" lon="-1.11579">
        <ele>201</ele>
        <time>2019-02-25T17:35:00Z</time>
      </trkpt>
      <trkpt lat="47.24669" lon="-1.11577">
        <ele>201</ele>
        <time>2019-02-25T17:35:01Z</time>
      </trkpt>
      <trkpt lat="47.24675" lon="-1.11583">
        <ele>202</ele>
        <time>2019-02-25T17:35:04Z</time>
      </trkpt>
      <trkpt lat="47.24682" lon="-1.11595">
        <ele>202</ele>
        <time>2019-02-25T17:35:07Z</time>
      </trkpt>
      <trkpt lat="47.24688" lon="-1.11604">
        <ele>202</ele>
        <time>2019-02-25T17:35:09Z</time>
      </trkpt>
      <trkpt lat="47.24707" lon="-1.11637">
        <ele>202</ele>
        <time>2019-02-25T17:35:16Z</time>
      </trkpt>
      <trkpt lat="47.24737" lon="-1.11695">
        <ele>201</ele>
        <time>2019-02-25T17:35:27Z</time>
      </trkpt>
      <trkpt lat="47.24761" lon="-1.11742">
        <ele>201</ele>
        <time>2019-02-25T17:35:36Z</time>
      </trkpt>
      <trkpt lat="47.24778" lon="-1.11777">
        <ele>201</ele>
        <time>2019-02-25T17:35:43Z</time>
      </trkpt>
      <trkpt lat="47.24804" lon="-1.11828">
        <ele>202</ele>
        <time>2019-02-25T17:35:52Z</time>
      </trkpt>
      <trkpt lat="47.24816" lon="-1.11852">
        <ele>202</ele>
        <time>2019-02-25T17:35:56Z</time>
      </trkpt>
      <trkpt lat="47.24826" lon="-1.11868">
        <ele>202</ele>
        <time>2019-02-25T17:35:59Z</time>
      </trkpt>
      <trkpt lat="47.24856" lon="-1.11902">
        <ele>202</ele>
        <time>2019-02-25T17:36:07Z</time>
      </trkpt>
      <trkpt lat="47.24893" lon="-1.11928">
        <ele>203</ele>
        <time>2019-02-25T17:36:16Z</time>
      </trkpt>
      <trkpt lat="47.24932" lon="-1.11954">
        <ele>204</ele>
        <time>2019-02-25T17:36:25Z</time>
      </trkpt>
      <trkpt lat="47.24973" lon="-1.1198">
        <ele>203</ele>
        <time>2019-02-25T17:36:34Z</time>
      </trkpt>
      <trkpt lat="47.24999" lon="-1.11995">
        <ele>203</ele>
        <time>2019-02-25T17:36:41Z</time>
      </trkpt>
      <trkpt lat="47.25027" lon="-1.12007">
        <ele>203</ele>
        <time>2019-02-25T17:36:47Z</time>
      </trkpt>
      <trkpt lat="47.25053" lon="-1.12018">
        <ele>202</ele>
        <time>2019-02-25T17:36:52Z</time>
      </trkpt>
      <trkpt lat="47.25068" lon="-1.12028">
        <ele>201</ele>
        <time>2019-02-25T17:36:55Z</time>
      </trkpt>
      <trkpt lat="47.25079" lon="-1.12036">
        <ele>201</ele>
        <time>2019-02-25T17:36:58Z</time>
      </trkpt>
      <trkpt lat="47.25082" lon="-1.12039">
        <ele>201</ele>
        <time>2019-02-25T17:36:59Z</time>
      </trkpt>
      <trkpt lat="47.25086" lon="-1.12044">
        <ele>201</ele>
        <time>2019-02-25T17:37:02Z</time>
      </trkpt>
      <trkpt lat="47.25087" lon="-1.12047">
        <ele>200</ele>
        <time>2019-02-25T17:37:03Z</time>
      </trkpt>
      <trkpt lat="47.25089" lon="-1.12068">
        <ele>201</ele>
        <time>2019-02-25T17:37:08Z</time>
      </trkpt>
      <trkpt lat="47.25103" lon="-1.12088">
        <ele>200</ele>
        <time>2019-02-25T17:37:13Z</time>
      </trkpt>
      <trkpt lat="47.25125" lon="-1.12119">
        <ele>200</ele>
        <time>2019-02-25T17:37:20Z</time>
      </trkpt>
      <trkpt lat="47.25131" lon="-1.12127">
        <ele>200</ele>
        <time>2019-02-25T17:37:22Z</time>
      </trkpt>
      <trkpt lat="47.25145" lon="-1.12143">
        <ele>199</ele>
        <time>2019-02-25T17:37:26Z</time>
      </trkpt>
      <trkpt lat="47.25171" lon="-1.12175">
        <ele>199</ele>
        <time>2019-02-25T17:37:33Z</time>
      </trkpt>
      <trkpt lat="47.25186" lon="-1.12193">
        <ele>199</ele>
        <time>2019-02-25T17:37:37Z</time>
      </trkpt>
      <trkpt lat="47.25193" lon="-1.12204">
        <ele>198</ele>
        <time>2019-02-25T17:37:39Z</time>
      </trkpt>
      <trkpt lat="47.25209" lon="-1.12238">
        <ele>198</ele>
        <time>2019-02-25T17:37:45Z</time>
      </trkpt>
      <trkpt lat="47.25212" lon="-1.12243">
        <ele>198</ele>
        <time>2019-02-25T17:37:46Z</time>
      </trkpt>
      <trkpt lat="47.2523" lon="-1.1228">
        <ele>197</ele>
        <time>2019-02-25T17:37:52Z</time>
      </trkpt>
      <trkpt lat="47.25241" lon="-1.12297">
        <ele>197</ele>
        <time>2019-02-25T17:37:55Z</time>
      </trkpt>
      <trkpt lat="47.25253" lon="-1.12311">
        <ele>196</ele>
        <time>2019-02-25T17:37:58Z</time>
      </trkpt>
      <trkpt lat="47.25264" lon="-1.12325">
        <ele>196</ele>
        <time>2019-02-25T17:38:01Z</time>
      </trkpt>
      <trkpt lat="47.25281" lon="-1.12348">
        <ele>195</ele>
        <time>2019-02-25T17:38:06Z</time>
      </trkpt>
      <trkpt lat="47.25297" lon="-1.12376">
        <ele>194</ele>
        <time>2019-02-25T17:38:11Z</time>
      </trkpt>
      <trkpt lat="47.25305" lon="-1.12393">
        <ele>194</ele>
        <time>2019-02-25T17:38:14Z</time>
      </trkpt>
      <trkpt lat="47.2532" lon="-1.12424">
        <ele>193</ele>
        <time>2019-02-25T17:38:19Z</time>
      </trkpt>
      <trkpt lat="47.25329" lon="-1.12443">
        <ele>193</ele>
        <time>2019-02-25T17:38:22Z</time>
      </trkpt>
      <trkpt lat="47.25344" lon="-1.12473">
        <ele>192</ele>
        <time>2019-02-25T17:38:27Z</time>
      </trkpt>
      <trkpt lat="47.2535" lon="-1.12481">
        <ele>192</ele>
        <time>2019-02-25T17:38:29Z</time>
      </trkpt>
      <trkpt lat="47.2538" lon="-1.12523">
        <ele>193</ele>
        <time>2019-02-25T17:38:39Z</time>
      </trkpt>
      <trkpt lat="47.25388" lon="-1.12535">
        <ele>193</ele>
        <time>2019-02-25T17:38:42Z</time>
      </trkpt>
      <trkpt lat="47.25404" lon="-1.12558">
        <ele>194</ele>
        <time>2019-02-25T17:38:48Z</time>
      </trkpt>
      <trkpt lat="47.25407" lon="-1.12562">
        <ele>195</ele>
        <time>2019-02-25T17:38:49Z</time>
      </trkpt>
      <trkpt lat="47.25422" lon="-1.12582">
        <ele>196</ele>
        <time>2019-02-25T17:38:55Z</time>
      </trkpt>
      <trkpt lat="47.25426" lon="-1.12588">
        <ele>196</ele>
        <time>2019-02-25T17:38:57Z</time>
      </trkpt>
      <trkpt lat="47.25436" lon="-1.12603">
        <ele>197</ele>
        <time>2019-02-25T17:39:01Z</time>
      </trkpt>
      <trkpt lat="47.25441" lon="-1.1261">
        <ele>197</ele>
        <time>2019-02-25T17:39:03Z</time>
      </trkpt>
      <trkpt lat="47.25449" lon="-1.12621">
        <ele>198</ele>
        <time>2019-02-25T17:39:06Z</time>
      </trkpt>
      <trkpt lat="47.25463" lon="-1.12639">
        <ele>199</ele>
        <time>2019-02-25T17:39:11Z</time>
      </trkpt>
      <trkpt lat="47.2547" lon="-1.1265">
        <ele>199</ele>
        <time>2019-02-25T17:39:14Z</time>
      </trkpt>
      <trkpt lat="47.25491" lon="-1.12673">
        <ele>200</ele>
        <time>2019-02-25T17:39:21Z</time>
      </trkpt>
      <trkpt lat="47.255" lon="-1.12685">
        <ele>200</ele>
        <time>2019-02-25T17:39:24Z</time>
      </trkpt>
      <trkpt lat="47.25517" lon="-1.12702">
        <ele>200</ele>
        <time>2019-02-25T17:39:29Z</time>
      </trkpt>
      <trkpt lat="47.25534" lon="-1.12716">
        <ele>201</ele>
        <time>2019-02-25T17:39:34Z</time>
      </trkpt>
      <trkpt lat="47.25545" lon="-1.12723">
        <ele>201</ele>
        <time>2019-02-25T17:39:37Z</time>
      </trkpt>
      <trkpt lat="47.25571" lon="-1.12733">
        <ele>202</ele>
        <time>2019-02-25T17:39:44Z</time>
      </trkpt>
      <trkpt lat="47.25575" lon="-1.12734">
        <ele>202</ele>
        <time>2019-02-25T17:39:45Z</time>
      </trkpt>
      <trkpt lat="47.25602" lon="-1.12746">
        <ele>203</ele>
        <time>2019-02-25T17:39:52Z</time>
      </trkpt>
      <trkpt lat="47.25626" lon="-1.12756">
        <ele>203</ele>
        <time>2019-02-25T17:39:58Z</time>
      </trkpt>
      <trkpt lat="47.25634" lon="-1.1276">
        <ele>203</ele>
        <time>2019-02-25T17:40:00Z</time>
      </trkpt>
      <trkpt lat="47.25668" lon="-1.12777">
        <ele>204</ele>
        <time>2019-02-25T17:40:09Z</time>
      </trkpt>
      <trkpt lat="47.25686" lon="-1.12797">
        <ele>204</ele>
        <time>2019-02-25T17:40:15Z</time>
      </trkpt>
      <trkpt lat="47.25712" lon="-1.12827">
        <ele>204</ele>
        <time>2019-02-25T17:40:22Z</time>
      </trkpt>
      <trkpt lat="47.2574" lon="-1.12858">
        <ele>204</ele>
        <time>2019-02-25T17:40:29Z</time>
      </trkpt>
      <trkpt lat="47.2577" lon="-1.12889">
        <ele>204</ele>
        <time>2019-02-25T17:40:37Z</time>
      </trkpt>
      <trkpt lat="47.2578" lon="-1.12901">
        <ele>204</ele>
        <time>2019-02-25T17:40:42Z</time>
      </trkpt>
      <trkpt lat="47.2578" lon="-1.12902">
        <ele>204</ele>
        <time>2019-02-25T17:40:43Z</time>
      </trkpt>
      <trkpt lat="47.25781" lon="-1.12905">
        <ele>204</ele>
        <time>2019-02-25T17:40:46Z</time>
      </trkpt>
      <trkpt lat="47.25782" lon="-1.12907">
        <ele>204</ele>
        <time>2019-02-25T17:40:47Z</time>
      </trkpt>
      <trkpt lat="47.25794" lon="-1.12926">
        <ele>204</ele>
        <time>2019-02-25T17:40:52Z</time>
      </trkpt>
      <trkpt lat="47.25814" lon="-1.12957">
        <ele>203</ele>
        <time>2019-02-25T17:40:59Z</time>
      </trkpt>
      <trkpt lat="47.25822" lon="-1.12973">
        <ele>203</ele>
        <time>2019-02-25T17:41:02Z</time>
      </trkpt>
      <trkpt lat="47.2583" lon="-1.12987">
        <ele>202</ele>
        <time>2019-02-25T17:41:05Z</time>
      </trkpt>
      <trkpt lat="47.25831" lon="-1.12991">
        <ele>202</ele>
        <time>2019-02-25T17:41:06Z</time>
      </trkpt>
      <trkpt lat="47.2584" lon="-1.13008">
        <ele>202</ele>
        <time>2019-02-25T17:41:10Z</time>
      </trkpt>
      <trkpt lat="47.25856" lon="-1.13037">
        <ele>201</ele>
        <time>2019-02-25T17:41:16Z</time>
      </trkpt>
      <trkpt lat="47.25858" lon="-1.13041">
        <ele>201</ele>
        <time>2019-02-25T17:41:17Z</time>
      </trkpt>
      <trkpt lat="47.2587" lon="-1.13066">
        <ele>201</ele>
        <time>2019-02-25T17:41:22Z</time>
      </trkpt>
      <trkpt lat="47.25886" lon="-1.13097">
        <ele>200</ele>
        <time>2019-02-25T17:41:29Z</time>
      </trkpt>
      <trkpt lat="47.25894" lon="-1.13112">
        <ele>200</ele>
        <time>2019-02-25T17:41:31Z</time>
      </trkpt>
      <trkpt lat="47.25905" lon="-1.13133">
        <ele>200</ele>
        <time>2019-02-25T17:41:34Z</time>
      </trkpt>
      <trkpt lat="47.25924" lon="-1.13165">
        <ele>199</ele>
        <time>2019-02-25T17:41:40Z</time>
      </trkpt>
      <trkpt lat="47.25939" lon="-1.13191">
        <ele>199</ele>
        <time>2019-02-25T17:41:45Z</time>
      </trkpt>
      <trkpt lat="47.25941" lon="-1.13197">
        <ele>199</ele>
        <time>2019-02-25T17:41:46Z</time>
      </trkpt>
      <trkpt lat="47.25956" lon="-1.13225">
        <ele>199</ele>
        <time>2019-02-25T17:41:52Z</time>
      </trkpt>
      <trkpt lat="47.25965" lon="-1.13238">
        <ele>199</ele>
        <time>2019-02-25T17:41:57Z</time>
      </trkpt>
      <trkpt lat="47.25978" lon="-1.13262">
        <ele>199</ele>
        <time>2019-02-25T17:42:03Z</time>
      </trkpt>
      <trkpt lat="47.25989" lon="-1.13283">
        <ele>199</ele>
        <time>2019-02-25T17:42:09Z</time>
      </trkpt>
      <trkpt lat="47.25997" lon="-1.13296">
        <ele>199</ele>
        <time>2019-02-25T17:42:14Z</time>
      </trkpt>
      <trkpt lat="47.26006" lon="-1.13317">
        <ele>199</ele>
        <time>2019-02-25T17:42:20Z</time>
      </trkpt>
      <trkpt lat="47.26018" lon="-1.13343">
        <ele>200</ele>
        <time>2019-02-25T17:42:27Z</time>
      </trkpt>
      <trkpt lat="47.26025" lon="-1.13359">
        <ele>200</ele>
        <time>2019-02-25T17:42:31Z</time>
      </trkpt>
      <trkpt lat="47.26031" lon="-1.13363">
        <ele>200</ele>
        <time>2019-02-25T17:42:33Z</time>
      </trkpt>
      <trkpt lat="47.26038" lon="-1.13363">
        <ele>200</ele>
        <time>2019-02-25T17:42:35Z</time>
      </trkpt>
      <trkpt lat="47.26063" lon="-1.13366">
        <ele>200</ele>
        <time>2019-02-25T17:42:41Z</time>
      </trkpt>
      <trkpt lat="47.26096" lon="-1.13375">
        <ele>201</ele>
        <time>2019-02-25T17:42:48Z</time>
      </trkpt>
      <trkpt lat="47.26137" lon="-1.13388">
        <ele>201</ele>
        <time>2019-02-25T17:42:57Z</time>
      </trkpt>
      <trkpt lat="47.26173" lon="-1.13397">
        <ele>201</ele>
        <time>2019-02-25T17:43:05Z</time>
      </trkpt>
      <trkpt lat="47.26215" lon="-1.13408">
        <ele>201</ele>
        <time>2019-02-25T17:43:14Z</time>
      </trkpt>
      <trkpt lat="47.2624" lon="-1.13412">
        <ele>201</ele>
        <time>2019-02-25T17:43:20Z</time>
      </trkpt>
      <trkpt lat="47.2627" lon="-1.13417">
        <ele>200</ele>
        <time>2019-02-25T17:43:28Z</time>
      </trkpt>
      <trkpt lat="47.26297" lon="-1.13419">
        <ele>200</ele>
        <time>2019-02-25T17:43:34Z</time>
      </trkpt>
      <trkpt lat="47.2633" lon="-1.13421">
        <ele>199</ele>
        <time>2019-02-25T17:43:42Z</time>
      </trkpt>
      <trkpt lat="47.26361" lon="-1.13423">
        <ele>199</ele>
        <time>2019-02-25T17:43:49Z</time>
      </trkpt>
      <trkpt lat="47.26368" lon="-1.13423">
        <ele>199</ele>
        <time>2019-02-25T17:43:51Z</time>
      </trkpt>
      <trkpt lat="47.26375" lon="-1.13428">
        <ele>198</ele>
        <time>2019-02-25T17:44:00Z</time>
      </trkpt>
      <trkpt lat="47.26376" lon="-1.13432">
        <ele>198</ele>
        <time>2019-02-25T17:44:01Z</time>
      </trkpt>
      <trkpt lat="47.26376" lon="-1.13442">
        <ele>198</ele>
        <time>2019-02-25T17:44:03Z</time>
      </trkpt>
      <trkpt lat="47.26375" lon="-1.13481">
        <ele>198</ele>
        <time>2019-02-25T17:44:09Z</time>
      </trkpt>
      <trkpt lat="47.26375" lon="-1.13489">
        <ele>198</ele>
        <time>2019-02-25T17:44:10Z</time>
      </trkpt>
      <trkpt lat="47.26373" lon="-1.1354">
        <ele>198</ele>
        <time>2019-02-25T17:44:17Z</time>
      </trkpt>
      <trkpt lat="47.26373" lon="-1.13554">
        <ele>198</ele>
        <time>2019-02-25T17:44:19Z</time>
      </trkpt>
      <trkpt lat="47.26371" lon="-1.13589">
        <ele>197</ele>
        <time>2019-02-25T17:44:24Z</time>
      </trkpt>
      <trkpt lat="47.26372" lon="-1.13596">
        <ele>197</ele>
        <time>2019-02-25T17:44:25Z</time>
      </trkpt>
      <trkpt lat="47.26376" lon="-1.13607">
        <ele>197</ele>
        <time>2019-02-25T17:44:27Z</time>
      </trkpt>
      <trkpt lat="47.26384" lon="-1.13614">
        <ele>197</ele>
        <time>2019-02-25T17:44:29Z</time>
      </trkpt>
      <trkpt lat="47.26391" lon="-1.13622">
        <ele>197</ele>
        <time>2019-02-25T17:44:31Z</time>
      </trkpt>
      <trkpt lat="47.26394" lon="-1.13626">
        <ele>197</ele>
        <time>2019-02-25T17:44:32Z</time>
      </trkpt>
      <trkpt lat="47.264" lon="-1.1365">
        <ele>196</ele>
        <time>2019-02-25T17:44:36Z</time>
      </trkpt>
      <trkpt lat="47.26401" lon="-1.13662">
        <ele>196</ele>
        <time>2019-02-25T17:44:38Z</time>
      </trkpt>
      <trkpt lat="47.26399" lon="-1.13687">
        <ele>197</ele>
        <time>2019-02-25T17:44:42Z</time>
      </trkpt>
      <trkpt lat="47.26399" lon="-1.13721">
        <ele>197</ele>
        <time>2019-02-25T17:44:48Z</time>
      </trkpt>
      <trkpt lat="47.26408" lon="-1.13762">
        <ele>197</ele>
        <time>2019-02-25T17:44:55Z</time>
      </trkpt>
      <trkpt lat="47.26409" lon="-1.13768">
        <ele>197</ele>
        <time>2019-02-25T17:44:56Z</time>
      </trkpt>
      <trkpt lat="47.26405" lon="-1.13805">
        <ele>197</ele>
        <time>2019-02-25T17:45:03Z</time>
      </trkpt>
      <trkpt lat="47.26404" lon="-1.13807">
        <ele>197</ele>
        <time>2019-02-25T17:45:04Z</time>
      </trkpt>
      <trkpt lat="47.26401" lon="-1.13815">
        <ele>196</ele>
        <time>2019-02-25T17:45:07Z</time>
      </trkpt>
      <trkpt lat="47.26399" lon="-1.13819">
        <ele>196</ele>
        <time>2019-02-25T17:45:08Z</time>
      </trkpt>
      <trkpt lat="47.26393" lon="-1.13842">
        <ele>196</ele>
        <time>2019-02-25T17:45:13Z</time>
      </trkpt>
      <trkpt lat="47.2639" lon="-1.13868">
        <ele>196</ele>
        <time>2019-02-25T17:45:18Z</time>
      </trkpt>
      <trkpt lat="47.2639" lon="-1.13879">
        <ele>196</ele>
        <time>2019-02-25T17:45:21Z</time>
      </trkpt>
      <trkpt lat="47.26388" lon="-1.13891">
        <ele>196</ele>
        <time>2019-02-25T17:45:24Z</time>
      </trkpt>
      <trkpt lat="47.26387" lon="-1.13922">
        <ele>195</ele>
        <time>2019-02-25T17:45:30Z</time>
      </trkpt>
      <trkpt lat="47.26385" lon="-1.13945">
        <ele>195</ele>
        <time>2019-02-25T17:45:35Z</time>
      </trkpt>
      <trkpt lat="47.26385" lon="-1.13965">
        <ele>195</ele>
        <time>2019-02-25T17:45:40Z</time>
      </trkpt>
      <trkpt lat="47.26385" lon="-1.13978">
        <ele>195</ele>
        <time>2019-02-25T17:45:46Z</time>
      </trkpt>
      <trkpt lat="47.26385" lon="-1.13982">
        <ele>194</ele>
        <time>2019-02-25T17:45:56Z</time>
      </trkpt>
      <trkpt lat="47.26382" lon="-1.13982">
        <ele>194</ele>
        <time>2019-02-25T17:45:58Z</time>
      </trkpt>
      <trkpt lat="47.26382" lon="-1.13972">
        <ele>195</ele>
        <time>2019-02-25T17:46:02Z</time>
      </trkpt>
      <trkpt lat="47.26383" lon="-1.13969">
        <ele>195</ele>
        <time>2019-02-25T17:46:03Z</time>
      </trkpt>
      <trkpt lat="47.26386" lon="-1.13947">
        <ele>195</ele>
        <time>2019-02-25T17:46:08Z</time>
      </trkpt>
      <trkpt lat="47.26387" lon="-1.13921">
        <ele>195</ele>
        <time>2019-02-25T17:46:14Z</time>
      </trkpt>
      <trkpt lat="47.26388" lon="-1.13891">
        <ele>195</ele>
        <time>2019-02-25T17:46:21Z</time>
      </trkpt>
      <trkpt lat="47.2639" lon="-1.13873">
        <ele>195</ele>
        <time>2019-02-25T17:46:27Z</time>
      </trkpt>
      <trkpt lat="47.26391" lon="-1.13852">
        <ele>196</ele>
        <time>2019-02-25T17:46:33Z</time>
      </trkpt>
      <trkpt lat="47.26397" lon="-1.13829">
        <ele>196</ele>
        <time>2019-02-25T17:46:39Z</time>
      </trkpt>
      <trkpt lat="47.26401" lon="-1.13818">
        <ele>196</ele>
        <time>2019-02-25T17:46:42Z</time>
      </trkpt>
      <trkpt lat="47.26406" lon="-1.13808">
        <ele>196</ele>
        <time>2019-02-25T17:46:54Z</time>
      </trkpt>
      <trkpt lat="47.26411" lon="-1.1381">
        <ele>196</ele>
        <time>2019-02-25T17:46:57Z</time>
      </trkpt>
      <trkpt lat="47.26409" lon="-1.13813">
        <ele>196</ele>
        <time>2019-02-25T17:47:21Z</time>
      </trkpt>
      <trkpt lat="47.26406" lon="-1.13808">
        <ele>196</ele>
        <time>2019-02-25T17:47:24Z</time>
      </trkpt>
      <trkpt lat="47.26406" lon="-1.13801">
        <ele>196</ele>
        <time>2019-02-25T17:47:29Z</time>
      </trkpt>
      <trkpt lat="47.26406" lon="-1.13799">
        <ele>196</ele>
        <time>2019-02-25T17:47:30Z</time>
      </trkpt>
      <trkpt lat="47.26407" lon="-1.13786">
        <ele>196</ele>
        <time>2019-02-25T17:47:34Z</time>
      </trkpt>
      <trkpt lat="47.26407" lon="-1.13777">
        <ele>196</ele>
        <time>2019-02-25T17:47:36Z</time>
      </trkpt>
      <trkpt lat="47.26408" lon="-1.13756">
        <ele>197</ele>
        <time>2019-02-25T17:47:41Z</time>
      </trkpt>
      <trkpt lat="47.26401" lon="-1.13734">
        <ele>197</ele>
        <time>2019-02-25T17:47:46Z</time>
      </trkpt>
      <trkpt lat="47.26399" lon="-1.13721">
        <ele>197</ele>
        <time>2019-02-25T17:47:49Z</time>
      </trkpt>
      <trkpt lat="47.26397" lon="-1.13701">
        <ele>197</ele>
        <time>2019-02-25T17:47:54Z</time>
      </trkpt>
      <trkpt lat="47.26399" lon="-1.13688">
        <ele>197</ele>
        <time>2019-02-25T17:47:58Z</time>
      </trkpt>
      <trkpt lat="47.26401" lon="-1.13687">
        <ele>197</ele>
        <time>2019-02-25T17:47:59Z</time>
      </trkpt>
      <trkpt lat="47.26412" lon="-1.1369">
        <ele>197</ele>
        <time>2019-02-25T17:48:04Z</time>
      </trkpt>
      <trkpt lat="47.26433" lon="-1.13704">
        <ele>197</ele>
        <time>2019-02-25T17:48:10Z</time>
      </trkpt>
      <trkpt lat="47.26451" lon="-1.13714">
        <ele>196</ele>
        <time>2019-02-25T17:48:15Z</time>
      </trkpt>
      <trkpt lat="47.26454" lon="-1.13716">
        <ele>196</ele>
        <time>2019-02-25T17:48:16Z</time>
      </trkpt>
      <trkpt lat="47.26474" lon="-1.13724">
        <ele>195</ele>
        <time>2019-02-25T17:48:23Z</time>
      </trkpt>
      <trkpt lat="47.26482" lon="-1.13728">
        <ele>195</ele>
        <time>2019-02-25T17:48:25Z</time>
      </trkpt>
      <trkpt lat="47.26504" lon="-1.13741">
        <ele>195</ele>
        <time>2019-02-25T17:48:31Z</time>
      </trkpt>
      <trkpt lat="47.26523" lon="-1.13739">
        <ele>194</ele>
        <time>2019-02-25T17:48:50Z</time>
      </trkpt>
      <trkpt lat="47.2653" lon="-1.13736">
        <ele>194</ele>
        <time>2019-02-25T17:48:53Z</time>
      </trkpt>
      <trkpt lat="47.26544" lon="-1.13725">
        <ele>194</ele>
        <time>2019-02-25T17:48:58Z</time>
      </trkpt>
      <trkpt lat="47.26552" lon="-1.13711">
        <ele>194</ele>
        <time>2019-02-25T17:49:02Z</time>
      </trkpt>
      <trkpt lat="47.26569" lon="-1.13693">
        <ele>195</ele>
        <time>2019-02-25T17:49:08Z</time>
      </trkpt>
      <trkpt lat="47.26581" lon="-1.13688">
        <ele>195</ele>
        <time>2019-02-25T17:49:11Z</time>
      </trkpt>
      <trkpt lat="47.26599" lon="-1.13679">
        <ele>195</ele>
        <time>2019-02-25T17:49:16Z</time>
      </trkpt>
      <trkpt lat="47.26626" lon="-1.13664">
        <ele>196</ele>
        <time>2019-02-25T17:49:24Z</time>
      </trkpt>
      <trkpt lat="47.26652" lon="-1.13649">
        <ele>196</ele>
        <time>2019-02-25T17:49:31Z</time>
      </trkpt>
      <trkpt lat="47.26656" lon="-1.13647">
        <ele>196</ele>
        <time>2019-02-25T17:49:32Z</time>
      </trkpt>
      <trkpt lat="47.26684" lon="-1.13634">
        <ele>196</ele>
        <time>2019-02-25T17:49:40Z</time>
      </trkpt>
      <trkpt lat="47.26715" lon="-1.1362">
        <ele>196</ele>
        <time>2019-02-25T17:49:48Z</time>
      </trkpt>
      <trkpt lat="47.26725" lon="-1.13618">
        <ele>196</ele>
        <time>2019-02-25T17:49:51Z</time>
      </trkpt>
      <trkpt lat="47.26728" lon="-1.1362">
        <ele>196</ele>
        <time>2019-02-25T17:49:52Z</time>
      </trkpt>
      <trkpt lat="47.26741" lon="-1.13619">
        <ele>196</ele>
        <time>2019-02-25T17:49:56Z</time>
      </trkpt>
      <trkpt lat="47.26766" lon="-1.13601">
        <ele>196</ele>
        <time>2019-02-25T17:50:03Z</time>
      </trkpt>
      <trkpt lat="47.2679" lon="-1.13584">
        <ele>196</ele>
        <time>2019-02-25T17:50:10Z</time>
      </trkpt>
      <trkpt lat="47.26805" lon="-1.13567">
        <ele>196</ele>
        <time>2019-02-25T17:50:15Z</time>
      </trkpt>
      <trkpt lat="47.26818" lon="-1.13541">
        <ele>196</ele>
        <time>2019-02-25T17:50:21Z</time>
      </trkpt>
      <trkpt lat="47.2683" lon="-1.13523">
        <ele>196</ele>
        <time>2019-02-25T17:50:28Z</time>
      </trkpt>
      <trkpt lat="47.26839" lon="-1.13522">
        <ele>196</ele>
        <time>2019-02-25T17:50:51Z</time>
      </trkpt>
      <trkpt lat="47.2684" lon="-1.13523">
        <ele>196</ele>
        <time>2019-02-25T17:50:52Z</time>
      </trkpt>
      <trkpt lat="47.26847" lon="-1.13526">
        <ele>196</ele>
        <time>2019-02-25T17:50:59Z</time>
      </trkpt>
      <trkpt lat="47.26848" lon="-1.13526">
        <ele>196</ele>
        <time>2019-02-25T17:51:00Z</time>
      </trkpt>
      <trkpt lat="47.2685" lon="-1.13525">
        <ele>196</ele>
        <time>2019-02-25T17:51:01Z</time>
      </trkpt>
      <trkpt lat="47.26855" lon="-1.1352">
        <ele>196</ele>
        <time>2019-02-25T17:51:05Z</time>
      </trkpt>
      <trkpt lat="47.26859" lon="-1.13516">
        <ele>196</ele>
        <time>2019-02-25T17:51:09Z</time>
      </trkpt>
      <trkpt lat="47.26862" lon="-1.13513">
        <ele>196</ele>
        <time>2019-02-25T17:51:12Z</time>
      </trkpt>
      <trkpt lat="47.2687" lon="-1.1351">
        <ele>196</ele>
        <time>2019-02-25T17:51:26Z</time>
      </trkpt>
      <trkpt lat="47.26874" lon="-1.13509">
        <ele>196</ele>
        <time>2019-02-25T17:51:28Z</time>
      </trkpt>
      <trkpt lat="47.26886" lon="-1.13505">
        <ele>196</ele>
        <time>2019-02-25T17:51:34Z</time>
      </trkpt>
      <trkpt lat="47.26893" lon="-1.13501">
        <ele>196</ele>
        <time>2019-02-25T17:51:39Z</time>
      </trkpt>
      <trkpt lat="47.26903" lon="-1.13489">
        <ele>196</ele>
        <time>2019-02-25T17:51:45Z</time>
      </trkpt>
      <trkpt lat="47.26905" lon="-1.13487">
        <ele>196</ele>
        <time>2019-02-25T17:51:46Z</time>
      </trkpt>
      <trkpt lat="47.26919" lon="-1.13471">
        <ele>196</ele>
        <time>2019-02-25T17:51:53Z</time>
      </trkpt>
      <trkpt lat="47.26923" lon="-1.13469">
        <ele>196</ele>
        <time>2019-02-25T17:51:55Z</time>
      </trkpt>
      <trkpt lat="47.26929" lon="-1.13472">
        <ele>196</ele>
        <time>2019-02-25T17:51:58Z</time>
      </trkpt>
      <trkpt lat="47.26949" lon="-1.13481">
        <ele>197</ele>
        <time>2019-02-25T17:52:04Z</time>
      </trkpt>
      <trkpt lat="47.26975" lon="-1.1349">
        <ele>197</ele>
        <time>2019-02-25T17:52:11Z</time>
      </trkpt>
      <trkpt lat="47.26988" lon="-1.13501">
        <ele>197</ele>
        <time>2019-02-25T17:52:15Z</time>
      </trkpt>
      <trkpt lat="47.26989" lon="-1.13506">
        <ele>197</ele>
        <time>2019-02-25T17:52:16Z</time>
      </trkpt>
      <trkpt lat="47.26987" lon="-1.13523">
        <ele>197</ele>
        <time>2019-02-25T17:52:19Z</time>
      </trkpt>
      <trkpt lat="47.26985" lon="-1.13535">
        <ele>197</ele>
        <time>2019-02-25T17:52:21Z</time>
      </trkpt>
      <trkpt lat="47.26983" lon="-1.13551">
        <ele>197</ele>
        <time>2019-02-25T17:52:24Z</time>
      </trkpt>
      <trkpt lat="47.26972" lon="-1.13561">
        <ele>197</ele>
        <time>2019-02-25T17:52:27Z</time>
      </trkpt>
      <trkpt lat="47.26969" lon="-1.13564">
        <ele>197</ele>
        <time>2019-02-25T17:52:28Z</time>
      </trkpt>
      <trkpt lat="47.26961" lon="-1.13578">
        <ele>197</ele>
        <time>2019-02-25T17:52:31Z</time>
      </trkpt>
      <trkpt lat="47.26965" lon="-1.13584">
        <ele>197</ele>
        <time>2019-02-25T17:52:34Z</time>
      </trkpt>
      <trkpt lat="47.26966" lon="-1.13585">
        <ele>197</ele>
        <time>2019-02-25T17:52:35Z</time>
      </trkpt>
    </trkseg>
  </trk>
</gpx>